﻿<?xml version="1.0" encoding="utf-8"?><gpx creator="Garmin Desktop App" version="1.1" xsi:schemaLocation="http://www.topografix.com/GPX/1/1 http://www.topografix.com/GPX/1/1/gpx.xsd http://www.garmin.com/xmlschemas/WaypointExtension/v1 http://www8.garmin.com/xmlschemas/WaypointExtensionv1.xsd http://www.garmin.com/xmlschemas/TrackPointExtension/v1 http://www.garmin.com/xmlschemas/TrackPointExtensionv1.xsd http://www.garmin.com/xmlschemas/GpxExtensions/v3 http://www8.garmin.com/xmlschemas/GpxExtensionsv3.xsd http://www.garmin.com/xmlschemas/ActivityExtension/v1 http://www8.garmin.com/xmlschemas/ActivityExtensionv1.xsd http://www.garmin.com/xmlschemas/AdventuresExtensions/v1 http://www8.garmin.com/xmlschemas/AdventuresExtensionv1.xsd http://www.garmin.com/xmlschemas/PressureExtension/v1 http://www.garmin.com/xmlschemas/PressureExtensionv1.xsd http://www.garmin.com/xmlschemas/TripExtensions/v1 http://www.garmin.com/xmlschemas/TripExtensionsv1.xsd http://www.garmin.com/xmlschemas/TripMetaDataExtensions/v1 http://www.garmin.com/xmlschemas/TripMetaDataExtensionsv1.xsd http://www.garmin.com/xmlschemas/ViaPointTransportationModeExtensions/v1 http://www.garmin.com/xmlschemas/ViaPointTransportationModeExtensionsv1.xsd http://www.garmin.com/xmlschemas/CreationTimeExtension/v1 http://www.garmin.com/xmlschemas/CreationTimeExtensionsv1.xsd http://www.garmin.com/xmlschemas/AccelerationExtension/v1 http://www.garmin.com/xmlschemas/AccelerationExtensionv1.xsd http://www.garmin.com/xmlschemas/PowerExtension/v1 http://www.garmin.com/xmlschemas/PowerExtensionv1.xsd http://www.garmin.com/xmlschemas/VideoExtension/v1 http://www.garmin.com/xmlschemas/VideoExtensionv1.xsd" xmlns="http://www.topografix.com/GPX/1/1" xmlns:xsi="http://www.w3.org/2001/XMLSchema-instance" xmlns:wptx1="http://www.garmin.com/xmlschemas/WaypointExtension/v1" xmlns:gpxtrx="http://www.garmin.com/xmlschemas/GpxExtensions/v3" xmlns:gpxtpx="http://www.garmin.com/xmlschemas/TrackPointExtension/v1" xmlns:gpxx="http://www.garmin.com/xmlschemas/GpxExtensions/v3" xmlns:trp="http://www.garmin.com/xmlschemas/TripExtensions/v1" xmlns:adv="http://www.garmin.com/xmlschemas/AdventuresExtensions/v1" xmlns:prs="http://www.garmin.com/xmlschemas/PressureExtension/v1" xmlns:tmd="http://www.garmin.com/xmlschemas/TripMetaDataExtensions/v1" xmlns:vptm="http://www.garmin.com/xmlschemas/ViaPointTransportationModeExtensions/v1" xmlns:ctx="http://www.garmin.com/xmlschemas/CreationTimeExtension/v1" xmlns:gpxacc="http://www.garmin.com/xmlschemas/AccelerationExtension/v1" xmlns:gpxpx="http://www.garmin.com/xmlschemas/PowerExtension/v1" xmlns:vidx1="http://www.garmin.com/xmlschemas/VideoExtension/v1">

  <metadata>
    <link href="http://www.garmin.com">
      <text>Garmin International</text>
    </link>
    <time>2016-05-30T18:31:39Z</time>
    <bounds maxlat="42.845874521881342" maxlon="1.606066189706326" minlat="42.752628363668919" minlon="1.473944932222366" />
  </metadata>

  <trk>
    <name>Ult. Catar Et 10 Hipica Auzat-Tarascon</name>
    <desc>Ultim Catar Sortida amb el Centre Excursionista de Ripollet, interesant ertapa que comença a la Hipica de Auzat fins Tarascon a L'Ariege (França). Tota l'etapa es segiuint el riu "Risseau de Vicdessos", molt agradable de fer i sense gaire desnivell.</desc>
    <extensions>
      <gpxx:TrackExtension>
        <gpxx:DisplayColor>Red</gpxx:DisplayColor>
      </gpxx:TrackExtension>
    </extensions>
    <trkseg>
      <trkpt lat="42.753766123205423" lon="1.474905079230666">
        <ele>786.98000000000002</ele>
        <time>2016-05-28T07:10:01Z</time>
      </trkpt>
      <trkpt lat="42.753761177882552" lon="1.474905079230666">
        <ele>787.94000000000005</ele>
        <time>2016-05-28T07:10:15Z</time>
      </trkpt>
      <trkpt lat="42.753780875355005" lon="1.474884962663055">
        <ele>789.38</ele>
        <time>2016-05-28T07:10:45Z</time>
      </trkpt>
      <trkpt lat="42.753765536472201" lon="1.474894769489765">
        <ele>790.82000000000005</ele>
        <time>2016-05-28T07:11:05Z</time>
      </trkpt>
      <trkpt lat="42.753775930032134" lon="1.474919328466058">
        <ele>791.29999999999995</ele>
        <time>2016-05-28T07:11:32Z</time>
      </trkpt>
      <trkpt lat="42.753724632784724" lon="1.474919077008963">
        <ele>790.34000000000003</ele>
        <time>2016-05-28T07:11:56Z</time>
      </trkpt>
      <trkpt lat="42.753710383549333" lon="1.474882448092103">
        <ele>788.89999999999998</ele>
        <time>2016-05-28T07:12:16Z</time>
      </trkpt>
      <trkpt lat="42.753751538693905" lon="1.474912874400616">
        <ele>789.38</ele>
        <time>2016-05-28T07:12:34Z</time>
      </trkpt>
      <trkpt lat="42.753729997202754" lon="1.474864594638348">
        <ele>787.46000000000004</ele>
        <time>2016-05-28T07:12:53Z</time>
      </trkpt>
      <trkpt lat="42.753740809857845" lon="1.474853279069066">
        <ele>786.01999999999998</ele>
        <time>2016-05-28T07:13:13Z</time>
      </trkpt>
      <trkpt lat="42.753715077415109" lon="1.474846741184592">
        <ele>785.04999999999995</ele>
        <time>2016-05-28T07:13:37Z</time>
      </trkpt>
      <trkpt lat="42.753754807636142" lon="1.474865265190601">
        <ele>779.28999999999996</ele>
        <time>2016-05-28T07:14:00Z</time>
      </trkpt>
      <trkpt lat="42.75379478931427" lon="1.474902648478746">
        <ele>788.41999999999996</ele>
        <time>2016-05-28T07:14:28Z</time>
      </trkpt>
      <trkpt lat="42.753778612241149" lon="1.474895440042019">
        <ele>788.89999999999998</ele>
        <time>2016-05-28T07:14:46Z</time>
      </trkpt>
      <trkpt lat="42.753743743523955" lon="1.47491455078125">
        <ele>786.5</ele>
        <time>2016-05-28T07:15:12Z</time>
      </trkpt>
      <trkpt lat="42.753752125427127" lon="1.474935840815306">
        <ele>785.52999999999997</ele>
        <time>2016-05-28T07:15:33Z</time>
      </trkpt>
      <trkpt lat="42.753751371055841" lon="1.474997363984585">
        <ele>784.57000000000005</ele>
        <time>2016-05-28T07:15:44Z</time>
      </trkpt>
      <trkpt lat="42.753774924203753" lon="1.474917903542519">
        <ele>785.04999999999995</ele>
        <time>2016-05-28T07:16:01Z</time>
      </trkpt>
      <trkpt lat="42.75380409322679" lon="1.474915305152535">
        <ele>787.46000000000004</ele>
        <time>2016-05-28T07:16:17Z</time>
      </trkpt>
      <trkpt lat="42.753717005252838" lon="1.475018318742514">
        <ele>782.16999999999996</ele>
        <time>2016-05-28T07:16:32Z</time>
      </trkpt>
      <trkpt lat="42.753680627793074" lon="1.474999627098441">
        <ele>783.13</ele>
        <time>2016-05-28T07:16:47Z</time>
      </trkpt>
      <trkpt lat="42.753674760460854" lon="1.475033322349191">
        <ele>780.73000000000002</ele>
        <time>2016-05-28T07:17:14Z</time>
      </trkpt>
      <trkpt lat="42.753641987219453" lon="1.474982528015971">
        <ele>778.32000000000005</ele>
        <time>2016-05-28T07:17:38Z</time>
      </trkpt>
      <trkpt lat="42.753640646114945" lon="1.474990658462048">
        <ele>779.28999999999996</ele>
        <time>2016-05-28T07:18:00Z</time>
      </trkpt>
      <trkpt lat="42.753692865371704" lon="1.474984707310796">
        <ele>783.13</ele>
        <time>2016-05-28T07:18:26Z</time>
      </trkpt>
      <trkpt lat="42.753667468205094" lon="1.475025191903114">
        <ele>784.57000000000005</ele>
        <time>2016-05-28T07:18:47Z</time>
      </trkpt>
      <trkpt lat="42.753690350800753" lon="1.475014965981245">
        <ele>788.41999999999996</ele>
        <time>2016-05-28T07:19:01Z</time>
      </trkpt>
      <trkpt lat="42.753680124878883" lon="1.474981103092432">
        <ele>787.94000000000005</ele>
        <time>2016-05-28T07:19:20Z</time>
      </trkpt>
      <trkpt lat="42.753726057708263" lon="1.475002141669393">
        <ele>787.46000000000004</ele>
        <time>2016-05-28T07:19:40Z</time>
      </trkpt>
      <trkpt lat="42.753686243668199" lon="1.475006584078074">
        <ele>788.89999999999998</ele>
        <time>2016-05-28T07:20:01Z</time>
      </trkpt>
      <trkpt lat="42.753658164292574" lon="1.475045308470726">
        <ele>787.46000000000004</ele>
        <time>2016-05-28T07:20:13Z</time>
      </trkpt>
      <trkpt lat="42.75359102524817" lon="1.475009517744184">
        <ele>789.38</ele>
        <time>2016-05-28T07:20:27Z</time>
      </trkpt>
      <trkpt lat="42.753611896187067" lon="1.474968362599611">
        <ele>789.38</ele>
        <time>2016-05-28T07:20:45Z</time>
      </trkpt>
      <trkpt lat="42.753596222028136" lon="1.474933745339513">
        <ele>789.38</ele>
        <time>2016-05-28T07:20:58Z</time>
      </trkpt>
      <trkpt lat="42.753487089648843" lon="1.474871719256043">
        <ele>787.46000000000004</ele>
        <time>2016-05-28T07:21:12Z</time>
      </trkpt>
      <trkpt lat="42.753503769636154" lon="1.474885549396277">
        <ele>787.46000000000004</ele>
        <time>2016-05-28T07:21:17Z</time>
      </trkpt>
      <trkpt lat="42.753392960876226" lon="1.474727215245366">
        <ele>788.89999999999998</ele>
        <time>2016-05-28T07:21:30Z</time>
      </trkpt>
      <trkpt lat="42.753310985863209" lon="1.47468002513051">
        <ele>788.41999999999996</ele>
        <time>2016-05-28T07:21:38Z</time>
      </trkpt>
      <trkpt lat="42.753171175718307" lon="1.474600648507476">
        <ele>786.98000000000002</ele>
        <time>2016-05-28T07:21:53Z</time>
      </trkpt>
      <trkpt lat="42.753133038058877" lon="1.47458522580564">
        <ele>787.46000000000004</ele>
        <time>2016-05-28T07:21:57Z</time>
      </trkpt>
      <trkpt lat="42.753103282302618" lon="1.474564606323838">
        <ele>787.94000000000005</ele>
        <time>2016-05-28T07:22:00Z</time>
      </trkpt>
      <trkpt lat="42.752941595390439" lon="1.474515488371253">
        <ele>787.94000000000005</ele>
        <time>2016-05-28T07:22:14Z</time>
      </trkpt>
      <trkpt lat="42.752820309251547" lon="1.474485397338867">
        <ele>790.34000000000003</ele>
        <time>2016-05-28T07:22:28Z</time>
      </trkpt>
      <trkpt lat="42.752700196579099" lon="1.474387580528855">
        <ele>791.29999999999995</ele>
        <time>2016-05-28T07:22:42Z</time>
      </trkpt>
      <trkpt lat="42.75265920907259" lon="1.474309796467423">
        <ele>789.38</ele>
        <time>2016-05-28T07:22:58Z</time>
      </trkpt>
      <trkpt lat="42.752686031162739" lon="1.474331840872765">
        <ele>786.5</ele>
        <time>2016-05-28T07:23:04Z</time>
      </trkpt>
      <trkpt lat="42.752697179093957" lon="1.474316669628024">
        <ele>786.5</ele>
        <time>2016-05-28T07:23:06Z</time>
      </trkpt>
      <trkpt lat="42.752678990364075" lon="1.474265204742551">
        <ele>786.5</ele>
        <time>2016-05-28T07:23:10Z</time>
      </trkpt>
      <trkpt lat="42.752647390589118" lon="1.474176272749901">
        <ele>784.57000000000005</ele>
        <time>2016-05-28T07:23:22Z</time>
      </trkpt>
      <trkpt lat="42.752628363668919" lon="1.47424953058362">
        <ele>784.09000000000003</ele>
        <time>2016-05-28T07:23:34Z</time>
      </trkpt>
      <trkpt lat="42.752719139680266" lon="1.474169734865427">
        <ele>786.01999999999998</ele>
        <time>2016-05-28T07:23:50Z</time>
      </trkpt>
      <trkpt lat="42.752847885712981" lon="1.474120868369937">
        <ele>786.98000000000002</ele>
        <time>2016-05-28T07:24:07Z</time>
      </trkpt>
      <trkpt lat="42.752820812165737" lon="1.474109049886465">
        <ele>783.61000000000001</ele>
        <time>2016-05-28T07:24:28Z</time>
      </trkpt>
      <trkpt lat="42.752945870161057" lon="1.474098823964596">
        <ele>782.64999999999998</ele>
        <time>2016-05-28T07:24:43Z</time>
      </trkpt>
      <trkpt lat="42.753044441342354" lon="1.474103266373277">
        <ele>782.64999999999998</ele>
        <time>2016-05-28T07:24:52Z</time>
      </trkpt>
      <trkpt lat="42.75321920402348" lon="1.474078204482794">
        <ele>784.57000000000005</ele>
        <time>2016-05-28T07:25:08Z</time>
      </trkpt>
      <trkpt lat="42.753403857350349" lon="1.4739621989429">
        <ele>786.01999999999998</ele>
        <time>2016-05-28T07:25:25Z</time>
      </trkpt>
      <trkpt lat="42.753460435196757" lon="1.473944932222366">
        <ele>785.04999999999995</ele>
        <time>2016-05-28T07:25:41Z</time>
      </trkpt>
      <trkpt lat="42.753542326390743" lon="1.473975526168943">
        <ele>782.64999999999998</ele>
        <time>2016-05-28T07:25:54Z</time>
      </trkpt>
      <trkpt lat="42.753689847886562" lon="1.473965300247073">
        <ele>778.80999999999995</ele>
        <time>2016-05-28T07:26:07Z</time>
      </trkpt>
      <trkpt lat="42.753836866468191" lon="1.474014921113849">
        <ele>777.36000000000001</ele>
        <time>2016-05-28T07:26:23Z</time>
      </trkpt>
      <trkpt lat="42.75402151979506" lon="1.474013328552246">
        <ele>775.44000000000005</ele>
        <time>2016-05-28T07:26:39Z</time>
      </trkpt>
      <trkpt lat="42.754166945815086" lon="1.474037719890475">
        <ele>775.91999999999996</ele>
        <time>2016-05-28T07:26:55Z</time>
      </trkpt>
      <trkpt lat="42.754292255267501" lon="1.474107289686799">
        <ele>776.39999999999998</ele>
        <time>2016-05-28T07:27:11Z</time>
      </trkpt>
      <trkpt lat="42.754429467022419" lon="1.4742470998317">
        <ele>775.91999999999996</ele>
        <time>2016-05-28T07:27:29Z</time>
      </trkpt>
      <trkpt lat="42.754579586908221" lon="1.474336953833699">
        <ele>775.91999999999996</ele>
        <time>2016-05-28T07:27:45Z</time>
      </trkpt>
      <trkpt lat="42.754730880260468" lon="1.4743697270751">
        <ele>774.96000000000004</ele>
        <time>2016-05-28T07:28:00Z</time>
      </trkpt>
      <trkpt lat="42.754906062036753" lon="1.474368972703815">
        <ele>776.39999999999998</ele>
        <time>2016-05-28T07:28:15Z</time>
      </trkpt>
      <trkpt lat="42.754995580762625" lon="1.474482715129852">
        <ele>777.84000000000003</ele>
        <time>2016-05-28T07:28:30Z</time>
      </trkpt>
      <trkpt lat="42.755024833604693" lon="1.474510123953223">
        <ele>778.32000000000005</ele>
        <time>2016-05-28T07:28:33Z</time>
      </trkpt>
      <trkpt lat="42.755146706476808" lon="1.474730484187603">
        <ele>781.69000000000005</ele>
        <time>2016-05-28T07:28:52Z</time>
      </trkpt>
      <trkpt lat="42.755215186625719" lon="1.474958471953869">
        <ele>776.39999999999998</ele>
        <time>2016-05-28T07:29:07Z</time>
      </trkpt>
      <trkpt lat="42.755223903805017" lon="1.475142370909452">
        <ele>771.11000000000001</ele>
        <time>2016-05-28T07:29:22Z</time>
      </trkpt>
      <trkpt lat="42.755291797220707" lon="1.475343285128474">
        <ele>770.14999999999998</ele>
        <time>2016-05-28T07:29:37Z</time>
      </trkpt>
      <trkpt lat="42.755451891571283" lon="1.475446885451675">
        <ele>770.14999999999998</ele>
        <time>2016-05-28T07:29:53Z</time>
      </trkpt>
      <trkpt lat="42.755460860207677" lon="1.4754559379071">
        <ele>770.14999999999998</ele>
        <time>2016-05-28T07:29:54Z</time>
      </trkpt>
      <trkpt lat="42.755579799413681" lon="1.475486615672708">
        <ele>770.63</ele>
        <time>2016-05-28T07:30:08Z</time>
      </trkpt>
      <trkpt lat="42.755751879885793" lon="1.475490974262357">
        <ele>771.11000000000001</ele>
        <time>2016-05-28T07:30:25Z</time>
      </trkpt>
      <trkpt lat="42.755903759971261" lon="1.475529782474041">
        <ele>772.55999999999995</ele>
        <time>2016-05-28T07:30:44Z</time>
      </trkpt>
      <trkpt lat="42.75600484572351" lon="1.47555417381227">
        <ele>774.48000000000002</ele>
        <time>2016-05-28T07:31:12Z</time>
      </trkpt>
      <trkpt lat="42.756227720528841" lon="1.475483849644661">
        <ele>774.96000000000004</ele>
        <time>2016-05-28T07:31:30Z</time>
      </trkpt>
      <trkpt lat="42.756395693868399" lon="1.475311685353518">
        <ele>774.48000000000002</ele>
        <time>2016-05-28T07:31:45Z</time>
      </trkpt>
      <trkpt lat="42.756521170958877" lon="1.475205067545176">
        <ele>773.51999999999998</ele>
        <time>2016-05-28T07:32:01Z</time>
      </trkpt>
      <trkpt lat="42.756674308329821" lon="1.475165337324143">
        <ele>771.60000000000002</ele>
        <time>2016-05-28T07:32:18Z</time>
      </trkpt>
      <trkpt lat="42.756754942238331" lon="1.475246977061033">
        <ele>767.75</ele>
        <time>2016-05-28T07:32:34Z</time>
      </trkpt>
      <trkpt lat="42.756875474005938" lon="1.47534403949976">
        <ele>768.71000000000004</ele>
        <time>2016-05-28T07:32:50Z</time>
      </trkpt>
      <trkpt lat="42.757003549486399" lon="1.475478820502758">
        <ele>768.23000000000002</ele>
        <time>2016-05-28T07:33:06Z</time>
      </trkpt>
      <trkpt lat="42.7570881228894" lon="1.475628856569529">
        <ele>768.71000000000004</ele>
        <time>2016-05-28T07:33:21Z</time>
      </trkpt>
      <trkpt lat="42.757213264703751" lon="1.475788364186883">
        <ele>764.38999999999999</ele>
        <time>2016-05-28T07:33:37Z</time>
      </trkpt>
      <trkpt lat="42.757375873625278" lon="1.475905124098063">
        <ele>761.98000000000002</ele>
        <time>2016-05-28T07:33:54Z</time>
      </trkpt>
      <trkpt lat="42.757435888051987" lon="1.475944435223937">
        <ele>760.05999999999995</ele>
        <time>2016-05-28T07:34:00Z</time>
      </trkpt>
      <trkpt lat="42.757624061778188" lon="1.476027918979526">
        <ele>759.58000000000004</ele>
        <time>2016-05-28T07:34:17Z</time>
      </trkpt>
      <trkpt lat="42.75785087607801" lon="1.476012663915753">
        <ele>757.65999999999997</ele>
        <time>2016-05-28T07:34:35Z</time>
      </trkpt>
      <trkpt lat="42.758037624880672" lon="1.475998666137457">
        <ele>757.17999999999995</ele>
        <time>2016-05-28T07:34:51Z</time>
      </trkpt>
      <trkpt lat="42.75821934454143" lon="1.476006461307406">
        <ele>758.13999999999999</ele>
        <time>2016-05-28T07:35:08Z</time>
      </trkpt>
      <trkpt lat="42.758357645943761" lon="1.476115677505732">
        <ele>757.65999999999997</ele>
        <time>2016-05-28T07:35:22Z</time>
      </trkpt>
      <trkpt lat="42.758532240986824" lon="1.476249536499381">
        <ele>757.17999999999995</ele>
        <time>2016-05-28T07:35:39Z</time>
      </trkpt>
      <trkpt lat="42.758669955655932" lon="1.476360429078341">
        <ele>760.05999999999995</ele>
        <time>2016-05-28T07:35:53Z</time>
      </trkpt>
      <trkpt lat="42.758862236514688" lon="1.476506358012557">
        <ele>763.89999999999998</ele>
        <time>2016-05-28T07:36:13Z</time>
      </trkpt>
      <trkpt lat="42.759013026952744" lon="1.476596295833588">
        <ele>762.46000000000004</ele>
        <time>2016-05-28T07:36:28Z</time>
      </trkpt>
      <trkpt lat="42.759077651426196" lon="1.476744068786502">
        <ele>759.10000000000002</ele>
        <time>2016-05-28T07:36:44Z</time>
      </trkpt>
      <trkpt lat="42.759095169603825" lon="1.476828809827566">
        <ele>757.17999999999995</ele>
        <time>2016-05-28T07:36:51Z</time>
      </trkpt>
      <trkpt lat="42.759137833490968" lon="1.476940624415875">
        <ele>755.73000000000002</ele>
        <time>2016-05-28T07:37:03Z</time>
      </trkpt>
      <trkpt lat="42.759140180423856" lon="1.476953197270632">
        <ele>755.73000000000002</ele>
        <time>2016-05-28T07:37:04Z</time>
      </trkpt>
      <trkpt lat="42.759185442700982" lon="1.477205241099">
        <ele>756.21000000000004</ele>
        <time>2016-05-28T07:37:18Z</time>
      </trkpt>
      <trkpt lat="42.759136240929365" lon="1.477237427607179">
        <ele>759.10000000000002</ele>
        <time>2016-05-28T07:37:34Z</time>
      </trkpt>
      <trkpt lat="42.759065916761756" lon="1.477293251082301">
        <ele>760.53999999999996</ele>
        <time>2016-05-28T07:38:08Z</time>
      </trkpt>
      <trkpt lat="42.759153423830867" lon="1.477247821167111">
        <ele>759.58000000000004</ele>
        <time>2016-05-28T07:38:33Z</time>
      </trkpt>
      <trkpt lat="42.759181167930365" lon="1.477265506982803">
        <ele>760.53999999999996</ele>
        <time>2016-05-28T07:38:53Z</time>
      </trkpt>
      <trkpt lat="42.759203128516674" lon="1.477250587195158">
        <ele>762.46000000000004</ele>
        <time>2016-05-28T07:39:05Z</time>
      </trkpt>
      <trkpt lat="42.759207654744387" lon="1.477268608286977">
        <ele>762.46000000000004</ele>
        <time>2016-05-28T07:39:07Z</time>
      </trkpt>
      <trkpt lat="42.75921125896275" lon="1.477314122021198">
        <ele>762.46000000000004</ele>
        <time>2016-05-28T07:39:11Z</time>
      </trkpt>
      <trkpt lat="42.759062983095646" lon="1.477338680997491">
        <ele>759.58000000000004</ele>
        <time>2016-05-28T07:39:25Z</time>
      </trkpt>
      <trkpt lat="42.759027108550072" lon="1.477375393733382">
        <ele>756.69000000000005</ele>
        <time>2016-05-28T07:39:39Z</time>
      </trkpt>
      <trkpt lat="42.759016631171107" lon="1.477374974638224">
        <ele>757.17999999999995</ele>
        <time>2016-05-28T07:39:40Z</time>
      </trkpt>
      <trkpt lat="42.758903559297323" lon="1.477380841970444">
        <ele>757.65999999999997</ele>
        <time>2016-05-28T07:39:54Z</time>
      </trkpt>
      <trkpt lat="42.758878748863935" lon="1.477453513070941">
        <ele>753.80999999999995</ele>
        <time>2016-05-28T07:40:18Z</time>
      </trkpt>
      <trkpt lat="42.758784284815192" lon="1.477468349039555">
        <ele>752.85000000000002</ele>
        <time>2016-05-28T07:40:33Z</time>
      </trkpt>
      <trkpt lat="42.758776657283306" lon="1.477577649056912">
        <ele>755.25</ele>
        <time>2016-05-28T07:40:46Z</time>
      </trkpt>
      <trkpt lat="42.758790822699666" lon="1.477634310722351">
        <ele>755.73000000000002</ele>
        <time>2016-05-28T07:40:52Z</time>
      </trkpt>
      <trkpt lat="42.758851926773787" lon="1.477836230769754">
        <ele>758.13999999999999</ele>
        <time>2016-05-28T07:41:08Z</time>
      </trkpt>
      <trkpt lat="42.758922167122364" lon="1.477889958769083">
        <ele>759.58000000000004</ele>
        <time>2016-05-28T07:41:23Z</time>
      </trkpt>
      <trkpt lat="42.759012775495648" lon="1.477975705638528">
        <ele>759.10000000000002</ele>
        <time>2016-05-28T07:41:39Z</time>
      </trkpt>
      <trkpt lat="42.759133642539382" lon="1.478012586012483">
        <ele>754.76999999999998</ele>
        <time>2016-05-28T07:42:01Z</time>
      </trkpt>
      <trkpt lat="42.75913942605257" lon="1.478030774742365">
        <ele>753.80999999999995</ele>
        <time>2016-05-28T07:42:03Z</time>
      </trkpt>
      <trkpt lat="42.759250989183784" lon="1.478161448612809">
        <ele>757.17999999999995</ele>
        <time>2016-05-28T07:42:19Z</time>
      </trkpt>
      <trkpt lat="42.759386440739036" lon="1.478332858532667">
        <ele>757.17999999999995</ele>
        <time>2016-05-28T07:42:34Z</time>
      </trkpt>
      <trkpt lat="42.759438157081604" lon="1.478344090282917">
        <ele>758.13999999999999</ele>
        <time>2016-05-28T07:42:40Z</time>
      </trkpt>
      <trkpt lat="42.75947411544621" lon="1.478392286226153">
        <ele>758.62</ele>
        <time>2016-05-28T07:42:43Z</time>
      </trkpt>
      <trkpt lat="42.759556090459228" lon="1.478561013936997">
        <ele>755.73000000000002</ele>
        <time>2016-05-28T07:42:57Z</time>
      </trkpt>
      <trkpt lat="42.759647369384766" lon="1.478781709447503">
        <ele>749.49000000000001</ele>
        <time>2016-05-28T07:43:12Z</time>
      </trkpt>
      <trkpt lat="42.759737223386765" lon="1.478981282562017">
        <ele>749.97000000000003</ele>
        <time>2016-05-28T07:43:27Z</time>
      </trkpt>
      <trkpt lat="42.75985473766923" lon="1.479190243408084">
        <ele>749.97000000000003</ele>
        <time>2016-05-28T07:43:42Z</time>
      </trkpt>
      <trkpt lat="42.759867561981082" lon="1.479216562584043">
        <ele>750.45000000000005</ele>
        <time>2016-05-28T07:43:44Z</time>
      </trkpt>
      <trkpt lat="42.759973676875234" lon="1.479423260316253">
        <ele>748.03999999999996</ele>
        <time>2016-05-28T07:43:59Z</time>
      </trkpt>
      <trkpt lat="42.760084150359035" lon="1.479653343558312">
        <ele>747.55999999999995</ele>
        <time>2016-05-28T07:44:16Z</time>
      </trkpt>
      <trkpt lat="42.760191187262535" lon="1.479842271655798">
        <ele>744.67999999999995</ele>
        <time>2016-05-28T07:44:31Z</time>
      </trkpt>
      <trkpt lat="42.760223709046841" lon="1.479932963848114">
        <ele>742.27999999999997</ele>
        <time>2016-05-28T07:44:37Z</time>
      </trkpt>
      <trkpt lat="42.760336194187403" lon="1.479967581108213">
        <ele>742.27999999999997</ele>
        <time>2016-05-28T07:44:51Z</time>
      </trkpt>
      <trkpt lat="42.760385312139988" lon="1.479970263317227">
        <ele>740.83000000000004</ele>
        <time>2016-05-28T07:45:04Z</time>
      </trkpt>
      <trkpt lat="42.760487403720617" lon="1.479884684085846">
        <ele>742.75999999999999</ele>
        <time>2016-05-28T07:45:18Z</time>
      </trkpt>
      <trkpt lat="42.760640038177371" lon="1.47981746122241">
        <ele>743.72000000000003</ele>
        <time>2016-05-28T07:45:34Z</time>
      </trkpt>
      <trkpt lat="42.760675242170691" lon="1.479818969964981">
        <ele>744.20000000000005</ele>
        <time>2016-05-28T07:45:37Z</time>
      </trkpt>
      <trkpt lat="42.76081882417202" lon="1.479829363524914">
        <ele>743.72000000000003</ele>
        <time>2016-05-28T07:45:48Z</time>
      </trkpt>
      <trkpt lat="42.760926950722933" lon="1.480005970224738">
        <ele>744.20000000000005</ele>
        <time>2016-05-28T07:46:03Z</time>
      </trkpt>
      <trkpt lat="42.760934075340629" lon="1.480048969388008">
        <ele>744.20000000000005</ele>
        <time>2016-05-28T07:46:07Z</time>
      </trkpt>
      <trkpt lat="42.760895099490881" lon="1.48014334961772">
        <ele>742.75999999999999</ele>
        <time>2016-05-28T07:46:13Z</time>
      </trkpt>
      <trkpt lat="42.760868528857827" lon="1.48021618835628">
        <ele>740.83000000000004</ele>
        <time>2016-05-28T07:46:18Z</time>
      </trkpt>
      <trkpt lat="42.76081832125783" lon="1.480323811993003">
        <ele>743.24000000000001</ele>
        <time>2016-05-28T07:46:27Z</time>
      </trkpt>
      <trkpt lat="42.760713631287217" lon="1.480523971840739">
        <ele>743.24000000000001</ele>
        <time>2016-05-28T07:46:42Z</time>
      </trkpt>
      <trkpt lat="42.760611372068524" lon="1.48068624548614">
        <ele>742.75999999999999</ele>
        <time>2016-05-28T07:46:55Z</time>
      </trkpt>
      <trkpt lat="42.760651940479875" lon="1.480916244909167">
        <ele>744.20000000000005</ele>
        <time>2016-05-28T07:47:11Z</time>
      </trkpt>
      <trkpt lat="42.760681193321943" lon="1.480978270992637">
        <ele>744.67999999999995</ele>
        <time>2016-05-28T07:47:15Z</time>
      </trkpt>
      <trkpt lat="42.760748500004411" lon="1.481213048100472">
        <ele>746.60000000000002</ele>
        <time>2016-05-28T07:47:29Z</time>
      </trkpt>
      <trkpt lat="42.760786302387714" lon="1.481340872123838">
        <ele>745.63999999999999</ele>
        <time>2016-05-28T07:47:38Z</time>
      </trkpt>
      <trkpt lat="42.760792085900903" lon="1.481376495212317">
        <ele>745.63999999999999</ele>
        <time>2016-05-28T07:47:40Z</time>
      </trkpt>
      <trkpt lat="42.760875234380364" lon="1.481576487421989">
        <ele>744.67999999999995</ele>
        <time>2016-05-28T07:47:55Z</time>
      </trkpt>
      <trkpt lat="42.761051673442125" lon="1.481590988114476">
        <ele>745.15999999999997</ele>
        <time>2016-05-28T07:48:09Z</time>
      </trkpt>
      <trkpt lat="42.761090397834778" lon="1.48162879049778">
        <ele>745.63999999999999</ele>
        <time>2016-05-28T07:48:13Z</time>
      </trkpt>
      <trkpt lat="42.761275302618742" lon="1.481770947575569">
        <ele>746.12</ele>
        <time>2016-05-28T07:48:30Z</time>
      </trkpt>
      <trkpt lat="42.761315619572997" lon="1.481820233166218">
        <ele>747.08000000000004</ele>
        <time>2016-05-28T07:48:35Z</time>
      </trkpt>
      <trkpt lat="42.761451993137598" lon="1.481957947835326">
        <ele>749.97000000000003</ele>
        <time>2016-05-28T07:48:51Z</time>
      </trkpt>
      <trkpt lat="42.761657852679491" lon="1.482094237580895">
        <ele>751.88999999999999</ele>
        <time>2016-05-28T07:49:08Z</time>
      </trkpt>
      <trkpt lat="42.761873351410031" lon="1.482383077964187">
        <ele>747.55999999999995</ele>
        <time>2016-05-28T07:49:26Z</time>
      </trkpt>
      <trkpt lat="42.762169986963272" lon="1.482403613626957">
        <ele>748.03999999999996</ele>
        <time>2016-05-28T07:49:43Z</time>
      </trkpt>
      <trkpt lat="42.762308372184634" lon="1.482491288334131">
        <ele>746.60000000000002</ele>
        <time>2016-05-28T07:49:57Z</time>
      </trkpt>
      <trkpt lat="42.762545244768262" lon="1.482484079897404">
        <ele>746.12</ele>
        <time>2016-05-28T07:50:14Z</time>
      </trkpt>
      <trkpt lat="42.762736268341541" lon="1.48261190392077">
        <ele>746.12</ele>
        <time>2016-05-28T07:50:29Z</time>
      </trkpt>
      <trkpt lat="42.762929806485772" lon="1.482764454558492">
        <ele>746.12</ele>
        <time>2016-05-28T07:50:45Z</time>
      </trkpt>
      <trkpt lat="42.763094175606966" lon="1.482909210026264">
        <ele>747.55999999999995</ele>
        <time>2016-05-28T07:51:00Z</time>
      </trkpt>
      <trkpt lat="42.763294251635671" lon="1.483030328527093">
        <ele>750.45000000000005</ele>
        <time>2016-05-28T07:51:17Z</time>
      </trkpt>
      <trkpt lat="42.763342866674066" lon="1.482989089563489">
        <ele>749.97000000000003</ele>
        <time>2016-05-28T07:51:21Z</time>
      </trkpt>
      <trkpt lat="42.763437163084745" lon="1.48291289806366">
        <ele>747.55999999999995</ele>
        <time>2016-05-28T07:51:28Z</time>
      </trkpt>
      <trkpt lat="42.763570519164205" lon="1.482766885310412">
        <ele>741.78999999999996</ele>
        <time>2016-05-28T07:51:41Z</time>
      </trkpt>
      <trkpt lat="42.763633383437991" lon="1.482674013823271">
        <ele>739.87</ele>
        <time>2016-05-28T07:51:55Z</time>
      </trkpt>
      <trkpt lat="42.763732122257352" lon="1.482567563652992">
        <ele>741.78999999999996</ele>
        <time>2016-05-28T07:52:06Z</time>
      </trkpt>
      <trkpt lat="42.763767158612609" lon="1.482544345781207">
        <ele>742.75999999999999</ele>
        <time>2016-05-28T07:52:09Z</time>
      </trkpt>
      <trkpt lat="42.763883080333471" lon="1.482366062700748">
        <ele>742.27999999999997</ele>
        <time>2016-05-28T07:52:26Z</time>
      </trkpt>
      <trkpt lat="42.763822227716446" lon="1.482334714382887">
        <ele>745.63999999999999</ele>
        <time>2016-05-28T07:52:40Z</time>
      </trkpt>
      <trkpt lat="42.76393479667604" lon="1.482319124042988">
        <ele>742.75999999999999</ele>
        <time>2016-05-28T07:52:50Z</time>
      </trkpt>
      <trkpt lat="42.764111571013927" lon="1.482194988057017">
        <ele>738.90999999999997</ele>
        <time>2016-05-28T07:53:06Z</time>
      </trkpt>
      <trkpt lat="42.76407309807837" lon="1.482155341655016">
        <ele>738.42999999999995</ele>
        <time>2016-05-28T07:53:25Z</time>
      </trkpt>
      <trkpt lat="42.764099920168519" lon="1.482140505686402">
        <ele>739.38999999999999</ele>
        <time>2016-05-28T07:53:38Z</time>
      </trkpt>
      <trkpt lat="42.764085587114096" lon="1.482147462666035">
        <ele>739.38999999999999</ele>
        <time>2016-05-28T07:53:44Z</time>
      </trkpt>
      <trkpt lat="42.764159515500069" lon="1.482106726616621">
        <ele>738.90999999999997</ele>
        <time>2016-05-28T07:53:50Z</time>
      </trkpt>
      <trkpt lat="42.764357915148139" lon="1.481912517920137">
        <ele>738.90999999999997</ele>
        <time>2016-05-28T07:54:06Z</time>
      </trkpt>
      <trkpt lat="42.764537455514073" lon="1.481813192367554">
        <ele>739.87</ele>
        <time>2016-05-28T07:54:22Z</time>
      </trkpt>
      <trkpt lat="42.764571066945791" lon="1.481823669746518">
        <ele>740.35000000000002</ele>
        <time>2016-05-28T07:54:27Z</time>
      </trkpt>
      <trkpt lat="42.764609875157475" lon="1.481974041089416">
        <ele>741.78999999999996</ele>
        <time>2016-05-28T07:54:34Z</time>
      </trkpt>
      <trkpt lat="42.764618927612901" lon="1.482026008889079">
        <ele>742.27999999999997</ele>
        <time>2016-05-28T07:54:39Z</time>
      </trkpt>
      <trkpt lat="42.764715906232595" lon="1.48227034136653">
        <ele>740.83000000000004</ele>
        <time>2016-05-28T07:54:53Z</time>
      </trkpt>
      <trkpt lat="42.764863176271319" lon="1.482404535636306">
        <ele>740.35000000000002</ele>
        <time>2016-05-28T07:55:07Z</time>
      </trkpt>
      <trkpt lat="42.76498488150537" lon="1.482592122629285">
        <ele>738.90999999999997</ele>
        <time>2016-05-28T07:55:21Z</time>
      </trkpt>
      <trkpt lat="42.765202391892672" lon="1.482708714902401">
        <ele>739.87</ele>
        <time>2016-05-28T07:55:37Z</time>
      </trkpt>
      <trkpt lat="42.765366593375802" lon="1.482797982171178">
        <ele>740.35000000000002</ele>
        <time>2016-05-28T07:55:51Z</time>
      </trkpt>
      <trkpt lat="42.765399785712361" lon="1.482809130102396">
        <ele>740.83000000000004</ele>
        <time>2016-05-28T07:55:54Z</time>
      </trkpt>
      <trkpt lat="42.765493411570787" lon="1.482822205871344">
        <ele>740.83000000000004</ele>
        <time>2016-05-28T07:56:01Z</time>
      </trkpt>
      <trkpt lat="42.76562450453639" lon="1.482818266376853">
        <ele>742.27999999999997</ele>
        <time>2016-05-28T07:56:13Z</time>
      </trkpt>
      <trkpt lat="42.765805553644896" lon="1.482750875875354">
        <ele>741.78999999999996</ele>
        <time>2016-05-28T07:56:25Z</time>
      </trkpt>
      <trkpt lat="42.765983417630196" lon="1.482680551707745">
        <ele>740.83000000000004</ele>
        <time>2016-05-28T07:56:39Z</time>
      </trkpt>
      <trkpt lat="42.766116689890623" lon="1.482673678547144">
        <ele>740.83000000000004</ele>
        <time>2016-05-28T07:56:51Z</time>
      </trkpt>
      <trkpt lat="42.766261110082269" lon="1.48267200216651">
        <ele>740.35000000000002</ele>
        <time>2016-05-28T07:57:02Z</time>
      </trkpt>
      <trkpt lat="42.766277957707644" lon="1.482678540050983">
        <ele>740.35000000000002</ele>
        <time>2016-05-28T07:57:04Z</time>
      </trkpt>
      <trkpt lat="42.766479458659887" lon="1.482783062383533">
        <ele>737.47000000000003</ele>
        <time>2016-05-28T07:57:19Z</time>
      </trkpt>
      <trkpt lat="42.766564032062888" lon="1.482846345752478">
        <ele>736.02999999999997</ele>
        <time>2016-05-28T07:57:27Z</time>
      </trkpt>
      <trkpt lat="42.766602169722319" lon="1.482997890561819">
        <ele>735.54999999999995</ele>
        <time>2016-05-28T07:57:38Z</time>
      </trkpt>
      <trkpt lat="42.766662016510963" lon="1.483211629092693">
        <ele>734.58000000000004</ele>
        <time>2016-05-28T07:57:48Z</time>
      </trkpt>
      <trkpt lat="42.766679367050529" lon="1.48327105678618">
        <ele>734.58000000000004</ele>
        <time>2016-05-28T07:57:53Z</time>
      </trkpt>
      <trkpt lat="42.766641061753035" lon="1.483360575512052">
        <ele>734.58000000000004</ele>
        <time>2016-05-28T07:57:59Z</time>
      </trkpt>
      <trkpt lat="42.766479291021824" lon="1.483608679845929">
        <ele>737.95000000000005</ele>
        <time>2016-05-28T07:58:17Z</time>
      </trkpt>
      <trkpt lat="42.766411900520325" lon="1.483933059498668">
        <ele>733.62</ele>
        <time>2016-05-28T07:58:35Z</time>
      </trkpt>
      <trkpt lat="42.766350964084268" lon="1.484226258471608">
        <ele>732.65999999999997</ele>
        <time>2016-05-28T07:58:51Z</time>
      </trkpt>
      <trkpt lat="42.766317017376423" lon="1.484486684203148">
        <ele>732.17999999999995</ele>
        <time>2016-05-28T07:59:06Z</time>
      </trkpt>
      <trkpt lat="42.766308300197124" lon="1.484754402190447">
        <ele>731.22000000000003</ele>
        <time>2016-05-28T07:59:21Z</time>
      </trkpt>
      <trkpt lat="42.766289692372084" lon="1.485074255615473">
        <ele>731.70000000000005</ele>
        <time>2016-05-28T07:59:38Z</time>
      </trkpt>
      <trkpt lat="42.766294134780765" lon="1.485125552862883">
        <ele>731.70000000000005</ele>
        <time>2016-05-28T07:59:42Z</time>
      </trkpt>
      <trkpt lat="42.766305869445205" lon="1.485327556729317">
        <ele>731.70000000000005</ele>
        <time>2016-05-28T07:59:55Z</time>
      </trkpt>
      <trkpt lat="42.766331434249878" lon="1.485347170382738">
        <ele>730.74000000000001</ele>
        <time>2016-05-28T08:00:07Z</time>
      </trkpt>
      <trkpt lat="42.766360770910978" lon="1.485405089333654">
        <ele>731.22000000000003</ele>
        <time>2016-05-28T08:00:11Z</time>
      </trkpt>
      <trkpt lat="42.766521954908967" lon="1.485541295260191">
        <ele>733.13999999999999</ele>
        <time>2016-05-28T08:00:24Z</time>
      </trkpt>
      <trkpt lat="42.766617424786091" lon="1.485719159245491">
        <ele>731.22000000000003</ele>
        <time>2016-05-28T08:00:37Z</time>
      </trkpt>
      <trkpt lat="42.766657909378409" lon="1.485766936093569">
        <ele>731.70000000000005</ele>
        <time>2016-05-28T08:00:41Z</time>
      </trkpt>
      <trkpt lat="42.766715912148356" lon="1.485878163948655">
        <ele>732.17999999999995</ele>
        <time>2016-05-28T08:00:49Z</time>
      </trkpt>
      <trkpt lat="42.766812387853861" lon="1.486061308532953">
        <ele>734.10000000000002</ele>
        <time>2016-05-28T08:01:02Z</time>
      </trkpt>
      <trkpt lat="42.766852620989084" lon="1.486141355708242">
        <ele>734.58000000000004</ele>
        <time>2016-05-28T08:01:08Z</time>
      </trkpt>
      <trkpt lat="42.766905846074224" lon="1.486361464485526">
        <ele>735.54999999999995</ele>
        <time>2016-05-28T08:01:24Z</time>
      </trkpt>
      <trkpt lat="42.766899056732655" lon="1.486341347917914">
        <ele>736.50999999999999</ele>
        <time>2016-05-28T08:01:39Z</time>
      </trkpt>
      <trkpt lat="42.76693451218307" lon="1.486489456146956">
        <ele>736.02999999999997</ele>
        <time>2016-05-28T08:01:49Z</time>
      </trkpt>
      <trkpt lat="42.766937362030149" lon="1.486543770879507">
        <ele>736.50999999999999</ele>
        <time>2016-05-28T08:01:52Z</time>
      </trkpt>
      <trkpt lat="42.767037777230144" lon="1.486784750595689">
        <ele>737.95000000000005</ele>
        <time>2016-05-28T08:02:08Z</time>
      </trkpt>
      <trkpt lat="42.767126709222794" lon="1.48686639033258">
        <ele>739.38999999999999</ele>
        <time>2016-05-28T08:02:21Z</time>
      </trkpt>
      <trkpt lat="42.767147915437818" lon="1.486907126381993">
        <ele>739.87</ele>
        <time>2016-05-28T08:02:24Z</time>
      </trkpt>
      <trkpt lat="42.767272889614105" lon="1.487180041149259">
        <ele>737.95000000000005</ele>
        <time>2016-05-28T08:02:39Z</time>
      </trkpt>
      <trkpt lat="42.767284540459514" lon="1.487214742228389">
        <ele>737.95000000000005</ele>
        <time>2016-05-28T08:02:42Z</time>
      </trkpt>
      <trkpt lat="42.767313625663519" lon="1.487301243469119">
        <ele>738.42999999999995</ele>
        <time>2016-05-28T08:02:48Z</time>
      </trkpt>
      <trkpt lat="42.767331814393401" lon="1.487368633970618">
        <ele>738.42999999999995</ele>
        <time>2016-05-28T08:02:52Z</time>
      </trkpt>
      <trkpt lat="42.76732929982245" lon="1.48750651627779">
        <ele>738.90999999999997</ele>
        <time>2016-05-28T08:02:59Z</time>
      </trkpt>
      <trkpt lat="42.767331227660179" lon="1.48755001835525">
        <ele>738.90999999999997</ele>
        <time>2016-05-28T08:03:02Z</time>
      </trkpt>
      <trkpt lat="42.767333826050162" lon="1.487753530964255">
        <ele>737.47000000000003</ele>
        <time>2016-05-28T08:03:16Z</time>
      </trkpt>
      <trkpt lat="42.76723500341177" lon="1.488009095191956">
        <ele>732.65999999999997</ele>
        <time>2016-05-28T08:03:34Z</time>
      </trkpt>
      <trkpt lat="42.767219496890903" lon="1.488087046891451">
        <ele>733.13999999999999</ele>
        <time>2016-05-28T08:03:40Z</time>
      </trkpt>
      <trkpt lat="42.767144562676549" lon="1.488270442932844">
        <ele>736.50999999999999</ele>
        <time>2016-05-28T08:03:54Z</time>
      </trkpt>
      <trkpt lat="42.767098126932979" lon="1.488454425707459">
        <ele>735.07000000000005</ele>
        <time>2016-05-28T08:04:06Z</time>
      </trkpt>
      <trkpt lat="42.767113717272878" lon="1.488583674654365">
        <ele>736.02999999999997</ele>
        <time>2016-05-28T08:04:13Z</time>
      </trkpt>
      <trkpt lat="42.767103491351008" lon="1.488670846447349">
        <ele>735.07000000000005</ele>
        <time>2016-05-28T08:04:18Z</time>
      </trkpt>
      <trkpt lat="42.767110364511609" lon="1.488993298262358">
        <ele>731.70000000000005</ele>
        <time>2016-05-28T08:04:36Z</time>
      </trkpt>
      <trkpt lat="42.767116315662861" lon="1.489038644358516">
        <ele>731.22000000000003</ele>
        <time>2016-05-28T08:04:39Z</time>
      </trkpt>
      <trkpt lat="42.767161829397082" lon="1.489347517490387">
        <ele>729.29999999999995</ele>
        <time>2016-05-28T08:04:56Z</time>
      </trkpt>
      <trkpt lat="42.767185466364026" lon="1.489662760868669">
        <ele>725.92999999999995</ele>
        <time>2016-05-28T08:05:13Z</time>
      </trkpt>
      <trkpt lat="42.767189405858517" lon="1.48978597484529">
        <ele>725.45000000000005</ele>
        <time>2016-05-28T08:05:19Z</time>
      </trkpt>
      <trkpt lat="42.767208684235811" lon="1.490052854642272">
        <ele>728.34000000000003</ele>
        <time>2016-05-28T08:05:33Z</time>
      </trkpt>
      <trkpt lat="42.767336843535304" lon="1.490326439961791">
        <ele>727.86000000000001</ele>
        <time>2016-05-28T08:05:50Z</time>
      </trkpt>
      <trkpt lat="42.767448239028454" lon="1.490596923977137">
        <ele>728.34000000000003</ele>
        <time>2016-05-28T08:06:05Z</time>
      </trkpt>
      <trkpt lat="42.767517389729619" lon="1.490799933671951">
        <ele>727.86000000000001</ele>
        <time>2016-05-28T08:06:19Z</time>
      </trkpt>
      <trkpt lat="42.767655439674854" lon="1.491051809862256">
        <ele>727.37</ele>
        <time>2016-05-28T08:06:36Z</time>
      </trkpt>
      <trkpt lat="42.767761051654816" lon="1.491285413503647">
        <ele>726.88999999999999</ele>
        <time>2016-05-28T08:06:50Z</time>
      </trkpt>
      <trkpt lat="42.767777983099222" lon="1.49132271297276">
        <ele>727.37</ele>
        <time>2016-05-28T08:06:53Z</time>
      </trkpt>
      <trkpt lat="42.767947046086192" lon="1.491488926112652">
        <ele>728.34000000000003</ele>
        <time>2016-05-28T08:07:08Z</time>
      </trkpt>
      <trkpt lat="42.768012341111898" lon="1.491575511172414">
        <ele>728.34000000000003</ele>
        <time>2016-05-28T08:07:15Z</time>
      </trkpt>
      <trkpt lat="42.76813505217433" lon="1.491797380149365">
        <ele>727.86000000000001</ele>
        <time>2016-05-28T08:07:30Z</time>
      </trkpt>
      <trkpt lat="42.768274527043104" lon="1.491979099810123">
        <ele>723.04999999999995</ele>
        <time>2016-05-28T08:07:46Z</time>
      </trkpt>
      <trkpt lat="42.768324064090848" lon="1.492088735103607">
        <ele>723.52999999999997</ele>
        <time>2016-05-28T08:07:53Z</time>
      </trkpt>
      <trkpt lat="42.768413247540593" lon="1.492309430614114">
        <ele>723.52999999999997</ele>
        <time>2016-05-28T08:08:09Z</time>
      </trkpt>
      <trkpt lat="42.768476530909538" lon="1.492516882717609">
        <ele>724.00999999999999</ele>
        <time>2016-05-28T08:08:24Z</time>
      </trkpt>
      <trkpt lat="42.76853084564209" lon="1.49274654686451">
        <ele>724.97000000000003</ele>
        <time>2016-05-28T08:08:38Z</time>
      </trkpt>
      <trkpt lat="42.768595134839416" lon="1.492949808016419">
        <ele>724.49000000000001</ele>
        <time>2016-05-28T08:08:53Z</time>
      </trkpt>
      <trkpt lat="42.768623884767294" lon="1.493201935663819">
        <ele>723.52999999999997</ele>
        <time>2016-05-28T08:09:07Z</time>
      </trkpt>
      <trkpt lat="42.76866034604609" lon="1.493461271747947">
        <ele>723.04999999999995</ele>
        <time>2016-05-28T08:09:22Z</time>
      </trkpt>
      <trkpt lat="42.768716756254435" lon="1.493719099089503">
        <ele>723.04999999999995</ele>
        <time>2016-05-28T08:09:36Z</time>
      </trkpt>
      <trkpt lat="42.768718181177974" lon="1.493798224255443">
        <ele>723.52999999999997</ele>
        <time>2016-05-28T08:09:41Z</time>
      </trkpt>
      <trkpt lat="42.768784733489156" lon="1.494145737960935">
        <ele>724.97000000000003</ele>
        <time>2016-05-28T08:10:02Z</time>
      </trkpt>
      <trkpt lat="42.76878347620368" lon="1.494408091530204">
        <ele>724.00999999999999</ele>
        <time>2016-05-28T08:10:17Z</time>
      </trkpt>
      <trkpt lat="42.768762186169624" lon="1.494663907214999">
        <ele>724.97000000000003</ele>
        <time>2016-05-28T08:10:33Z</time>
      </trkpt>
      <trkpt lat="42.768607623875141" lon="1.494862223044038">
        <ele>726.40999999999997</ele>
        <time>2016-05-28T08:10:48Z</time>
      </trkpt>
      <trkpt lat="42.768462533131242" lon="1.495119882747531">
        <ele>724.49000000000001</ele>
        <time>2016-05-28T08:11:04Z</time>
      </trkpt>
      <trkpt lat="42.768333200365305" lon="1.495327837765217">
        <ele>726.40999999999997</ele>
        <time>2016-05-28T08:11:21Z</time>
      </trkpt>
      <trkpt lat="42.768241167068481" lon="1.495532691478729">
        <ele>729.29999999999995</ele>
        <time>2016-05-28T08:11:37Z</time>
      </trkpt>
      <trkpt lat="42.768115773797035" lon="1.495796302333474">
        <ele>724.97000000000003</ele>
        <time>2016-05-28T08:11:52Z</time>
      </trkpt>
      <trkpt lat="42.768059866502881" lon="1.496028983965516">
        <ele>726.88999999999999</ele>
        <time>2016-05-28T08:12:06Z</time>
      </trkpt>
      <trkpt lat="42.767999768257141" lon="1.496407343074679">
        <ele>723.52999999999997</ele>
        <time>2016-05-28T08:12:26Z</time>
      </trkpt>
      <trkpt lat="42.767978310585022" lon="1.496476829051971">
        <ele>723.52999999999997</ele>
        <time>2016-05-28T08:12:31Z</time>
      </trkpt>
      <trkpt lat="42.767981495708227" lon="1.496555786579847">
        <ele>724.49000000000001</ele>
        <time>2016-05-28T08:12:35Z</time>
      </trkpt>
      <trkpt lat="42.767907818779349" lon="1.496854098513722">
        <ele>724.00999999999999</ele>
        <time>2016-05-28T08:12:52Z</time>
      </trkpt>
      <trkpt lat="42.767781168222427" lon="1.497041685506702">
        <ele>726.40999999999997</ele>
        <time>2016-05-28T08:13:05Z</time>
      </trkpt>
      <trkpt lat="42.767653511837125" lon="1.497222315520048">
        <ele>726.40999999999997</ele>
        <time>2016-05-28T08:13:22Z</time>
      </trkpt>
      <trkpt lat="42.767536584287882" lon="1.497450973838568">
        <ele>725.92999999999995</ele>
        <time>2016-05-28T08:13:37Z</time>
      </trkpt>
      <trkpt lat="42.767393421381712" lon="1.49780728854239">
        <ele>718.72000000000003</ele>
        <time>2016-05-28T08:13:55Z</time>
      </trkpt>
      <trkpt lat="42.767372047528625" lon="1.497853556647897">
        <ele>717.75999999999999</ele>
        <time>2016-05-28T08:13:58Z</time>
      </trkpt>
      <trkpt lat="42.767373891547322" lon="1.498181959614158">
        <ele>718.72000000000003</ele>
        <time>2016-05-28T08:14:15Z</time>
      </trkpt>
      <trkpt lat="42.767409682273865" lon="1.498359404504299">
        <ele>720.15999999999997</ele>
        <time>2016-05-28T08:14:25Z</time>
      </trkpt>
      <trkpt lat="42.767489897087216" lon="1.498626787215471">
        <ele>721.61000000000001</ele>
        <time>2016-05-28T08:14:41Z</time>
      </trkpt>
      <trkpt lat="42.767608417198062" lon="1.498874975368381">
        <ele>718.72000000000003</ele>
        <time>2016-05-28T08:14:57Z</time>
      </trkpt>
      <trkpt lat="42.767705814912915" lon="1.499082511290908">
        <ele>715.36000000000001</ele>
        <time>2016-05-28T08:15:11Z</time>
      </trkpt>
      <trkpt lat="42.767795585095882" lon="1.499233804643154">
        <ele>712.95000000000005</ele>
        <time>2016-05-28T08:15:22Z</time>
      </trkpt>
      <trkpt lat="42.767828861251473" lon="1.499353162944317">
        <ele>713.44000000000005</ele>
        <time>2016-05-28T08:15:29Z</time>
      </trkpt>
      <trkpt lat="42.767841769382358" lon="1.499489285051823">
        <ele>713.44000000000005</ele>
        <time>2016-05-28T08:15:38Z</time>
      </trkpt>
      <trkpt lat="42.767870267853141" lon="1.499829506501555">
        <ele>717.75999999999999</ele>
        <time>2016-05-28T08:15:57Z</time>
      </trkpt>
      <trkpt lat="42.767861215397716" lon="1.500145001336932">
        <ele>721.13</ele>
        <time>2016-05-28T08:16:15Z</time>
      </trkpt>
      <trkpt lat="42.767874961718917" lon="1.50031540542841">
        <ele>722.57000000000005</ele>
        <time>2016-05-28T08:16:24Z</time>
      </trkpt>
      <trkpt lat="42.767949728295207" lon="1.500414730980992">
        <ele>723.52999999999997</ele>
        <time>2016-05-28T08:16:36Z</time>
      </trkpt>
      <trkpt lat="42.767976634204388" lon="1.50041313841939">
        <ele>723.04999999999995</ele>
        <time>2016-05-28T08:16:38Z</time>
      </trkpt>
      <trkpt lat="42.768090292811394" lon="1.500415066257119">
        <ele>719.67999999999995</ele>
        <time>2016-05-28T08:16:50Z</time>
      </trkpt>
      <trkpt lat="42.768127005547285" lon="1.500424034893513">
        <ele>718.24000000000001</ele>
        <time>2016-05-28T08:16:54Z</time>
      </trkpt>
      <trkpt lat="42.768145781010389" lon="1.500419843941927">
        <ele>717.27999999999997</ele>
        <time>2016-05-28T08:16:56Z</time>
      </trkpt>
      <trkpt lat="42.768282741308212" lon="1.500251367688179">
        <ele>715.36000000000001</ele>
        <time>2016-05-28T08:17:12Z</time>
      </trkpt>
      <trkpt lat="42.768286010250449" lon="1.500234100967646">
        <ele>715.36000000000001</ele>
        <time>2016-05-28T08:17:13Z</time>
      </trkpt>
      <trkpt lat="42.768300343304873" lon="1.500068893656135">
        <ele>714.88</ele>
        <time>2016-05-28T08:17:24Z</time>
      </trkpt>
      <trkpt lat="42.768349042162299" lon="1.499891197308898">
        <ele>714.88</ele>
        <time>2016-05-28T08:17:37Z</time>
      </trkpt>
      <trkpt lat="42.768353652209044" lon="1.4998341165483">
        <ele>714.88</ele>
        <time>2016-05-28T08:17:41Z</time>
      </trkpt>
      <trkpt lat="42.768333870917559" lon="1.49972858838737">
        <ele>715.36000000000001</ele>
        <time>2016-05-28T08:17:51Z</time>
      </trkpt>
      <trkpt lat="42.768339654430747" lon="1.499655330553651">
        <ele>716.32000000000005</ele>
        <time>2016-05-28T08:18:04Z</time>
      </trkpt>
      <trkpt lat="42.768352227285504" lon="1.499643176794052">
        <ele>716.32000000000005</ele>
        <time>2016-05-28T08:18:06Z</time>
      </trkpt>
      <trkpt lat="42.768366392701864" lon="1.499551814049482">
        <ele>716.32000000000005</ele>
        <time>2016-05-28T08:18:12Z</time>
      </trkpt>
      <trkpt lat="42.768368571996689" lon="1.499510742723942">
        <ele>716.79999999999995</ele>
        <time>2016-05-28T08:18:15Z</time>
      </trkpt>
      <trkpt lat="42.768380139023066" lon="1.499333381652832">
        <ele>717.75999999999999</ele>
        <time>2016-05-28T08:18:29Z</time>
      </trkpt>
      <trkpt lat="42.768382653594017" lon="1.499321395531297">
        <ele>718.24000000000001</ele>
        <time>2016-05-28T08:18:30Z</time>
      </trkpt>
      <trkpt lat="42.76832515373826" lon="1.499235397204757">
        <ele>719.20000000000005</ele>
        <time>2016-05-28T08:18:45Z</time>
      </trkpt>
      <trkpt lat="42.768316771835089" lon="1.499206563457847">
        <ele>719.20000000000005</ele>
        <time>2016-05-28T08:19:03Z</time>
      </trkpt>
      <trkpt lat="42.768254494294524" lon="1.499293819069862">
        <ele>716.79999999999995</ele>
        <time>2016-05-28T08:19:32Z</time>
      </trkpt>
      <trkpt lat="42.768328590318561" lon="1.499222405254841">
        <ele>714.88</ele>
        <time>2016-05-28T08:19:54Z</time>
      </trkpt>
      <trkpt lat="42.768289698287845" lon="1.499160630628467">
        <ele>713.44000000000005</ele>
        <time>2016-05-28T08:20:11Z</time>
      </trkpt>
      <trkpt lat="42.768294643610716" lon="1.499222321435809">
        <ele>714.88</ele>
        <time>2016-05-28T08:20:37Z</time>
      </trkpt>
      <trkpt lat="42.768316185101867" lon="1.499253585934639">
        <ele>708.63</ele>
        <time>2016-05-28T08:21:05Z</time>
      </trkpt>
      <trkpt lat="42.768339738249779" lon="1.499239001423121">
        <ele>708.14999999999998</ele>
        <time>2016-05-28T08:21:07Z</time>
      </trkpt>
      <trkpt lat="42.768357004970312" lon="1.499195080250502">
        <ele>712.95000000000005</ele>
        <time>2016-05-28T08:21:24Z</time>
      </trkpt>
      <trkpt lat="42.768303528428078" lon="1.499222405254841">
        <ele>712.95000000000005</ele>
        <time>2016-05-28T08:21:43Z</time>
      </trkpt>
      <trkpt lat="42.768331440165639" lon="1.49916322901845">
        <ele>712.95000000000005</ele>
        <time>2016-05-28T08:22:09Z</time>
      </trkpt>
      <trkpt lat="42.768316939473152" lon="1.499236905947328">
        <ele>710.54999999999995</ele>
        <time>2016-05-28T08:22:27Z</time>
      </trkpt>
      <trkpt lat="42.76834518648684" lon="1.49926632642746">
        <ele>712.95000000000005</ele>
        <time>2016-05-28T08:22:59Z</time>
      </trkpt>
      <trkpt lat="42.768336217850447" lon="1.499224165454507">
        <ele>710.07000000000005</ele>
        <time>2016-05-28T08:23:25Z</time>
      </trkpt>
      <trkpt lat="42.768287602812052" lon="1.49921846576035">
        <ele>708.14999999999998</ele>
        <time>2016-05-28T08:23:51Z</time>
      </trkpt>
      <trkpt lat="42.76828751899302" lon="1.499279066920281">
        <ele>711.50999999999999</ele>
        <time>2016-05-28T08:24:17Z</time>
      </trkpt>
      <trkpt lat="42.768300594761968" lon="1.499246712774038">
        <ele>706.71000000000004</ele>
        <time>2016-05-28T08:24:45Z</time>
      </trkpt>
      <trkpt lat="42.768275197595358" lon="1.499262554571033">
        <ele>702.38</ele>
        <time>2016-05-28T08:25:18Z</time>
      </trkpt>
      <trkpt lat="42.768253237009048" lon="1.499296668916941">
        <ele>701.89999999999998</ele>
        <time>2016-05-28T08:25:50Z</time>
      </trkpt>
      <trkpt lat="42.768269749358296" lon="1.499292142689228">
        <ele>701.41999999999996</ele>
        <time>2016-05-28T08:26:20Z</time>
      </trkpt>
      <trkpt lat="42.768290117383003" lon="1.499267499893904">
        <ele>702.86000000000001</ele>
        <time>2016-05-28T08:26:39Z</time>
      </trkpt>
      <trkpt lat="42.768337307497859" lon="1.499259117990732">
        <ele>706.71000000000004</ele>
        <time>2016-05-28T08:27:10Z</time>
      </trkpt>
      <trkpt lat="42.768256505951285" lon="1.499316366389394">
        <ele>706.23000000000002</ele>
        <time>2016-05-28T08:27:42Z</time>
      </trkpt>
      <trkpt lat="42.76835398748517" lon="1.499249311164022">
        <ele>705.75</ele>
        <time>2016-05-28T08:28:09Z</time>
      </trkpt>
      <trkpt lat="42.768347365781665" lon="1.499232212081552">
        <ele>710.54999999999995</ele>
        <time>2016-05-28T08:28:43Z</time>
      </trkpt>
      <trkpt lat="42.768372762948275" lon="1.49924729950726">
        <ele>708.63</ele>
        <time>2016-05-28T08:29:12Z</time>
      </trkpt>
      <trkpt lat="42.768260361626744" lon="1.499305050820112">
        <ele>705.25999999999999</ele>
        <time>2016-05-28T08:29:41Z</time>
      </trkpt>
      <trkpt lat="42.768282741308212" lon="1.499237744137645">
        <ele>706.71000000000004</ele>
        <time>2016-05-28T08:30:05Z</time>
      </trkpt>
      <trkpt lat="42.768298583105206" lon="1.499228188768029">
        <ele>709.11000000000001</ele>
        <time>2016-05-28T08:30:30Z</time>
      </trkpt>
      <trkpt lat="42.768403105437756" lon="1.499222153797746">
        <ele>713.91999999999996</ele>
        <time>2016-05-28T08:30:53Z</time>
      </trkpt>
      <trkpt lat="42.768342588096857" lon="1.499235481023789">
        <ele>710.54999999999995</ele>
        <time>2016-05-28T08:31:17Z</time>
      </trkpt>
      <trkpt lat="42.768388688564301" lon="1.499289711937308">
        <ele>712.95000000000005</ele>
        <time>2016-05-28T08:31:40Z</time>
      </trkpt>
      <trkpt lat="42.76837594807148" lon="1.499348301440477">
        <ele>708.63</ele>
        <time>2016-05-28T08:31:56Z</time>
      </trkpt>
      <trkpt lat="42.768432358279824" lon="1.49949112907052">
        <ele>709.59000000000003</ele>
        <time>2016-05-28T08:32:13Z</time>
      </trkpt>
      <trkpt lat="42.768449960276484" lon="1.499633537605405">
        <ele>707.19000000000005</ele>
        <time>2016-05-28T08:32:20Z</time>
      </trkpt>
      <trkpt lat="42.7684888523072" lon="1.499760439619422">
        <ele>702.38</ele>
        <time>2016-05-28T08:32:35Z</time>
      </trkpt>
      <trkpt lat="42.768523637205362" lon="1.499807294458151">
        <ele>705.25999999999999</ele>
        <time>2016-05-28T08:32:58Z</time>
      </trkpt>
      <trkpt lat="42.768466640263796" lon="1.499796900898218">
        <ele>703.82000000000005</ele>
        <time>2016-05-28T08:33:07Z</time>
      </trkpt>
      <trkpt lat="42.768409978598356" lon="1.500000832602382">
        <ele>706.23000000000002</ele>
        <time>2016-05-28T08:33:20Z</time>
      </trkpt>
      <trkpt lat="42.768447613343596" lon="1.50022161193192">
        <ele>707.19000000000005</ele>
        <time>2016-05-28T08:33:34Z</time>
      </trkpt>
      <trkpt lat="42.768582310527563" lon="1.500462424010038">
        <ele>707.19000000000005</ele>
        <time>2016-05-28T08:33:51Z</time>
      </trkpt>
      <trkpt lat="42.76862271130085" lon="1.500508775934577">
        <ele>707.19000000000005</ele>
        <time>2016-05-28T08:33:56Z</time>
      </trkpt>
      <trkpt lat="42.768756318837404" lon="1.500553116202354">
        <ele>708.14999999999998</ele>
        <time>2016-05-28T08:34:07Z</time>
      </trkpt>
      <trkpt lat="42.768779452890158" lon="1.500556720420718">
        <ele>708.63</ele>
        <time>2016-05-28T08:34:09Z</time>
      </trkpt>
      <trkpt lat="42.768851537257433" lon="1.500540040433407">
        <ele>709.59000000000003</ele>
        <time>2016-05-28T08:34:14Z</time>
      </trkpt>
      <trkpt lat="42.769027892500162" lon="1.50048153474927">
        <ele>712.47000000000003</ele>
        <time>2016-05-28T08:34:28Z</time>
      </trkpt>
      <trkpt lat="42.769231991842389" lon="1.500347508117557">
        <ele>711.02999999999997</ele>
        <time>2016-05-28T08:34:44Z</time>
      </trkpt>
      <trkpt lat="42.769397450610995" lon="1.500342478975654">
        <ele>708.63</ele>
        <time>2016-05-28T08:35:01Z</time>
      </trkpt>
      <trkpt lat="42.769548995420337" lon="1.50035010650754">
        <ele>707.19000000000005</ele>
        <time>2016-05-28T08:35:15Z</time>
      </trkpt>
      <trkpt lat="42.769734319299459" lon="1.500324122607708">
        <ele>705.75</ele>
        <time>2016-05-28T08:35:31Z</time>
      </trkpt>
      <trkpt lat="42.769940849393606" lon="1.500317249447107">
        <ele>705.25999999999999</ele>
        <time>2016-05-28T08:35:45Z</time>
      </trkpt>
      <trkpt lat="42.770142601802945" lon="1.500317919999361">
        <ele>706.71000000000004</ele>
        <time>2016-05-28T08:36:02Z</time>
      </trkpt>
      <trkpt lat="42.770280567929149" lon="1.500276094302535">
        <ele>706.71000000000004</ele>
        <time>2016-05-28T08:36:15Z</time>
      </trkpt>
      <trkpt lat="42.770360615104437" lon="1.500319680199027">
        <ele>710.07000000000005</ele>
        <time>2016-05-28T08:36:30Z</time>
      </trkpt>
      <trkpt lat="42.770371846854687" lon="1.500318506732583">
        <ele>710.07000000000005</ele>
        <time>2016-05-28T08:36:31Z</time>
      </trkpt>
      <trkpt lat="42.770439153537154" lon="1.500336611643434">
        <ele>713.91999999999996</ele>
        <time>2016-05-28T08:36:41Z</time>
      </trkpt>
      <trkpt lat="42.770443176850677" lon="1.500404505059123">
        <ele>714.88</ele>
        <time>2016-05-28T08:36:45Z</time>
      </trkpt>
      <trkpt lat="42.770452732220292" lon="1.500420179218054">
        <ele>716.32000000000005</ele>
        <time>2016-05-28T08:36:58Z</time>
      </trkpt>
      <trkpt lat="42.770450133830309" lon="1.50044783949852">
        <ele>716.32000000000005</ele>
        <time>2016-05-28T08:37:01Z</time>
      </trkpt>
      <trkpt lat="42.770474525168538" lon="1.500637019053102">
        <ele>713.44000000000005</ele>
        <time>2016-05-28T08:37:15Z</time>
      </trkpt>
      <trkpt lat="42.77052691206336" lon="1.500788144767284">
        <ele>711.02999999999997</ele>
        <time>2016-05-28T08:37:27Z</time>
      </trkpt>
      <trkpt lat="42.770532611757517" lon="1.500888727605343">
        <ele>711.02999999999997</ele>
        <time>2016-05-28T08:37:40Z</time>
      </trkpt>
      <trkpt lat="42.770564965903759" lon="1.501036500558257">
        <ele>711.02999999999997</ele>
        <time>2016-05-28T08:37:54Z</time>
      </trkpt>
      <trkpt lat="42.770567396655679" lon="1.501055527478457">
        <ele>710.54999999999995</ele>
        <time>2016-05-28T08:37:55Z</time>
      </trkpt>
      <trkpt lat="42.770585501566529" lon="1.501117637380958">
        <ele>709.59000000000003</ele>
        <time>2016-05-28T08:37:59Z</time>
      </trkpt>
      <trkpt lat="42.770635709166527" lon="1.5013278555125">
        <ele>707.19000000000005</ele>
        <time>2016-05-28T08:38:14Z</time>
      </trkpt>
      <trkpt lat="42.770679462701082" lon="1.501454086974263">
        <ele>705.25999999999999</ele>
        <time>2016-05-28T08:38:23Z</time>
      </trkpt>
      <trkpt lat="42.770773340016603" lon="1.501636896282435">
        <ele>702.38</ele>
        <time>2016-05-28T08:38:35Z</time>
      </trkpt>
      <trkpt lat="42.770856991410255" lon="1.501705208793283">
        <ele>699.98000000000002</ele>
        <time>2016-05-28T08:38:48Z</time>
      </trkpt>
      <trkpt lat="42.770893536508083" lon="1.501799756661058">
        <ele>699.5</ele>
        <time>2016-05-28T08:39:00Z</time>
      </trkpt>
      <trkpt lat="42.770898900926113" lon="1.501811658963561">
        <ele>699.5</ele>
        <time>2016-05-28T08:39:01Z</time>
      </trkpt>
      <trkpt lat="42.770960675552487" lon="1.501899585127831">
        <ele>699.5</ele>
        <time>2016-05-28T08:39:09Z</time>
      </trkpt>
      <trkpt lat="42.771084476262331" lon="1.502037635073066">
        <ele>700.46000000000004</ele>
        <time>2016-05-28T08:39:22Z</time>
      </trkpt>
      <trkpt lat="42.771221939474344" lon="1.502204183489084">
        <ele>701.41999999999996</ele>
        <time>2016-05-28T08:39:37Z</time>
      </trkpt>
      <trkpt lat="42.771353870630264" lon="1.502278447151184">
        <ele>699.98000000000002</ele>
        <time>2016-05-28T08:39:49Z</time>
      </trkpt>
      <trkpt lat="42.771376920863986" lon="1.502267131581903">
        <ele>699.98000000000002</ele>
        <time>2016-05-28T08:39:59Z</time>
      </trkpt>
      <trkpt lat="42.77146166190505" lon="1.502329409122467">
        <ele>700.94000000000005</ele>
        <time>2016-05-28T08:40:13Z</time>
      </trkpt>
      <trkpt lat="42.771493680775166" lon="1.502362517639995">
        <ele>702.86000000000001</ele>
        <time>2016-05-28T08:40:34Z</time>
      </trkpt>
      <trkpt lat="42.771592000499368" lon="1.502434015274048">
        <ele>701.89999999999998</ele>
        <time>2016-05-28T08:40:47Z</time>
      </trkpt>
      <trkpt lat="42.771658720448613" lon="1.502456814050674">
        <ele>701.41999999999996</ele>
        <time>2016-05-28T08:40:52Z</time>
      </trkpt>
      <trkpt lat="42.771860472857952" lon="1.502563264220953">
        <ele>702.38</ele>
        <time>2016-05-28T08:41:09Z</time>
      </trkpt>
      <trkpt lat="42.772034984081984" lon="1.502667535096407">
        <ele>701.41999999999996</ele>
        <time>2016-05-28T08:41:24Z</time>
      </trkpt>
      <trkpt lat="42.772190719842911" lon="1.502764513716102">
        <ele>701.41999999999996</ele>
        <time>2016-05-28T08:41:37Z</time>
      </trkpt>
      <trkpt lat="42.772361962124705" lon="1.502886470407248">
        <ele>701.41999999999996</ele>
        <time>2016-05-28T08:41:52Z</time>
      </trkpt>
      <trkpt lat="42.772480649873614" lon="1.503008510917425">
        <ele>700.94000000000005</ele>
        <time>2016-05-28T08:42:04Z</time>
      </trkpt>
      <trkpt lat="42.772522894665599" lon="1.503040445968509">
        <ele>700.94000000000005</ele>
        <time>2016-05-28T08:42:08Z</time>
      </trkpt>
      <trkpt lat="42.772699082270265" lon="1.503184782341123">
        <ele>699.5</ele>
        <time>2016-05-28T08:42:25Z</time>
      </trkpt>
      <trkpt lat="42.772790864109993" lon="1.503280336037278">
        <ele>698.04999999999995</ele>
        <time>2016-05-28T08:42:35Z</time>
      </trkpt>
      <trkpt lat="42.772940481081605" lon="1.503399610519409">
        <ele>696.13</ele>
        <time>2016-05-28T08:42:49Z</time>
      </trkpt>
      <trkpt lat="42.773113064467907" lon="1.503506228327751">
        <ele>698.52999999999997</ele>
        <time>2016-05-28T08:43:04Z</time>
      </trkpt>
      <trkpt lat="42.773288413882256" lon="1.503657605499029">
        <ele>700.94000000000005</ele>
        <time>2016-05-28T08:43:21Z</time>
      </trkpt>
      <trkpt lat="42.773448340594769" lon="1.50379691272974">
        <ele>701.89999999999998</ele>
        <time>2016-05-28T08:43:36Z</time>
      </trkpt>
      <trkpt lat="42.773604160174727" lon="1.503972429782152">
        <ele>701.41999999999996</ele>
        <time>2016-05-28T08:43:52Z</time>
      </trkpt>
      <trkpt lat="42.773743467405438" lon="1.504122046753764">
        <ele>701.89999999999998</ele>
        <time>2016-05-28T08:44:07Z</time>
      </trkpt>
      <trkpt lat="42.773880427703261" lon="1.504261437803507">
        <ele>705.25999999999999</ele>
        <time>2016-05-28T08:44:21Z</time>
      </trkpt>
      <trkpt lat="42.773981178179383" lon="1.504362104460597">
        <ele>707.19000000000005</ele>
        <time>2016-05-28T08:44:34Z</time>
      </trkpt>
      <trkpt lat="42.774062231183052" lon="1.504447851330042">
        <ele>707.19000000000005</ele>
        <time>2016-05-28T08:44:45Z</time>
      </trkpt>
      <trkpt lat="42.774142194539309" lon="1.504551619291306">
        <ele>706.23000000000002</ele>
        <time>2016-05-28T08:44:54Z</time>
      </trkpt>
      <trkpt lat="42.774285022169352" lon="1.504698302596808">
        <ele>706.23000000000002</ele>
        <time>2016-05-28T08:45:09Z</time>
      </trkpt>
      <trkpt lat="42.774400943890214" lon="1.504825539886951">
        <ele>707.66999999999996</ele>
        <time>2016-05-28T08:45:22Z</time>
      </trkpt>
      <trkpt lat="42.774445954710245" lon="1.504891337826848">
        <ele>708.14999999999998</ele>
        <time>2016-05-28T08:45:28Z</time>
      </trkpt>
      <trkpt lat="42.774541759863496" lon="1.505004744976759">
        <ele>709.11000000000001</ele>
        <time>2016-05-28T08:45:38Z</time>
      </trkpt>
      <trkpt lat="42.774645024910569" lon="1.505210436880589">
        <ele>710.07000000000005</ele>
        <time>2016-05-28T08:45:54Z</time>
      </trkpt>
      <trkpt lat="42.774754744023085" lon="1.505351504310966">
        <ele>710.07000000000005</ele>
        <time>2016-05-28T08:46:06Z</time>
      </trkpt>
      <trkpt lat="42.774894889444113" lon="1.5055051445961">
        <ele>710.07000000000005</ele>
        <time>2016-05-28T08:46:22Z</time>
      </trkpt>
      <trkpt lat="42.774960603564978" lon="1.505579743534327">
        <ele>710.54999999999995</ele>
        <time>2016-05-28T08:46:29Z</time>
      </trkpt>
      <trkpt lat="42.77504769153893" lon="1.505721900612116">
        <ele>713.44000000000005</ele>
        <time>2016-05-28T08:46:41Z</time>
      </trkpt>
      <trkpt lat="42.775091947987676" lon="1.505776215344667">
        <ele>713.91999999999996</ele>
        <time>2016-05-28T08:46:47Z</time>
      </trkpt>
      <trkpt lat="42.775161350145936" lon="1.506009651347995">
        <ele>715.36000000000001</ele>
        <time>2016-05-28T08:47:02Z</time>
      </trkpt>
      <trkpt lat="42.775172498077154" lon="1.506151976063848">
        <ele>717.75999999999999</ele>
        <time>2016-05-28T08:47:11Z</time>
      </trkpt>
      <trkpt lat="42.775200745090842" lon="1.506307125091553">
        <ele>719.20000000000005</ele>
        <time>2016-05-28T08:47:25Z</time>
      </trkpt>
      <trkpt lat="42.775196135044098" lon="1.50625959970057">
        <ele>720.64999999999998</ele>
        <time>2016-05-28T08:47:34Z</time>
      </trkpt>
      <trkpt lat="42.775277271866798" lon="1.506540980190039">
        <ele>720.15999999999997</ele>
        <time>2016-05-28T08:47:50Z</time>
      </trkpt>
      <trkpt lat="42.77530912309885" lon="1.506813978776336">
        <ele>718.72000000000003</ele>
        <time>2016-05-28T08:48:05Z</time>
      </trkpt>
      <trkpt lat="42.775386404246092" lon="1.507039787247777">
        <ele>720.64999999999998</ele>
        <time>2016-05-28T08:48:20Z</time>
      </trkpt>
      <trkpt lat="42.775455806404352" lon="1.507227709516883">
        <ele>720.64999999999998</ele>
        <time>2016-05-28T08:48:34Z</time>
      </trkpt>
      <trkpt lat="42.775508360937238" lon="1.507433820515871">
        <ele>720.15999999999997</ele>
        <time>2016-05-28T08:48:48Z</time>
      </trkpt>
      <trkpt lat="42.775592347607017" lon="1.507671866565943">
        <ele>719.67999999999995</ele>
        <time>2016-05-28T08:49:03Z</time>
      </trkpt>
      <trkpt lat="42.775628892704844" lon="1.50773230008781">
        <ele>719.20000000000005</ele>
        <time>2016-05-28T08:49:07Z</time>
      </trkpt>
      <trkpt lat="42.775700222700834" lon="1.507990714162588">
        <ele>719.20000000000005</ele>
        <time>2016-05-28T08:49:21Z</time>
      </trkpt>
      <trkpt lat="42.775797704234719" lon="1.508227419108152">
        <ele>718.24000000000001</ele>
        <time>2016-05-28T08:49:35Z</time>
      </trkpt>
      <trkpt lat="42.775842044502497" lon="1.50829422287643">
        <ele>717.27999999999997</ele>
        <time>2016-05-28T08:49:40Z</time>
      </trkpt>
      <trkpt lat="42.775878254324198" lon="1.508374102413654">
        <ele>715.84000000000003</ele>
        <time>2016-05-28T08:49:47Z</time>
      </trkpt>
      <trkpt lat="42.775925192981958" lon="1.508462196215987">
        <ele>714.39999999999998</ele>
        <time>2016-05-28T08:49:54Z</time>
      </trkpt>
      <trkpt lat="42.776021333411336" lon="1.508648525923491">
        <ele>712.47000000000003</ele>
        <time>2016-05-28T08:50:08Z</time>
      </trkpt>
      <trkpt lat="42.776137087494135" lon="1.508848601952195">
        <ele>710.07000000000005</ele>
        <time>2016-05-28T08:50:23Z</time>
      </trkpt>
      <trkpt lat="42.776172962039709" lon="1.508916663005948">
        <ele>709.11000000000001</ele>
        <time>2016-05-28T08:50:28Z</time>
      </trkpt>
      <trkpt lat="42.776204142719507" lon="1.508995620533824">
        <ele>708.14999999999998</ele>
        <time>2016-05-28T08:50:33Z</time>
      </trkpt>
      <trkpt lat="42.776256110519171" lon="1.509082792326808">
        <ele>707.66999999999996</ele>
        <time>2016-05-28T08:50:40Z</time>
      </trkpt>
      <trkpt lat="42.776293912902474" lon="1.509180692955852">
        <ele>707.19000000000005</ele>
        <time>2016-05-28T08:50:46Z</time>
      </trkpt>
      <trkpt lat="42.776405811309814" lon="1.509397951886058">
        <ele>707.19000000000005</ele>
        <time>2016-05-28T08:51:02Z</time>
      </trkpt>
      <trkpt lat="42.776485690847039" lon="1.50954513810575">
        <ele>706.71000000000004</ele>
        <time>2016-05-28T08:51:12Z</time>
      </trkpt>
      <trkpt lat="42.776522319763899" lon="1.509600961580873">
        <ele>706.23000000000002</ele>
        <time>2016-05-28T08:51:16Z</time>
      </trkpt>
      <trkpt lat="42.776566492393613" lon="1.509706741198897">
        <ele>706.71000000000004</ele>
        <time>2016-05-28T08:51:23Z</time>
      </trkpt>
      <trkpt lat="42.776678306981921" lon="1.509897680953145">
        <ele>705.75</ele>
        <time>2016-05-28T08:51:37Z</time>
      </trkpt>
      <trkpt lat="42.776780482381582" lon="1.510050231590867">
        <ele>700.46000000000004</ele>
        <time>2016-05-28T08:51:51Z</time>
      </trkpt>
      <trkpt lat="42.776838568970561" lon="1.51027025654912">
        <ele>697.57000000000005</ele>
        <time>2016-05-28T08:52:06Z</time>
      </trkpt>
      <trkpt lat="42.776864636689425" lon="1.510355835780501">
        <ele>699.98000000000002</ele>
        <time>2016-05-28T08:52:12Z</time>
      </trkpt>
      <trkpt lat="42.776816273108125" lon="1.510463459417224">
        <ele>704.77999999999997</ele>
        <time>2016-05-28T08:52:24Z</time>
      </trkpt>
      <trkpt lat="42.776785930618644" lon="1.510570496320725">
        <ele>705.25999999999999</ele>
        <time>2016-05-28T08:52:32Z</time>
      </trkpt>
      <trkpt lat="42.776706889271736" lon="1.510552810505033">
        <ele>702.86000000000001</ele>
        <time>2016-05-28T08:52:41Z</time>
      </trkpt>
      <trkpt lat="42.776638744398952" lon="1.510485168546438">
        <ele>701.89999999999998</ele>
        <time>2016-05-28T08:52:49Z</time>
      </trkpt>
      <trkpt lat="42.776505472138524" lon="1.510532693937421">
        <ele>701.89999999999998</ele>
        <time>2016-05-28T08:53:06Z</time>
      </trkpt>
      <trkpt lat="42.776449983939528" lon="1.510596480220556">
        <ele>701.89999999999998</ele>
        <time>2016-05-28T08:53:18Z</time>
      </trkpt>
      <trkpt lat="42.776286788284779" lon="1.510708043351769">
        <ele>700.94000000000005</ele>
        <time>2016-05-28T08:53:34Z</time>
      </trkpt>
      <trkpt lat="42.776178075000644" lon="1.510890182107687">
        <ele>698.04999999999995</ele>
        <time>2016-05-28T08:53:47Z</time>
      </trkpt>
      <trkpt lat="42.776076486334205" lon="1.511069554835558">
        <ele>696.61000000000001</ele>
        <time>2016-05-28T08:54:01Z</time>
      </trkpt>
      <trkpt lat="42.776031475514174" lon="1.511083384975791">
        <ele>696.61000000000001</ele>
        <time>2016-05-28T08:54:16Z</time>
      </trkpt>
      <trkpt lat="42.776029966771603" lon="1.511133844032884">
        <ele>696.13</ele>
        <time>2016-05-28T08:54:18Z</time>
      </trkpt>
      <trkpt lat="42.776085622608662" lon="1.511219087988138">
        <ele>692.76999999999998</ele>
        <time>2016-05-28T08:54:34Z</time>
      </trkpt>
      <trkpt lat="42.776133315637708" lon="1.511282036080957">
        <ele>691.80999999999995</ele>
        <time>2016-05-28T08:54:50Z</time>
      </trkpt>
      <trkpt lat="42.776203639805317" lon="1.511335177347064">
        <ele>689.39999999999998</ele>
        <time>2016-05-28T08:55:02Z</time>
      </trkpt>
      <trkpt lat="42.776236496865749" lon="1.51136769913137">
        <ele>689.39999999999998</ele>
        <time>2016-05-28T08:55:06Z</time>
      </trkpt>
      <trkpt lat="42.776356441900134" lon="1.511485716328025">
        <ele>687.96000000000004</ele>
        <time>2016-05-28T08:55:20Z</time>
      </trkpt>
      <trkpt lat="42.776465490460396" lon="1.511640949174762">
        <ele>689.39999999999998</ele>
        <time>2016-05-28T08:55:34Z</time>
      </trkpt>
      <trkpt lat="42.776545453816652" lon="1.511766761541367">
        <ele>687.96000000000004</ele>
        <time>2016-05-28T08:55:49Z</time>
      </trkpt>
      <trkpt lat="42.776577724143863" lon="1.511830883100629">
        <ele>687.48000000000002</ele>
        <time>2016-05-28T08:56:01Z</time>
      </trkpt>
      <trkpt lat="42.776580573990941" lon="1.511843204498291">
        <ele>687.48000000000002</ele>
        <time>2016-05-28T08:56:02Z</time>
      </trkpt>
      <trkpt lat="42.776631200686097" lon="1.511949151754379">
        <ele>686.51999999999998</ele>
        <time>2016-05-28T08:56:09Z</time>
      </trkpt>
      <trkpt lat="42.776680318638682" lon="1.512103462591767">
        <ele>683.63</ele>
        <time>2016-05-28T08:56:22Z</time>
      </trkpt>
      <trkpt lat="42.776703117415309" lon="1.512130200862885">
        <ele>683.14999999999998</ele>
        <time>2016-05-28T08:56:25Z</time>
      </trkpt>
      <trkpt lat="42.776722563430667" lon="1.512072281911969">
        <ele>687</ele>
        <time>2016-05-28T08:56:43Z</time>
      </trkpt>
      <trkpt lat="42.77671879157424" lon="1.512098433449864">
        <ele>687.96000000000004</ele>
        <time>2016-05-28T08:56:45Z</time>
      </trkpt>
      <trkpt lat="42.7767916303128" lon="1.512254420667887">
        <ele>687</ele>
        <time>2016-05-28T08:56:56Z</time>
      </trkpt>
      <trkpt lat="42.776820966973901" lon="1.51237428188324">
        <ele>687</ele>
        <time>2016-05-28T08:57:04Z</time>
      </trkpt>
      <trkpt lat="42.776849297806621" lon="1.512443851679564">
        <ele>687</ele>
        <time>2016-05-28T08:57:09Z</time>
      </trkpt>
      <trkpt lat="42.776902187615633" lon="1.512753730639815">
        <ele>686.51999999999998</ele>
        <time>2016-05-28T08:57:26Z</time>
      </trkpt>
      <trkpt lat="42.776917777955532" lon="1.513015497475863">
        <ele>686.03999999999996</ele>
        <time>2016-05-28T08:57:42Z</time>
      </trkpt>
      <trkpt lat="42.77692012488842" lon="1.51304324157536">
        <ele>686.03999999999996</ele>
        <time>2016-05-28T08:57:44Z</time>
      </trkpt>
      <trkpt lat="42.776961447671056" lon="1.513367369771004">
        <ele>682.19000000000005</ele>
        <time>2016-05-28T08:58:02Z</time>
      </trkpt>
      <trkpt lat="42.776967147365212" lon="1.513419840484858">
        <ele>681.23000000000002</ele>
        <time>2016-05-28T08:58:05Z</time>
      </trkpt>
      <trkpt lat="42.777004027739167" lon="1.513661909848452">
        <ele>678.83000000000004</ele>
        <time>2016-05-28T08:58:20Z</time>
      </trkpt>
      <trkpt lat="42.777049038559198" lon="1.513809347525239">
        <ele>678.83000000000004</ele>
        <time>2016-05-28T08:58:28Z</time>
      </trkpt>
      <trkpt lat="42.777062701061368" lon="1.513905823230743">
        <ele>679.78999999999996</ele>
        <time>2016-05-28T08:58:33Z</time>
      </trkpt>
      <trkpt lat="42.777113746851683" lon="1.514165578410029">
        <ele>681.23000000000002</ele>
        <time>2016-05-28T08:58:48Z</time>
      </trkpt>
      <trkpt lat="42.777147693559527" lon="1.514339502900839">
        <ele>682.19000000000005</ele>
        <time>2016-05-28T08:58:59Z</time>
      </trkpt>
      <trkpt lat="42.777168396860361" lon="1.514520971104503">
        <ele>685.08000000000004</ele>
        <time>2016-05-28T08:59:11Z</time>
      </trkpt>
      <trkpt lat="42.777168313041329" lon="1.514551648870111">
        <ele>686.03999999999996</ele>
        <time>2016-05-28T08:59:13Z</time>
      </trkpt>
      <trkpt lat="42.77715708129108" lon="1.514615686610341">
        <ele>687.48000000000002</ele>
        <time>2016-05-28T08:59:19Z</time>
      </trkpt>
      <trkpt lat="42.777177952229977" lon="1.51470797136426">
        <ele>690.36000000000001</ele>
        <time>2016-05-28T08:59:35Z</time>
      </trkpt>
      <trkpt lat="42.77717225253582" lon="1.514743594452739">
        <ele>690.84000000000003</ele>
        <time>2016-05-28T08:59:37Z</time>
      </trkpt>
      <trkpt lat="42.77715272270143" lon="1.514973929151893">
        <ele>689.88</ele>
        <time>2016-05-28T08:59:52Z</time>
      </trkpt>
      <trkpt lat="42.777130510658026" lon="1.515153637155891">
        <ele>691.33000000000004</ele>
        <time>2016-05-28T09:00:04Z</time>
      </trkpt>
      <trkpt lat="42.77708332054317" lon="1.515361424535513">
        <ele>694.21000000000004</ele>
        <time>2016-05-28T09:00:18Z</time>
      </trkpt>
      <trkpt lat="42.777060689404607" lon="1.515585221350193">
        <ele>697.09000000000003</ele>
        <time>2016-05-28T09:00:31Z</time>
      </trkpt>
      <trkpt lat="42.777062030509114" lon="1.515633165836334">
        <ele>696.13</ele>
        <time>2016-05-28T09:00:34Z</time>
      </trkpt>
      <trkpt lat="42.77700369246304" lon="1.515925442799926">
        <ele>695.16999999999996</ele>
        <time>2016-05-28T09:00:51Z</time>
      </trkpt>
      <trkpt lat="42.776993131265044" lon="1.515989396721125">
        <ele>694.21000000000004</ele>
        <time>2016-05-28T09:00:55Z</time>
      </trkpt>
      <trkpt lat="42.776993550360203" lon="1.516058463603258">
        <ele>694.21000000000004</ele>
        <time>2016-05-28T09:00:59Z</time>
      </trkpt>
      <trkpt lat="42.776988940313458" lon="1.516151335090399">
        <ele>695.16999999999996</ele>
        <time>2016-05-28T09:01:04Z</time>
      </trkpt>
      <trkpt lat="42.776931524276733" lon="1.516424501314759">
        <ele>696.13</ele>
        <time>2016-05-28T09:01:20Z</time>
      </trkpt>
      <trkpt lat="42.776898583397269" lon="1.51658870279789">
        <ele>697.57000000000005</ele>
        <time>2016-05-28T09:01:33Z</time>
      </trkpt>
      <trkpt lat="42.776941247284412" lon="1.516922721639276">
        <ele>697.57000000000005</ele>
        <time>2016-05-28T09:01:50Z</time>
      </trkpt>
      <trkpt lat="42.776994975283742" lon="1.51713889092207">
        <ele>698.04999999999995</ele>
        <time>2016-05-28T09:02:02Z</time>
      </trkpt>
      <trkpt lat="42.777007464319468" lon="1.517233354970813">
        <ele>698.52999999999997</ele>
        <time>2016-05-28T09:02:07Z</time>
      </trkpt>
      <trkpt lat="42.77707502245903" lon="1.517471987754107">
        <ele>697.57000000000005</ele>
        <time>2016-05-28T09:02:22Z</time>
      </trkpt>
      <trkpt lat="42.777079045772552" lon="1.517490260303021">
        <ele>698.04999999999995</ele>
        <time>2016-05-28T09:02:23Z</time>
      </trkpt>
      <trkpt lat="42.777073346078396" lon="1.517751524224877">
        <ele>698.52999999999997</ele>
        <time>2016-05-28T09:02:36Z</time>
      </trkpt>
      <trkpt lat="42.777049457654357" lon="1.518013207241893">
        <ele>698.52999999999997</ele>
        <time>2016-05-28T09:02:51Z</time>
      </trkpt>
      <trkpt lat="42.777039064094424" lon="1.518197525292635">
        <ele>695.64999999999998</ele>
        <time>2016-05-28T09:03:02Z</time>
      </trkpt>
      <trkpt lat="42.776996484026313" lon="1.518381088972092">
        <ele>694.21000000000004</ele>
        <time>2016-05-28T09:03:16Z</time>
      </trkpt>
      <trkpt lat="42.776987263932824" lon="1.518451329320669">
        <ele>693.25</ele>
        <time>2016-05-28T09:03:22Z</time>
      </trkpt>
      <trkpt lat="42.776982989162207" lon="1.518639838322997">
        <ele>692.28999999999996</ele>
        <time>2016-05-28T09:03:33Z</time>
      </trkpt>
      <trkpt lat="42.7769885212183" lon="1.518672863021493">
        <ele>692.28999999999996</ele>
        <time>2016-05-28T09:03:35Z</time>
      </trkpt>
      <trkpt lat="42.777004865929484" lon="1.518848799169064">
        <ele>691.80999999999995</ele>
        <time>2016-05-28T09:03:45Z</time>
      </trkpt>
      <trkpt lat="42.777001094073057" lon="1.519103022292256">
        <ele>689.88</ele>
        <time>2016-05-28T09:04:00Z</time>
      </trkpt>
      <trkpt lat="42.776995478197932" lon="1.519194636493921">
        <ele>689.88</ele>
        <time>2016-05-28T09:04:05Z</time>
      </trkpt>
      <trkpt lat="42.776974607259035" lon="1.519459504634142">
        <ele>690.84000000000003</ele>
        <time>2016-05-28T09:04:19Z</time>
      </trkpt>
      <trkpt lat="42.776979636400938" lon="1.519727306440473">
        <ele>690.84000000000003</ele>
        <time>2016-05-28T09:04:34Z</time>
      </trkpt>
      <trkpt lat="42.777016349136829" lon="1.519951522350311">
        <ele>687.48000000000002</ele>
        <time>2016-05-28T09:04:46Z</time>
      </trkpt>
      <trkpt lat="42.777131432667375" lon="1.520185545086861">
        <ele>684.60000000000002</ele>
        <time>2016-05-28T09:05:01Z</time>
      </trkpt>
      <trkpt lat="42.777193039655685" lon="1.520278751850128">
        <ele>685.08000000000004</ele>
        <time>2016-05-28T09:05:09Z</time>
      </trkpt>
      <trkpt lat="42.777235368266702" lon="1.520393919199705">
        <ele>685.08000000000004</ele>
        <time>2016-05-28T09:05:17Z</time>
      </trkpt>
      <trkpt lat="42.777268225327134" lon="1.520459968596697">
        <ele>684.60000000000002</ele>
        <time>2016-05-28T09:05:22Z</time>
      </trkpt>
      <trkpt lat="42.777291610836983" lon="1.520518641918898">
        <ele>684.12</ele>
        <time>2016-05-28T09:05:26Z</time>
      </trkpt>
      <trkpt lat="42.777381632477045" lon="1.520738918334246">
        <ele>680.26999999999998</ele>
        <time>2016-05-28T09:05:42Z</time>
      </trkpt>
      <trkpt lat="42.777418261393905" lon="1.520804632455111">
        <ele>678.35000000000002</ele>
        <time>2016-05-28T09:05:46Z</time>
      </trkpt>
      <trkpt lat="42.777534686028957" lon="1.520941089838743">
        <ele>674.01999999999998</ele>
        <time>2016-05-28T09:05:58Z</time>
      </trkpt>
      <trkpt lat="42.777574751526117" lon="1.521017448976636">
        <ele>673.05999999999995</ele>
        <time>2016-05-28T09:06:03Z</time>
      </trkpt>
      <trkpt lat="42.77763300575316" lon="1.521122809499502">
        <ele>672.10000000000002</ele>
        <time>2016-05-28T09:06:10Z</time>
      </trkpt>
      <trkpt lat="42.777699222788215" lon="1.521195648238063">
        <ele>670.65999999999997</ele>
        <time>2016-05-28T09:06:17Z</time>
      </trkpt>
      <trkpt lat="42.777807684615254" lon="1.521340906620026">
        <ele>668.73000000000002</ele>
        <time>2016-05-28T09:06:28Z</time>
      </trkpt>
      <trkpt lat="42.777860909700394" lon="1.521423049271107">
        <ele>667.28999999999996</ele>
        <time>2016-05-28T09:06:34Z</time>
      </trkpt>
      <trkpt lat="42.777943052351475" lon="1.521530421450734">
        <ele>666.33000000000004</ele>
        <time>2016-05-28T09:06:42Z</time>
      </trkpt>
      <trkpt lat="42.777955960482359" lon="1.521562356501818">
        <ele>666.33000000000004</ele>
        <time>2016-05-28T09:06:44Z</time>
      </trkpt>
      <trkpt lat="42.778005748987198" lon="1.521643660962582">
        <ele>665.85000000000002</ele>
        <time>2016-05-28T09:06:50Z</time>
      </trkpt>
      <trkpt lat="42.778069199994206" lon="1.521801492199302">
        <ele>668.25</ele>
        <time>2016-05-28T09:07:00Z</time>
      </trkpt>
      <trkpt lat="42.77809183113277" lon="1.521856226027012">
        <ele>669.70000000000005</ele>
        <time>2016-05-28T09:07:03Z</time>
      </trkpt>
      <trkpt lat="42.778211692348123" lon="1.522058146074414">
        <ele>672.58000000000004</ele>
        <time>2016-05-28T09:07:17Z</time>
      </trkpt>
      <trkpt lat="42.778221163898706" lon="1.522098043933511">
        <ele>673.05999999999995</ele>
        <time>2016-05-28T09:07:20Z</time>
      </trkpt>
      <trkpt lat="42.778253266587853" lon="1.522156046703458">
        <ele>673.53999999999996</ele>
        <time>2016-05-28T09:07:24Z</time>
      </trkpt>
      <trkpt lat="42.778352508321404" lon="1.522227376699448">
        <ele>673.05999999999995</ele>
        <time>2016-05-28T09:07:37Z</time>
      </trkpt>
      <trkpt lat="42.778341779485345" lon="1.52248109690845">
        <ele>675.46000000000004</ele>
        <time>2016-05-28T09:07:51Z</time>
      </trkpt>
      <trkpt lat="42.778338929638267" lon="1.522500710561872">
        <ele>675.94000000000005</ele>
        <time>2016-05-28T09:07:52Z</time>
      </trkpt>
      <trkpt lat="42.778334990143776" lon="1.522625433281064">
        <ele>680.26999999999998</ele>
        <time>2016-05-28T09:08:00Z</time>
      </trkpt>
      <trkpt lat="42.778330631554127" lon="1.52280212379992">
        <ele>684.60000000000002</ele>
        <time>2016-05-28T09:08:10Z</time>
      </trkpt>
      <trkpt lat="42.778387377038598" lon="1.522982083261013">
        <ele>686.51999999999998</ele>
        <time>2016-05-28T09:08:22Z</time>
      </trkpt>
      <trkpt lat="42.778396513313055" lon="1.523011922836304">
        <ele>687</ele>
        <time>2016-05-28T09:08:24Z</time>
      </trkpt>
      <trkpt lat="42.778435153886676" lon="1.523223398253322">
        <ele>687.48000000000002</ele>
        <time>2016-05-28T09:08:37Z</time>
      </trkpt>
      <trkpt lat="42.778458036482334" lon="1.523312916979194">
        <ele>687.48000000000002</ele>
        <time>2016-05-28T09:08:42Z</time>
      </trkpt>
      <trkpt lat="42.778477985411882" lon="1.523433029651642">
        <ele>686.51999999999998</ele>
        <time>2016-05-28T09:08:48Z</time>
      </trkpt>
      <trkpt lat="42.778513608500361" lon="1.523491535335779">
        <ele>686.51999999999998</ele>
        <time>2016-05-28T09:08:52Z</time>
      </trkpt>
      <trkpt lat="42.778526013717055" lon="1.523522296920419">
        <ele>686.03999999999996</ele>
        <time>2016-05-28T09:08:54Z</time>
      </trkpt>
      <trkpt lat="42.778576724231243" lon="1.523610642179847">
        <ele>685.55999999999995</ele>
        <time>2016-05-28T09:09:00Z</time>
      </trkpt>
      <trkpt lat="42.77869826182723" lon="1.523858411237598">
        <ele>687</ele>
        <time>2016-05-28T09:09:17Z</time>
      </trkpt>
      <trkpt lat="42.778751151636243" lon="1.524064354598522">
        <ele>685.55999999999995</ele>
        <time>2016-05-28T09:09:29Z</time>
      </trkpt>
      <trkpt lat="42.778790965676308" lon="1.524350931867957">
        <ele>681.71000000000004</ele>
        <time>2016-05-28T09:09:44Z</time>
      </trkpt>
      <trkpt lat="42.778813429176807" lon="1.524629630148411">
        <ele>676.41999999999996</ele>
        <time>2016-05-28T09:09:59Z</time>
      </trkpt>
      <trkpt lat="42.778820134699345" lon="1.524823000654578">
        <ele>676.41999999999996</ele>
        <time>2016-05-28T09:10:10Z</time>
      </trkpt>
      <trkpt lat="42.778830025345087" lon="1.524859042838216">
        <ele>675.94000000000005</ele>
        <time>2016-05-28T09:10:12Z</time>
      </trkpt>
      <trkpt lat="42.778826672583818" lon="1.525127179920673">
        <ele>674.01999999999998</ele>
        <time>2016-05-28T09:10:27Z</time>
      </trkpt>
      <trkpt lat="42.77882281690836" lon="1.525173196569085">
        <ele>673.53999999999996</ele>
        <time>2016-05-28T09:10:30Z</time>
      </trkpt>
      <trkpt lat="42.778820972889662" lon="1.525257602334023">
        <ele>673.53999999999996</ele>
        <time>2016-05-28T09:10:35Z</time>
      </trkpt>
      <trkpt lat="42.778843771666288" lon="1.525575025007129">
        <ele>673.05999999999995</ele>
        <time>2016-05-28T09:10:51Z</time>
      </trkpt>
      <trkpt lat="42.778862379491329" lon="1.525718607008457">
        <ele>671.13999999999999</ele>
        <time>2016-05-28T09:10:58Z</time>
      </trkpt>
      <trkpt lat="42.778887189924717" lon="1.525843497365713">
        <ele>669.22000000000003</ele>
        <time>2016-05-28T09:11:05Z</time>
      </trkpt>
      <trkpt lat="42.778951982036233" lon="1.526011973619461">
        <ele>668.73000000000002</ele>
        <time>2016-05-28T09:11:15Z</time>
      </trkpt>
      <trkpt lat="42.778993053361773" lon="1.526120351627469">
        <ele>668.25</ele>
        <time>2016-05-28T09:11:22Z</time>
      </trkpt>
      <trkpt lat="42.779001854360104" lon="1.52620836161077">
        <ele>668.25</ele>
        <time>2016-05-28T09:11:27Z</time>
      </trkpt>
      <trkpt lat="42.779013756662607" lon="1.526421094313264">
        <ele>666.33000000000004</ele>
        <time>2016-05-28T09:11:38Z</time>
      </trkpt>
      <trkpt lat="42.779040411114693" lon="1.526632150635123">
        <ele>665.85000000000002</ele>
        <time>2016-05-28T09:11:50Z</time>
      </trkpt>
      <trkpt lat="42.779007134959102" lon="1.52677028439939">
        <ele>668.25</ele>
        <time>2016-05-28T09:12:03Z</time>
      </trkpt>
      <trkpt lat="42.778960950672626" lon="1.526786712929606">
        <ele>667.76999999999998</ele>
        <time>2016-05-28T09:12:15Z</time>
      </trkpt>
      <trkpt lat="42.778928177431226" lon="1.526821833103895">
        <ele>670.65999999999997</ele>
        <time>2016-05-28T09:12:33Z</time>
      </trkpt>
      <trkpt lat="42.778945025056601" lon="1.526826275512576">
        <ele>673.05999999999995</ele>
        <time>2016-05-28T09:13:04Z</time>
      </trkpt>
      <trkpt lat="42.778977379202843" lon="1.526777409017086">
        <ele>674.01999999999998</ele>
        <time>2016-05-28T09:13:23Z</time>
      </trkpt>
      <trkpt lat="42.7789606153965" lon="1.526770116761327">
        <ele>675.46000000000004</ele>
        <time>2016-05-28T09:13:44Z</time>
      </trkpt>
      <trkpt lat="42.778954915702343" lon="1.526737175881863">
        <ele>675.46000000000004</ele>
        <time>2016-05-28T09:14:02Z</time>
      </trkpt>
      <trkpt lat="42.778981737792492" lon="1.526788976043463">
        <ele>679.78999999999996</ele>
        <time>2016-05-28T09:14:19Z</time>
      </trkpt>
      <trkpt lat="42.779053905978799" lon="1.526857791468501">
        <ele>677.87</ele>
        <time>2016-05-28T09:14:34Z</time>
      </trkpt>
      <trkpt lat="42.779071172699332" lon="1.526963235810399">
        <ele>674.5</ele>
        <time>2016-05-28T09:14:46Z</time>
      </trkpt>
      <trkpt lat="42.779104867950082" lon="1.527155684307218">
        <ele>675.94000000000005</ele>
        <time>2016-05-28T09:15:00Z</time>
      </trkpt>
      <trkpt lat="42.779124062508345" lon="1.527398256585002">
        <ele>671.62</ele>
        <time>2016-05-28T09:15:15Z</time>
      </trkpt>
      <trkpt lat="42.779149962589145" lon="1.527650551870465">
        <ele>670.65999999999997</ele>
        <time>2016-05-28T09:15:31Z</time>
      </trkpt>
      <trkpt lat="42.779166139662266" lon="1.527866804972291">
        <ele>670.65999999999997</ele>
        <time>2016-05-28T09:15:45Z</time>
      </trkpt>
      <trkpt lat="42.779188016429543" lon="1.5279630292207">
        <ele>670.65999999999997</ele>
        <time>2016-05-28T09:15:51Z</time>
      </trkpt>
      <trkpt lat="42.779240654781461" lon="1.528157740831375">
        <ele>668.73000000000002</ele>
        <time>2016-05-28T09:16:06Z</time>
      </trkpt>
      <trkpt lat="42.779319947585464" lon="1.528366953134537">
        <ele>668.73000000000002</ele>
        <time>2016-05-28T09:16:20Z</time>
      </trkpt>
      <trkpt lat="42.779403263702989" lon="1.52859921567142">
        <ele>668.73000000000002</ele>
        <time>2016-05-28T09:16:34Z</time>
      </trkpt>
      <trkpt lat="42.779463864862919" lon="1.528823347762227">
        <ele>670.65999999999997</ele>
        <time>2016-05-28T09:16:49Z</time>
      </trkpt>
      <trkpt lat="42.779506277292967" lon="1.528868610039353">
        <ele>670.65999999999997</ele>
        <time>2016-05-28T09:16:53Z</time>
      </trkpt>
      <trkpt lat="42.779616918414831" lon="1.529100118204951">
        <ele>670.65999999999997</ele>
        <time>2016-05-28T09:17:09Z</time>
      </trkpt>
      <trkpt lat="42.779628066346049" lon="1.529124090448022">
        <ele>671.13999999999999</ele>
        <time>2016-05-28T09:17:11Z</time>
      </trkpt>
      <trkpt lat="42.779687494039536" lon="1.529202545061708">
        <ele>672.58000000000004</ele>
        <time>2016-05-28T09:17:18Z</time>
      </trkpt>
      <trkpt lat="42.779768966138363" lon="1.529387785121799">
        <ele>674.01999999999998</ele>
        <time>2016-05-28T09:17:34Z</time>
      </trkpt>
      <trkpt lat="42.779775420203805" lon="1.529398765414953">
        <ele>674.01999999999998</ele>
        <time>2016-05-28T09:17:35Z</time>
      </trkpt>
      <trkpt lat="42.779848258942366" lon="1.529549220576882">
        <ele>672.58000000000004</ele>
        <time>2016-05-28T09:17:45Z</time>
      </trkpt>
      <trkpt lat="42.779894610866904" lon="1.529656006023288">
        <ele>671.62</ele>
        <time>2016-05-28T09:17:50Z</time>
      </trkpt>
      <trkpt lat="42.779920091852546" lon="1.52971769683063">
        <ele>671.13999999999999</ele>
        <time>2016-05-28T09:17:53Z</time>
      </trkpt>
      <trkpt lat="42.779975831508636" lon="1.52989111840725">
        <ele>670.65999999999997</ele>
        <time>2016-05-28T09:18:07Z</time>
      </trkpt>
      <trkpt lat="42.779975412413478" lon="1.529910061508417">
        <ele>670.65999999999997</ele>
        <time>2016-05-28T09:18:08Z</time>
      </trkpt>
      <trkpt lat="42.780040791258216" lon="1.530057499185205">
        <ele>671.13999999999999</ele>
        <time>2016-05-28T09:18:16Z</time>
      </trkpt>
      <trkpt lat="42.780127292498946" lon="1.530237542465329">
        <ele>668.73000000000002</ele>
        <time>2016-05-28T09:18:29Z</time>
      </trkpt>
      <trkpt lat="42.780146906152368" lon="1.530276602134109">
        <ele>668.73000000000002</ele>
        <time>2016-05-28T09:18:32Z</time>
      </trkpt>
      <trkpt lat="42.780190240591764" lon="1.530450191348791">
        <ele>666.33000000000004</ele>
        <time>2016-05-28T09:18:43Z</time>
      </trkpt>
      <trkpt lat="42.780242543667555" lon="1.530649177730084">
        <ele>666.80999999999995</ele>
        <time>2016-05-28T09:18:56Z</time>
      </trkpt>
      <trkpt lat="42.780310101807117" lon="1.530808517709374">
        <ele>669.70000000000005</ele>
        <time>2016-05-28T09:19:09Z</time>
      </trkpt>
      <trkpt lat="42.780317729339004" lon="1.530957212671638">
        <ele>672.10000000000002</ele>
        <time>2016-05-28T09:19:24Z</time>
      </trkpt>
      <trkpt lat="42.780367266386747" lon="1.531073218211532">
        <ele>673.05999999999995</ele>
        <time>2016-05-28T09:19:31Z</time>
      </trkpt>
      <trkpt lat="42.780427951365709" lon="1.531272791326046">
        <ele>675.46000000000004</ele>
        <time>2016-05-28T09:19:46Z</time>
      </trkpt>
      <trkpt lat="42.780477739870548" lon="1.531475465744734">
        <ele>678.83000000000004</ele>
        <time>2016-05-28T09:20:01Z</time>
      </trkpt>
      <trkpt lat="42.780535155907273" lon="1.531696580350399">
        <ele>679.78999999999996</ele>
        <time>2016-05-28T09:20:17Z</time>
      </trkpt>
      <trkpt lat="42.780620818957686" lon="1.531919706612825">
        <ele>682.66999999999996</ele>
        <time>2016-05-28T09:20:33Z</time>
      </trkpt>
      <trkpt lat="42.780768340453506" lon="1.532134534791112">
        <ele>682.66999999999996</ele>
        <time>2016-05-28T09:20:52Z</time>
      </trkpt>
      <trkpt lat="42.780797844752669" lon="1.532370150089264">
        <ele>679.30999999999995</ele>
        <time>2016-05-28T09:21:09Z</time>
      </trkpt>
      <trkpt lat="42.780775632709265" lon="1.532504679635167">
        <ele>677.38999999999999</ele>
        <time>2016-05-28T09:21:22Z</time>
      </trkpt>
      <trkpt lat="42.780742440372705" lon="1.532499566674233">
        <ele>679.30999999999995</ele>
        <time>2016-05-28T09:21:33Z</time>
      </trkpt>
      <trkpt lat="42.780741099268198" lon="1.532577769830823">
        <ele>681.71000000000004</ele>
        <time>2016-05-28T09:21:50Z</time>
      </trkpt>
      <trkpt lat="42.780626937747002" lon="1.532663851976395">
        <ele>685.55999999999995</ele>
        <time>2016-05-28T09:22:11Z</time>
      </trkpt>
      <trkpt lat="42.780614867806435" lon="1.532668462023139">
        <ele>685.55999999999995</ele>
        <time>2016-05-28T09:22:12Z</time>
      </trkpt>
      <trkpt lat="42.780588380992413" lon="1.53280726633966">
        <ele>684.60000000000002</ele>
        <time>2016-05-28T09:22:25Z</time>
      </trkpt>
      <trkpt lat="42.780591566115618" lon="1.532822856679559">
        <ele>684.60000000000002</ele>
        <time>2016-05-28T09:22:27Z</time>
      </trkpt>
      <trkpt lat="42.780555943027139" lon="1.533033661544323">
        <ele>682.66999999999996</ele>
        <time>2016-05-28T09:22:40Z</time>
      </trkpt>
      <trkpt lat="42.780541609972715" lon="1.533125275745988">
        <ele>683.14999999999998</ele>
        <time>2016-05-28T09:22:51Z</time>
      </trkpt>
      <trkpt lat="42.780546303838491" lon="1.533148912712932">
        <ele>683.14999999999998</ele>
        <time>2016-05-28T09:22:53Z</time>
      </trkpt>
      <trkpt lat="42.780602127313614" lon="1.533349743112922">
        <ele>682.19000000000005</ele>
        <time>2016-05-28T09:23:07Z</time>
      </trkpt>
      <trkpt lat="42.780646719038486" lon="1.533494582399726">
        <ele>681.71000000000004</ele>
        <time>2016-05-28T09:23:19Z</time>
      </trkpt>
      <trkpt lat="42.780658202245831" lon="1.533580161631107">
        <ele>681.71000000000004</ele>
        <time>2016-05-28T09:23:32Z</time>
      </trkpt>
      <trkpt lat="42.780728107318282" lon="1.533562140539289">
        <ele>680.26999999999998</ele>
        <time>2016-05-28T09:23:55Z</time>
      </trkpt>
      <trkpt lat="42.780713187530637" lon="1.533606313169003">
        <ele>680.75</ele>
        <time>2016-05-28T09:24:15Z</time>
      </trkpt>
      <trkpt lat="42.780749564990401" lon="1.533644367009401">
        <ele>681.71000000000004</ele>
        <time>2016-05-28T09:24:28Z</time>
      </trkpt>
      <trkpt lat="42.780747218057513" lon="1.533643109723926">
        <ele>683.14999999999998</ele>
        <time>2016-05-28T09:24:53Z</time>
      </trkpt>
      <trkpt lat="42.780738668516278" lon="1.533581167459488">
        <ele>682.19000000000005</ele>
        <time>2016-05-28T09:25:10Z</time>
      </trkpt>
      <trkpt lat="42.780766161158681" lon="1.533685773611069">
        <ele>682.66999999999996</ele>
        <time>2016-05-28T09:25:30Z</time>
      </trkpt>
      <trkpt lat="42.780789630487561" lon="1.533804712817073">
        <ele>680.26999999999998</ele>
        <time>2016-05-28T09:25:39Z</time>
      </trkpt>
      <trkpt lat="42.780857440084219" lon="1.534001938998699">
        <ele>677.38999999999999</ele>
        <time>2016-05-28T09:25:52Z</time>
      </trkpt>
      <trkpt lat="42.780931200832129" lon="1.534230764955282">
        <ele>679.30999999999995</ele>
        <time>2016-05-28T09:26:10Z</time>
      </trkpt>
      <trkpt lat="42.780934050679207" lon="1.53424627147615">
        <ele>679.30999999999995</ele>
        <time>2016-05-28T09:26:11Z</time>
      </trkpt>
      <trkpt lat="42.78095031157136" lon="1.53449110686779">
        <ele>678.83000000000004</ele>
        <time>2016-05-28T09:26:23Z</time>
      </trkpt>
      <trkpt lat="42.781042261049151" lon="1.534705683588982">
        <ele>677.38999999999999</ele>
        <time>2016-05-28T09:26:37Z</time>
      </trkpt>
      <trkpt lat="42.781060365960002" lon="1.534732757136226">
        <ele>677.38999999999999</ele>
        <time>2016-05-28T09:26:39Z</time>
      </trkpt>
      <trkpt lat="42.781112417578697" lon="1.53495823033154">
        <ele>675.46000000000004</ele>
        <time>2016-05-28T09:26:54Z</time>
      </trkpt>
      <trkpt lat="42.78111794963479" lon="1.53499242849648">
        <ele>675.46000000000004</ele>
        <time>2016-05-28T09:26:56Z</time>
      </trkpt>
      <trkpt lat="42.781171761453152" lon="1.535200299695134">
        <ele>674.5</ele>
        <time>2016-05-28T09:27:10Z</time>
      </trkpt>
      <trkpt lat="42.781193386763334" lon="1.535228211432695">
        <ele>674.5</ele>
        <time>2016-05-28T09:27:13Z</time>
      </trkpt>
      <trkpt lat="42.78124988079071" lon="1.535438429564238">
        <ele>674.01999999999998</ele>
        <time>2016-05-28T09:27:26Z</time>
      </trkpt>
      <trkpt lat="42.781254071742296" lon="1.535534569993615">
        <ele>674.01999999999998</ele>
        <time>2016-05-28T09:27:32Z</time>
      </trkpt>
      <trkpt lat="42.781288605183363" lon="1.535607241094112">
        <ele>673.53999999999996</ele>
        <time>2016-05-28T09:27:36Z</time>
      </trkpt>
      <trkpt lat="42.781370999291539" lon="1.535830115899444">
        <ele>673.05999999999995</ele>
        <time>2016-05-28T09:27:50Z</time>
      </trkpt>
      <trkpt lat="42.78146194294095" lon="1.535994149744511">
        <ele>670.65999999999997</ele>
        <time>2016-05-28T09:28:03Z</time>
      </trkpt>
      <trkpt lat="42.781517012044787" lon="1.536203110590577">
        <ele>669.22000000000003</ele>
        <time>2016-05-28T09:28:17Z</time>
      </trkpt>
      <trkpt lat="42.781583396717906" lon="1.53637963347137">
        <ele>668.25</ele>
        <time>2016-05-28T09:28:31Z</time>
      </trkpt>
      <trkpt lat="42.781593455001712" lon="1.536410562694073">
        <ele>668.25</ele>
        <time>2016-05-28T09:28:33Z</time>
      </trkpt>
      <trkpt lat="42.781647518277168" lon="1.536603681743145">
        <ele>665.85000000000002</ele>
        <time>2016-05-28T09:28:47Z</time>
      </trkpt>
      <trkpt lat="42.781695881858468" lon="1.536773080006242">
        <ele>662.49000000000001</ele>
        <time>2016-05-28T09:29:00Z</time>
      </trkpt>
      <trkpt lat="42.781693870201707" lon="1.536922864615917">
        <ele>662.00999999999999</ele>
        <time>2016-05-28T09:29:09Z</time>
      </trkpt>
      <trkpt lat="42.781673250719905" lon="1.53710181824863">
        <ele>662.00999999999999</ele>
        <time>2016-05-28T09:29:20Z</time>
      </trkpt>
      <trkpt lat="42.781719686463475" lon="1.537297032773495">
        <ele>663.92999999999995</ele>
        <time>2016-05-28T09:29:33Z</time>
      </trkpt>
      <trkpt lat="42.781757405027747" lon="1.537413457408547">
        <ele>665.85000000000002</ele>
        <time>2016-05-28T09:29:45Z</time>
      </trkpt>
      <trkpt lat="42.781781880185008" lon="1.537529295310378">
        <ele>665.85000000000002</ele>
        <time>2016-05-28T09:29:55Z</time>
      </trkpt>
      <trkpt lat="42.781820185482502" lon="1.537702046334744">
        <ele>665.37</ele>
        <time>2016-05-28T09:30:09Z</time>
      </trkpt>
      <trkpt lat="42.781888246536255" lon="1.537842275574803">
        <ele>664.40999999999997</ele>
        <time>2016-05-28T09:30:21Z</time>
      </trkpt>
      <trkpt lat="42.781990254297853" lon="1.537983426824212">
        <ele>664.88999999999999</ele>
        <time>2016-05-28T09:30:37Z</time>
      </trkpt>
      <trkpt lat="42.782045407220721" lon="1.538085769861937">
        <ele>663.92999999999995</ele>
        <time>2016-05-28T09:30:48Z</time>
      </trkpt>
      <trkpt lat="42.782083293423057" lon="1.538274949416518">
        <ele>662.97000000000003</ele>
        <time>2016-05-28T09:31:00Z</time>
      </trkpt>
      <trkpt lat="42.782125370576978" lon="1.538440324366093">
        <ele>664.40999999999997</ele>
        <time>2016-05-28T09:31:16Z</time>
      </trkpt>
      <trkpt lat="42.782150600105524" lon="1.538585750386119">
        <ele>664.88999999999999</ele>
        <time>2016-05-28T09:31:29Z</time>
      </trkpt>
      <trkpt lat="42.782146744430065" lon="1.538749700412154">
        <ele>666.33000000000004</ele>
        <time>2016-05-28T09:31:41Z</time>
      </trkpt>
      <trkpt lat="42.782150767743587" lon="1.538776606321335">
        <ele>666.80999999999995</ele>
        <time>2016-05-28T09:31:43Z</time>
      </trkpt>
      <trkpt lat="42.782148672267795" lon="1.538894204422832">
        <ele>665.85000000000002</ele>
        <time>2016-05-28T09:31:51Z</time>
      </trkpt>
      <trkpt lat="42.782140290364623" lon="1.539092771708965">
        <ele>663.92999999999995</ele>
        <time>2016-05-28T09:32:05Z</time>
      </trkpt>
      <trkpt lat="42.782181026414037" lon="1.539236688986421">
        <ele>665.85000000000002</ele>
        <time>2016-05-28T09:32:18Z</time>
      </trkpt>
      <trkpt lat="42.78218706138432" lon="1.539267031475902">
        <ele>666.80999999999995</ele>
        <time>2016-05-28T09:32:21Z</time>
      </trkpt>
      <trkpt lat="42.782280938699841" lon="1.5393793489784">
        <ele>670.65999999999997</ele>
        <time>2016-05-28T09:32:34Z</time>
      </trkpt>
      <trkpt lat="42.782318741083145" lon="1.53945604339242">
        <ele>672.58000000000004</ele>
        <time>2016-05-28T09:32:42Z</time>
      </trkpt>
      <trkpt lat="42.782360147684813" lon="1.5395796764642">
        <ele>674.98000000000002</ele>
        <time>2016-05-28T09:32:54Z</time>
      </trkpt>
      <trkpt lat="42.782384371384978" lon="1.539690149948001">
        <ele>675.46000000000004</ele>
        <time>2016-05-28T09:33:01Z</time>
      </trkpt>
      <trkpt lat="42.782423095777631" lon="1.53984546661377">
        <ele>675.46000000000004</ele>
        <time>2016-05-28T09:33:15Z</time>
      </trkpt>
      <trkpt lat="42.782463245093822" lon="1.53998963534832">
        <ele>676.90999999999997</ele>
        <time>2016-05-28T09:33:28Z</time>
      </trkpt>
      <trkpt lat="42.782545974478126" lon="1.540118297562003">
        <ele>675.46000000000004</ele>
        <time>2016-05-28T09:33:44Z</time>
      </trkpt>
      <trkpt lat="42.782575562596321" lon="1.540141683071852">
        <ele>675.46000000000004</ele>
        <time>2016-05-28T09:33:48Z</time>
      </trkpt>
      <trkpt lat="42.78274898417294" lon="1.540205385535955">
        <ele>675.46000000000004</ele>
        <time>2016-05-28T09:34:06Z</time>
      </trkpt>
      <trkpt lat="42.782840766012669" lon="1.540345614776015">
        <ele>675.46000000000004</ele>
        <time>2016-05-28T09:34:21Z</time>
      </trkpt>
      <trkpt lat="42.782882675528526" lon="1.540407808497548">
        <ele>675.46000000000004</ele>
        <time>2016-05-28T09:34:26Z</time>
      </trkpt>
      <trkpt lat="42.783005638048053" lon="1.540621547028422">
        <ele>672.10000000000002</ele>
        <time>2016-05-28T09:34:42Z</time>
      </trkpt>
      <trkpt lat="42.783081158995628" lon="1.540811145678163">
        <ele>669.22000000000003</ele>
        <time>2016-05-28T09:34:57Z</time>
      </trkpt>
      <trkpt lat="42.783142179250717" lon="1.540963696315885">
        <ele>669.22000000000003</ele>
        <time>2016-05-28T09:35:11Z</time>
      </trkpt>
      <trkpt lat="42.783193727955222" lon="1.541074085980654">
        <ele>672.58000000000004</ele>
        <time>2016-05-28T09:35:28Z</time>
      </trkpt>
      <trkpt lat="42.783300681039691" lon="1.541228061541915">
        <ele>673.53999999999996</ele>
        <time>2016-05-28T09:35:45Z</time>
      </trkpt>
      <trkpt lat="42.783426409587264" lon="1.541404332965612">
        <ele>674.01999999999998</ele>
        <time>2016-05-28T09:36:03Z</time>
      </trkpt>
      <trkpt lat="42.783538978546858" lon="1.541616814211011">
        <ele>676.90999999999997</ele>
        <time>2016-05-28T09:36:22Z</time>
      </trkpt>
      <trkpt lat="42.783668395131826" lon="1.541669871658087">
        <ele>676.90999999999997</ele>
        <time>2016-05-28T09:36:30Z</time>
      </trkpt>
      <trkpt lat="42.78385229408741" lon="1.54177850112319">
        <ele>675.94000000000005</ele>
        <time>2016-05-28T09:36:47Z</time>
      </trkpt>
      <trkpt lat="42.783859418705106" lon="1.541898446157575">
        <ele>676.41999999999996</ele>
        <time>2016-05-28T09:37:00Z</time>
      </trkpt>
      <trkpt lat="42.783860927447677" lon="1.542085446417332">
        <ele>675.46000000000004</ele>
        <time>2016-05-28T09:37:14Z</time>
      </trkpt>
      <trkpt lat="42.783869225531816" lon="1.542296754196286">
        <ele>676.41999999999996</ele>
        <time>2016-05-28T09:37:28Z</time>
      </trkpt>
      <trkpt lat="42.783856904134154" lon="1.542506972327828">
        <ele>676.41999999999996</ele>
        <time>2016-05-28T09:37:43Z</time>
      </trkpt>
      <trkpt lat="42.783893365412951" lon="1.54273571446538">
        <ele>673.05999999999995</ele>
        <time>2016-05-28T09:37:58Z</time>
      </trkpt>
      <trkpt lat="42.783873416483402" lon="1.542943837121129">
        <ele>669.70000000000005</ele>
        <time>2016-05-28T09:38:12Z</time>
      </trkpt>
      <trkpt lat="42.783825052902102" lon="1.543101835995913">
        <ele>668.73000000000002</ele>
        <time>2016-05-28T09:38:27Z</time>
      </trkpt>
      <trkpt lat="42.783819520846009" lon="1.543316831812263">
        <ele>664.88999999999999</ele>
        <time>2016-05-28T09:38:41Z</time>
      </trkpt>
      <trkpt lat="42.783866543322802" lon="1.543579520657659">
        <ele>668.25</ele>
        <time>2016-05-28T09:38:57Z</time>
      </trkpt>
      <trkpt lat="42.783917505294085" lon="1.543710110709071">
        <ele>668.73000000000002</ele>
        <time>2016-05-28T09:39:11Z</time>
      </trkpt>
      <trkpt lat="42.783981459215283" lon="1.543896608054638">
        <ele>671.13999999999999</ele>
        <time>2016-05-28T09:39:24Z</time>
      </trkpt>
      <trkpt lat="42.784019848331809" lon="1.54391085729003">
        <ele>672.10000000000002</ele>
        <time>2016-05-28T09:39:29Z</time>
      </trkpt>
      <trkpt lat="42.784084221348166" lon="1.543959304690361">
        <ele>674.01999999999998</ele>
        <time>2016-05-28T09:39:37Z</time>
      </trkpt>
      <trkpt lat="42.784151695668697" lon="1.544022085145116">
        <ele>673.05999999999995</ele>
        <time>2016-05-28T09:39:44Z</time>
      </trkpt>
      <trkpt lat="42.784265438094735" lon="1.544277984648943">
        <ele>672.58000000000004</ele>
        <time>2016-05-28T09:40:02Z</time>
      </trkpt>
      <trkpt lat="42.784365098923445" lon="1.544411759823561">
        <ele>670.17999999999995</ele>
        <time>2016-05-28T09:40:17Z</time>
      </trkpt>
      <trkpt lat="42.784441122785211" lon="1.544523071497679">
        <ele>669.70000000000005</ele>
        <time>2016-05-28T09:40:31Z</time>
      </trkpt>
      <trkpt lat="42.784447073936462" lon="1.544529944658279">
        <ele>669.70000000000005</ele>
        <time>2016-05-28T09:40:32Z</time>
      </trkpt>
      <trkpt lat="42.784544806927443" lon="1.544584259390831">
        <ele>667.76999999999998</ele>
        <time>2016-05-28T09:40:43Z</time>
      </trkpt>
      <trkpt lat="42.784732645377517" lon="1.544646369293332">
        <ele>665.85000000000002</ele>
        <time>2016-05-28T09:40:59Z</time>
      </trkpt>
      <trkpt lat="42.784890476614237" lon="1.544749215245247">
        <ele>663.45000000000005</ele>
        <time>2016-05-28T09:41:14Z</time>
      </trkpt>
      <trkpt lat="42.784985946491361" lon="1.544856335967779">
        <ele>665.37</ele>
        <time>2016-05-28T09:41:28Z</time>
      </trkpt>
      <trkpt lat="42.785028526559472" lon="1.544962869957089">
        <ele>666.80999999999995</ele>
        <time>2016-05-28T09:41:42Z</time>
      </trkpt>
      <trkpt lat="42.785102874040604" lon="1.545192617923021">
        <ele>667.76999999999998</ele>
        <time>2016-05-28T09:41:59Z</time>
      </trkpt>
      <trkpt lat="42.785191889852285" lon="1.545411804690957">
        <ele>667.76999999999998</ele>
        <time>2016-05-28T09:42:14Z</time>
      </trkpt>
      <trkpt lat="42.78525223955512" lon="1.545577766373754">
        <ele>672.10000000000002</ele>
        <time>2016-05-28T09:42:28Z</time>
      </trkpt>
      <trkpt lat="42.785310577601194" lon="1.545809609815478">
        <ele>670.17999999999995</ele>
        <time>2016-05-28T09:42:45Z</time>
      </trkpt>
      <trkpt lat="42.785363467410207" lon="1.545980097725987">
        <ele>668.25</ele>
        <time>2016-05-28T09:43:00Z</time>
      </trkpt>
      <trkpt lat="42.785328011959791" lon="1.54616441577673">
        <ele>670.17999999999995</ele>
        <time>2016-05-28T09:43:16Z</time>
      </trkpt>
      <trkpt lat="42.785327089950442" lon="1.546205654740334">
        <ele>670.17999999999995</ele>
        <time>2016-05-28T09:43:19Z</time>
      </trkpt>
      <trkpt lat="42.785351062193513" lon="1.546402042731643">
        <ele>670.65999999999997</ele>
        <time>2016-05-28T09:43:34Z</time>
      </trkpt>
      <trkpt lat="42.785329017788172" lon="1.546446969732642">
        <ele>669.22000000000003</ele>
        <time>2016-05-28T09:43:49Z</time>
      </trkpt>
      <trkpt lat="42.785359444096684" lon="1.546574626117945">
        <ele>663.92999999999995</ele>
        <time>2016-05-28T09:44:00Z</time>
      </trkpt>
      <trkpt lat="42.785459524020553" lon="1.546776965260506">
        <ele>662.97000000000003</ele>
        <time>2016-05-28T09:44:16Z</time>
      </trkpt>
      <trkpt lat="42.785576283931732" lon="1.546939993277192">
        <ele>666.80999999999995</ele>
        <time>2016-05-28T09:44:31Z</time>
      </trkpt>
      <trkpt lat="42.785642920061946" lon="1.547032194212079">
        <ele>665.85000000000002</ele>
        <time>2016-05-28T09:44:41Z</time>
      </trkpt>
      <trkpt lat="42.785761188715696" lon="1.547206705436111">
        <ele>665.85000000000002</ele>
        <time>2016-05-28T09:44:56Z</time>
      </trkpt>
      <trkpt lat="42.785865291953087" lon="1.547338385134935">
        <ele>667.28999999999996</ele>
        <time>2016-05-28T09:45:09Z</time>
      </trkpt>
      <trkpt lat="42.785947183147073" lon="1.547491690143943">
        <ele>671.62</ele>
        <time>2016-05-28T09:45:25Z</time>
      </trkpt>
      <trkpt lat="42.78600174933672" lon="1.547591602429748">
        <ele>675.46000000000004</ele>
        <time>2016-05-28T09:45:40Z</time>
      </trkpt>
      <trkpt lat="42.786000575870275" lon="1.547735938802362">
        <ele>677.87</ele>
        <time>2016-05-28T09:45:53Z</time>
      </trkpt>
      <trkpt lat="42.785994121804833" lon="1.547745913267136">
        <ele>677.87</ele>
        <time>2016-05-28T09:45:55Z</time>
      </trkpt>
      <trkpt lat="42.785970568656921" lon="1.547749852761626">
        <ele>677.38999999999999</ele>
        <time>2016-05-28T09:45:57Z</time>
      </trkpt>
      <trkpt lat="42.785863783210516" lon="1.547786146402359">
        <ele>673.05999999999995</ele>
        <time>2016-05-28T09:46:09Z</time>
      </trkpt>
      <trkpt lat="42.78582539409399" lon="1.547814141958952">
        <ele>673.53999999999996</ele>
        <time>2016-05-28T09:46:14Z</time>
      </trkpt>
      <trkpt lat="42.785780299454927" lon="1.547918161377311">
        <ele>672.10000000000002</ele>
        <time>2016-05-28T09:46:27Z</time>
      </trkpt>
      <trkpt lat="42.785776359960437" lon="1.547935009002686">
        <ele>671.62</ele>
        <time>2016-05-28T09:46:31Z</time>
      </trkpt>
      <trkpt lat="42.785725649446249" lon="1.548021761700511">
        <ele>673.05999999999995</ele>
        <time>2016-05-28T09:46:42Z</time>
      </trkpt>
      <trkpt lat="42.785664545372128" lon="1.54801631346345">
        <ele>672.10000000000002</ele>
        <time>2016-05-28T09:46:49Z</time>
      </trkpt>
      <trkpt lat="42.785636633634567" lon="1.548013212159276">
        <ele>671.62</ele>
        <time>2016-05-28T09:46:51Z</time>
      </trkpt>
      <trkpt lat="42.785563124343753" lon="1.548203900456429">
        <ele>665.37</ele>
        <time>2016-05-28T09:47:05Z</time>
      </trkpt>
      <trkpt lat="42.78554099611938" lon="1.548396600410342">
        <ele>664.88999999999999</ele>
        <time>2016-05-28T09:47:21Z</time>
      </trkpt>
      <trkpt lat="42.785614086315036" lon="1.548648308962584">
        <ele>666.80999999999995</ele>
        <time>2016-05-28T09:47:41Z</time>
      </trkpt>
      <trkpt lat="42.785696312785149" lon="1.548813180997968">
        <ele>665.85000000000002</ele>
        <time>2016-05-28T09:47:56Z</time>
      </trkpt>
      <trkpt lat="42.785622635856271" lon="1.548967408016324">
        <ele>665.37</ele>
        <time>2016-05-28T09:48:10Z</time>
      </trkpt>
      <trkpt lat="42.785574356094003" lon="1.549183996394277">
        <ele>662.97000000000003</ele>
        <time>2016-05-28T09:48:25Z</time>
      </trkpt>
      <trkpt lat="42.785574104636908" lon="1.549384910613298">
        <ele>660.55999999999995</ele>
        <time>2016-05-28T09:48:38Z</time>
      </trkpt>
      <trkpt lat="42.785599250346422" lon="1.549568809568882">
        <ele>661.51999999999998</ele>
        <time>2016-05-28T09:48:52Z</time>
      </trkpt>
      <trkpt lat="42.78561039827764" lon="1.549590267241001">
        <ele>662.00999999999999</ele>
        <time>2016-05-28T09:48:54Z</time>
      </trkpt>
      <trkpt lat="42.785532362759113" lon="1.549771316349506">
        <ele>663.92999999999995</ele>
        <time>2016-05-28T09:49:11Z</time>
      </trkpt>
      <trkpt lat="42.785493051633239" lon="1.54985262081027">
        <ele>664.40999999999997</ele>
        <time>2016-05-28T09:49:18Z</time>
      </trkpt>
      <trkpt lat="42.785443514585495" lon="1.549994191154838">
        <ele>664.40999999999997</ele>
        <time>2016-05-28T09:49:33Z</time>
      </trkpt>
      <trkpt lat="42.785367490723729" lon="1.550132241100073">
        <ele>662.97000000000003</ele>
        <time>2016-05-28T09:49:48Z</time>
      </trkpt>
      <trkpt lat="42.785300351679325" lon="1.550323683768511">
        <ele>660.55999999999995</ele>
        <time>2016-05-28T09:50:04Z</time>
      </trkpt>
      <trkpt lat="42.785220555961132" lon="1.550524178892374">
        <ele>657.67999999999995</ele>
        <time>2016-05-28T09:50:20Z</time>
      </trkpt>
      <trkpt lat="42.78512223623693" lon="1.550717633217573">
        <ele>654.30999999999995</ele>
        <time>2016-05-28T09:50:35Z</time>
      </trkpt>
      <trkpt lat="42.785134306177497" lon="1.550850737839937">
        <ele>653.83000000000004</ele>
        <time>2016-05-28T09:50:47Z</time>
      </trkpt>
      <trkpt lat="42.785042775794864" lon="1.550968252122402">
        <ele>651.42999999999995</ele>
        <time>2016-05-28T09:51:03Z</time>
      </trkpt>
      <trkpt lat="42.78489843942225" lon="1.551155420020223">
        <ele>644.22000000000003</ele>
        <time>2016-05-28T09:51:21Z</time>
      </trkpt>
      <trkpt lat="42.78477631509304" lon="1.551324734464288">
        <ele>638.92999999999995</ele>
        <time>2016-05-28T09:51:39Z</time>
      </trkpt>
      <trkpt lat="42.784765502437949" lon="1.551387598738074">
        <ele>637.97000000000003</ele>
        <time>2016-05-28T09:51:43Z</time>
      </trkpt>
      <trkpt lat="42.784753935411572" lon="1.551537802442908">
        <ele>636.52999999999997</ele>
        <time>2016-05-28T09:51:55Z</time>
      </trkpt>
      <trkpt lat="42.784830378368497" lon="1.551784900948405">
        <ele>637.49000000000001</ele>
        <time>2016-05-28T09:52:08Z</time>
      </trkpt>
      <trkpt lat="42.784747565165162" lon="1.552073322236538">
        <ele>637.97000000000003</ele>
        <time>2016-05-28T09:52:26Z</time>
      </trkpt>
      <trkpt lat="42.784676654264331" lon="1.552249258384109">
        <ele>637.00999999999999</ele>
        <time>2016-05-28T09:52:38Z</time>
      </trkpt>
      <trkpt lat="42.784581435844302" lon="1.552439611405134">
        <ele>637.00999999999999</ele>
        <time>2016-05-28T09:52:54Z</time>
      </trkpt>
      <trkpt lat="42.784565594047308" lon="1.552562238648534">
        <ele>636.52999999999997</ele>
        <time>2016-05-28T09:53:04Z</time>
      </trkpt>
      <trkpt lat="42.784549165517092" lon="1.552737671881914">
        <ele>636.52999999999997</ele>
        <time>2016-05-28T09:53:15Z</time>
      </trkpt>
      <trkpt lat="42.784530892968178" lon="1.553006395697594">
        <ele>637.97000000000003</ele>
        <time>2016-05-28T09:53:31Z</time>
      </trkpt>
      <trkpt lat="42.784497952088714" lon="1.553239831700921">
        <ele>636.04999999999995</ele>
        <time>2016-05-28T09:53:48Z</time>
      </trkpt>
      <trkpt lat="42.78448554687202" lon="1.553274365141988">
        <ele>635.57000000000005</ele>
        <time>2016-05-28T09:53:50Z</time>
      </trkpt>
      <trkpt lat="42.784469285979867" lon="1.553418952971697">
        <ele>633.64999999999998</ele>
        <time>2016-05-28T09:54:00Z</time>
      </trkpt>
      <trkpt lat="42.784438943490386" lon="1.553482655435801">
        <ele>633.64999999999998</ele>
        <time>2016-05-28T09:54:06Z</time>
      </trkpt>
      <trkpt lat="42.784476494416595" lon="1.553748277947307">
        <ele>633.64999999999998</ele>
        <time>2016-05-28T09:54:21Z</time>
      </trkpt>
      <trkpt lat="42.784498957917094" lon="1.553874844685197">
        <ele>636.04999999999995</ele>
        <time>2016-05-28T09:54:34Z</time>
      </trkpt>
      <trkpt lat="42.784561235457659" lon="1.553961932659149">
        <ele>636.04999999999995</ele>
        <time>2016-05-28T09:54:46Z</time>
      </trkpt>
      <trkpt lat="42.784598032012582" lon="1.554107861593366">
        <ele>633.64999999999998</ele>
        <time>2016-05-28T09:55:01Z</time>
      </trkpt>
      <trkpt lat="42.784608174115419" lon="1.554257059469819">
        <ele>632.67999999999995</ele>
        <time>2016-05-28T09:55:16Z</time>
      </trkpt>
      <trkpt lat="42.784634325653315" lon="1.554422434419394">
        <ele>632.20000000000005</ele>
        <time>2016-05-28T09:55:30Z</time>
      </trkpt>
      <trkpt lat="42.784691071137786" lon="1.554641118273139">
        <ele>633.16999999999996</ele>
        <time>2016-05-28T09:55:46Z</time>
      </trkpt>
      <trkpt lat="42.784712528809905" lon="1.554824011400342">
        <ele>631.24000000000001</ele>
        <time>2016-05-28T09:56:01Z</time>
      </trkpt>
      <trkpt lat="42.784753013402224" lon="1.554988883435726">
        <ele>630.27999999999997</ele>
        <time>2016-05-28T09:56:13Z</time>
      </trkpt>
      <trkpt lat="42.784739518538117" lon="1.555052166804671">
        <ele>630.27999999999997</ele>
        <time>2016-05-28T09:56:18Z</time>
      </trkpt>
      <trkpt lat="42.784666176885366" lon="1.555262049660087">
        <ele>632.67999999999995</ele>
        <time>2016-05-28T09:56:32Z</time>
      </trkpt>
      <trkpt lat="42.784663746133447" lon="1.555449971929193">
        <ele>634.13</ele>
        <time>2016-05-28T09:56:45Z</time>
      </trkpt>
      <trkpt lat="42.784687550738454" lon="1.555602019652724">
        <ele>633.64999999999998</ele>
        <time>2016-05-28T09:57:04Z</time>
      </trkpt>
      <trkpt lat="42.784717138856649" lon="1.555673014372587">
        <ele>635.57000000000005</ele>
        <time>2016-05-28T09:57:19Z</time>
      </trkpt>
      <trkpt lat="42.784750582650304" lon="1.555757839232683">
        <ele>641.82000000000005</ele>
        <time>2016-05-28T09:57:33Z</time>
      </trkpt>
      <trkpt lat="42.784739602357149" lon="1.55595799908042">
        <ele>648.07000000000005</ele>
        <time>2016-05-28T09:57:52Z</time>
      </trkpt>
      <trkpt lat="42.784787965938449" lon="1.556183556094766">
        <ele>649.50999999999999</ele>
        <time>2016-05-28T09:58:09Z</time>
      </trkpt>
      <trkpt lat="42.784766340628266" lon="1.556350020691752">
        <ele>649.50999999999999</ele>
        <time>2016-05-28T09:58:24Z</time>
      </trkpt>
      <trkpt lat="42.784733483567834" lon="1.556443562731147">
        <ele>648.07000000000005</ele>
        <time>2016-05-28T09:58:39Z</time>
      </trkpt>
      <trkpt lat="42.784689981490374" lon="1.556485220789909">
        <ele>653.35000000000002</ele>
        <time>2016-05-28T09:58:57Z</time>
      </trkpt>
      <trkpt lat="42.784775393083692" lon="1.556549090892077">
        <ele>658.15999999999997</ele>
        <time>2016-05-28T09:59:12Z</time>
      </trkpt>
      <trkpt lat="42.784834988415241" lon="1.556720081716776">
        <ele>662.49000000000001</ele>
        <time>2016-05-28T09:59:28Z</time>
      </trkpt>
      <trkpt lat="42.784834234043956" lon="1.55673592351377">
        <ele>662.49000000000001</ele>
        <time>2016-05-28T09:59:29Z</time>
      </trkpt>
      <trkpt lat="42.784819146618247" lon="1.556891575455666">
        <ele>664.88999999999999</ele>
        <time>2016-05-28T09:59:42Z</time>
      </trkpt>
      <trkpt lat="42.784877819940448" lon="1.557115959003568">
        <ele>665.85000000000002</ele>
        <time>2016-05-28T09:59:59Z</time>
      </trkpt>
      <trkpt lat="42.784908330067992" lon="1.557325422763825">
        <ele>664.88999999999999</ele>
        <time>2016-05-28T10:00:14Z</time>
      </trkpt>
      <trkpt lat="42.784920819103718" lon="1.557364566251636">
        <ele>664.88999999999999</ele>
        <time>2016-05-28T10:00:17Z</time>
      </trkpt>
      <trkpt lat="42.784987455233932" lon="1.55755483545363">
        <ele>663.45000000000005</ele>
        <time>2016-05-28T10:00:32Z</time>
      </trkpt>
      <trkpt lat="42.785061215981841" lon="1.557674529030919">
        <ele>662.49000000000001</ele>
        <time>2016-05-28T10:00:47Z</time>
      </trkpt>
      <trkpt lat="42.785148974508047" lon="1.557863708585501">
        <ele>663.92999999999995</ele>
        <time>2016-05-28T10:01:03Z</time>
      </trkpt>
      <trkpt lat="42.785197421908379" lon="1.558061102405191">
        <ele>663.92999999999995</ele>
        <time>2016-05-28T10:01:16Z</time>
      </trkpt>
      <trkpt lat="42.785241510719061" lon="1.55812899582088">
        <ele>663.45000000000005</ele>
        <time>2016-05-28T10:01:22Z</time>
      </trkpt>
      <trkpt lat="42.785363718867302" lon="1.55825262889266">
        <ele>662.49000000000001</ele>
        <time>2016-05-28T10:01:37Z</time>
      </trkpt>
      <trkpt lat="42.785481149330735" lon="1.558353798463941">
        <ele>664.40999999999997</ele>
        <time>2016-05-28T10:01:54Z</time>
      </trkpt>
      <trkpt lat="42.785624396055937" lon="1.558401575312018">
        <ele>664.40999999999997</ele>
        <time>2016-05-28T10:02:13Z</time>
      </trkpt>
      <trkpt lat="42.785709304735065" lon="1.558477515354753">
        <ele>663.45000000000005</ele>
        <time>2016-05-28T10:02:26Z</time>
      </trkpt>
      <trkpt lat="42.785849869251251" lon="1.558509785681963">
        <ele>663.92999999999995</ele>
        <time>2016-05-28T10:02:42Z</time>
      </trkpt>
      <trkpt lat="42.785981632769108" lon="1.558554964140058">
        <ele>665.85000000000002</ele>
        <time>2016-05-28T10:02:56Z</time>
      </trkpt>
      <trkpt lat="42.786110546439886" lon="1.558640040457249">
        <ele>663.45000000000005</ele>
        <time>2016-05-28T10:03:12Z</time>
      </trkpt>
      <trkpt lat="42.786187408491969" lon="1.558705251663923">
        <ele>660.08000000000004</ele>
        <time>2016-05-28T10:03:25Z</time>
      </trkpt>
      <trkpt lat="42.786348424851894" lon="1.558708352968097">
        <ele>660.08000000000004</ele>
        <time>2016-05-28T10:03:40Z</time>
      </trkpt>
      <trkpt lat="42.786433082073927" lon="1.558732576668263">
        <ele>662.00999999999999</ele>
        <time>2016-05-28T10:03:53Z</time>
      </trkpt>
      <trkpt lat="42.786526875570416" lon="1.558796195313335">
        <ele>661.51999999999998</ele>
        <time>2016-05-28T10:04:10Z</time>
      </trkpt>
      <trkpt lat="42.786559816449881" lon="1.558846738189459">
        <ele>662.97000000000003</ele>
        <time>2016-05-28T10:04:26Z</time>
      </trkpt>
      <trkpt lat="42.786544393748045" lon="1.558922342956066">
        <ele>661.03999999999996</ele>
        <time>2016-05-28T10:04:38Z</time>
      </trkpt>
      <trkpt lat="42.786504663527012" lon="1.559043293818831">
        <ele>656.24000000000001</ele>
        <time>2016-05-28T10:04:58Z</time>
      </trkpt>
      <trkpt lat="42.786491420120001" lon="1.559191904962063">
        <ele>652.87</ele>
        <time>2016-05-28T10:05:17Z</time>
      </trkpt>
      <trkpt lat="42.786544393748045" lon="1.559395920485258">
        <ele>653.35000000000002</ele>
        <time>2016-05-28T10:05:33Z</time>
      </trkpt>
      <trkpt lat="42.786550931632519" lon="1.559403967112303">
        <ele>653.35000000000002</ele>
        <time>2016-05-28T10:05:34Z</time>
      </trkpt>
      <trkpt lat="42.78657297603786" lon="1.559483176097274">
        <ele>653.35000000000002</ele>
        <time>2016-05-28T10:05:38Z</time>
      </trkpt>
      <trkpt lat="42.786675989627838" lon="1.559693897143006">
        <ele>649.99000000000001</ele>
        <time>2016-05-28T10:05:51Z</time>
      </trkpt>
      <trkpt lat="42.786725275218487" lon="1.55973949469626">
        <ele>647.10000000000002</ele>
        <time>2016-05-28T10:05:56Z</time>
      </trkpt>
      <trkpt lat="42.78680557385087" lon="1.559910820797086">
        <ele>646.62</ele>
        <time>2016-05-28T10:06:09Z</time>
      </trkpt>
      <trkpt lat="42.786862319335341" lon="1.56007326208055">
        <ele>647.10000000000002</ele>
        <time>2016-05-28T10:06:21Z</time>
      </trkpt>
      <trkpt lat="42.786882184445858" lon="1.560306195169687">
        <ele>645.17999999999995</ele>
        <time>2016-05-28T10:06:37Z</time>
      </trkpt>
      <trkpt lat="42.786948988214135" lon="1.560497470200062">
        <ele>639.88999999999999</ele>
        <time>2016-05-28T10:06:52Z</time>
      </trkpt>
      <trkpt lat="42.786955358460546" lon="1.560561088845134">
        <ele>634.13</ele>
        <time>2016-05-28T10:07:14Z</time>
      </trkpt>
      <trkpt lat="42.786907162517309" lon="1.56057408079505">
        <ele>636.52999999999997</ele>
        <time>2016-05-28T10:07:45Z</time>
      </trkpt>
      <trkpt lat="42.787020234391093" lon="1.560595454648137">
        <ele>638.45000000000005</ele>
        <time>2016-05-28T10:08:01Z</time>
      </trkpt>
      <trkpt lat="42.787136156111956" lon="1.560641136020422">
        <ele>640.38</ele>
        <time>2016-05-28T10:08:12Z</time>
      </trkpt>
      <trkpt lat="42.787220310419798" lon="1.56078714877367">
        <ele>634.61000000000001</ele>
        <time>2016-05-28T10:08:27Z</time>
      </trkpt>
      <trkpt lat="42.787240091711283" lon="1.560881109908223">
        <ele>634.61000000000001</ele>
        <time>2016-05-28T10:08:45Z</time>
      </trkpt>
      <trkpt lat="42.787241348996758" lon="1.560886641964316">
        <ele>634.13</ele>
        <time>2016-05-28T10:08:46Z</time>
      </trkpt>
      <trkpt lat="42.787306476384401" lon="1.560962749645114">
        <ele>634.61000000000001</ele>
        <time>2016-05-28T10:08:57Z</time>
      </trkpt>
      <trkpt lat="42.787447879090905" lon="1.561127621680498">
        <ele>632.67999999999995</ele>
        <time>2016-05-28T10:09:13Z</time>
      </trkpt>
      <trkpt lat="42.787545947358012" lon="1.561292661353946">
        <ele>632.67999999999995</ele>
        <time>2016-05-28T10:09:27Z</time>
      </trkpt>
      <trkpt lat="42.787649296224117" lon="1.56158946454525">
        <ele>638.45000000000005</ele>
        <time>2016-05-28T10:09:45Z</time>
      </trkpt>
      <trkpt lat="42.787800170481205" lon="1.561748720705509">
        <ele>635.57000000000005</ele>
        <time>2016-05-28T10:09:58Z</time>
      </trkpt>
      <trkpt lat="42.787939729169011" lon="1.561856009066105">
        <ele>637.00999999999999</ele>
        <time>2016-05-28T10:10:12Z</time>
      </trkpt>
      <trkpt lat="42.78795775026083" lon="1.561931446194649">
        <ele>637.97000000000003</ele>
        <time>2016-05-28T10:10:17Z</time>
      </trkpt>
      <trkpt lat="42.788000330328941" lon="1.562169827520847">
        <ele>636.04999999999995</ele>
        <time>2016-05-28T10:10:32Z</time>
      </trkpt>
      <trkpt lat="42.788080461323261" lon="1.562310392037034">
        <ele>632.67999999999995</ele>
        <time>2016-05-28T10:10:46Z</time>
      </trkpt>
      <trkpt lat="42.788085993379354" lon="1.562588252127171">
        <ele>634.61000000000001</ele>
        <time>2016-05-28T10:10:59Z</time>
      </trkpt>
      <trkpt lat="42.788087502121925" lon="1.562680117785931">
        <ele>634.13</ele>
        <time>2016-05-28T10:11:05Z</time>
      </trkpt>
      <trkpt lat="42.788145756348968" lon="1.562883043661714">
        <ele>636.52999999999997</ele>
        <time>2016-05-28T10:11:20Z</time>
      </trkpt>
      <trkpt lat="42.788154892623425" lon="1.562893101945519">
        <ele>637.00999999999999</ele>
        <time>2016-05-28T10:11:21Z</time>
      </trkpt>
      <trkpt lat="42.78819378465414" lon="1.563046323135495">
        <ele>636.04999999999995</ele>
        <time>2016-05-28T10:11:33Z</time>
      </trkpt>
      <trkpt lat="42.788261258974671" lon="1.563298786059022">
        <ele>634.61000000000001</ele>
        <time>2016-05-28T10:11:50Z</time>
      </trkpt>
      <trkpt lat="42.788283806294203" lon="1.563439350575209">
        <ele>634.13</ele>
        <time>2016-05-28T10:12:05Z</time>
      </trkpt>
      <trkpt lat="42.788345161825418" lon="1.563633307814598">
        <ele>630.27999999999997</ele>
        <time>2016-05-28T10:12:22Z</time>
      </trkpt>
      <trkpt lat="42.788375839591026" lon="1.5637765545398">
        <ele>628.36000000000001</ele>
        <time>2016-05-28T10:12:34Z</time>
      </trkpt>
      <trkpt lat="42.788406936451793" lon="1.563957268372178">
        <ele>630.27999999999997</ele>
        <time>2016-05-28T10:12:48Z</time>
      </trkpt>
      <trkpt lat="42.788555463775992" lon="1.56412105076015">
        <ele>629.32000000000005</ele>
        <time>2016-05-28T10:13:04Z</time>
      </trkpt>
      <trkpt lat="42.788579687476158" lon="1.564148794859648">
        <ele>629.79999999999995</ele>
        <time>2016-05-28T10:13:06Z</time>
      </trkpt>
      <trkpt lat="42.788663255050778" lon="1.564314588904381">
        <ele>634.13</ele>
        <time>2016-05-28T10:13:23Z</time>
      </trkpt>
      <trkpt lat="42.788762245327234" lon="1.56456814147532">
        <ele>636.52999999999997</ele>
        <time>2016-05-28T10:13:37Z</time>
      </trkpt>
      <trkpt lat="42.788809016346931" lon="1.564733516424894">
        <ele>635.09000000000003</ele>
        <time>2016-05-28T10:13:49Z</time>
      </trkpt>
      <trkpt lat="42.788930386304855" lon="1.564804846420884">
        <ele>630.27999999999997</ele>
        <time>2016-05-28T10:14:02Z</time>
      </trkpt>
      <trkpt lat="42.789011690765619" lon="1.564837116748095">
        <ele>627.39999999999998</ele>
        <time>2016-05-28T10:14:10Z</time>
      </trkpt>
      <trkpt lat="42.789134234189987" lon="1.564998971298337">
        <ele>632.20000000000005</ele>
        <time>2016-05-28T10:14:27Z</time>
      </trkpt>
      <trkpt lat="42.789265746250749" lon="1.565095530822873">
        <ele>630.27999999999997</ele>
        <time>2016-05-28T10:14:42Z</time>
      </trkpt>
      <trkpt lat="42.789308913052082" lon="1.565259732306004">
        <ele>627.39999999999998</ele>
        <time>2016-05-28T10:14:59Z</time>
      </trkpt>
      <trkpt lat="42.789370687678456" lon="1.565514709800482">
        <ele>621.14999999999998</ele>
        <time>2016-05-28T10:15:15Z</time>
      </trkpt>
      <trkpt lat="42.789420560002327" lon="1.565640941262245">
        <ele>613.46000000000004</ele>
        <time>2016-05-28T10:15:31Z</time>
      </trkpt>
      <trkpt lat="42.789457524195313" lon="1.565849147737026">
        <ele>609.61000000000001</ele>
        <time>2016-05-28T10:15:48Z</time>
      </trkpt>
      <trkpt lat="42.789459032937884" lon="1.565921399742365">
        <ele>610.09000000000003</ele>
        <time>2016-05-28T10:15:55Z</time>
      </trkpt>
      <trkpt lat="42.789482837542892" lon="1.56603254377842">
        <ele>611.05999999999995</ele>
        <time>2016-05-28T10:16:02Z</time>
      </trkpt>
      <trkpt lat="42.789510162547231" lon="1.566115440800786">
        <ele>609.61000000000001</ele>
        <time>2016-05-28T10:16:09Z</time>
      </trkpt>
      <trkpt lat="42.789587611332536" lon="1.566337058320642">
        <ele>606.73000000000002</ele>
        <time>2016-05-28T10:16:26Z</time>
      </trkpt>
      <trkpt lat="42.789623569697142" lon="1.566456416621804">
        <ele>607.69000000000005</ele>
        <time>2016-05-28T10:16:33Z</time>
      </trkpt>
      <trkpt lat="42.789684422314167" lon="1.566688846796751">
        <ele>612.98000000000002</ele>
        <time>2016-05-28T10:16:46Z</time>
      </trkpt>
      <trkpt lat="42.789713926613331" lon="1.566843157634139">
        <ele>619.23000000000002</ele>
        <time>2016-05-28T10:16:58Z</time>
      </trkpt>
      <trkpt lat="42.789787603542209" lon="1.566938711330295">
        <ele>624.50999999999999</ele>
        <time>2016-05-28T10:17:10Z</time>
      </trkpt>
      <trkpt lat="42.789799841120839" lon="1.567083634436131">
        <ele>628.84000000000003</ele>
        <time>2016-05-28T10:17:19Z</time>
      </trkpt>
      <trkpt lat="42.789871171116829" lon="1.567175080999732">
        <ele>623.07000000000005</ele>
        <time>2016-05-28T10:17:32Z</time>
      </trkpt>
      <trkpt lat="42.78990687802434" lon="1.567298378795385">
        <ele>623.54999999999995</ele>
        <time>2016-05-28T10:17:43Z</time>
      </trkpt>
      <trkpt lat="42.789922803640366" lon="1.567377084866166">
        <ele>623.07000000000005</ele>
        <time>2016-05-28T10:17:49Z</time>
      </trkpt>
      <trkpt lat="42.789945267140865" lon="1.567459898069501">
        <ele>620.66999999999996</ele>
        <time>2016-05-28T10:17:58Z</time>
      </trkpt>
      <trkpt lat="42.789976699277759" lon="1.567663829773665">
        <ele>615.38</ele>
        <time>2016-05-28T10:18:13Z</time>
      </trkpt>
      <trkpt lat="42.790016429498792" lon="1.567861391231418">
        <ele>611.53999999999996</ele>
        <time>2016-05-28T10:18:31Z</time>
      </trkpt>
      <trkpt lat="42.790066637098789" lon="1.568033639341593">
        <ele>609.61000000000001</ele>
        <time>2016-05-28T10:18:45Z</time>
      </trkpt>
      <trkpt lat="42.790120868012309" lon="1.568162720650435">
        <ele>608.64999999999998</ele>
        <time>2016-05-28T10:18:57Z</time>
      </trkpt>
      <trkpt lat="42.790151964873075" lon="1.568285599350929">
        <ele>608.16999999999996</ele>
        <time>2016-05-28T10:19:12Z</time>
      </trkpt>
      <trkpt lat="42.790224552154541" lon="1.568478886038065">
        <ele>603.36000000000001</ele>
        <time>2016-05-28T10:19:25Z</time>
      </trkpt>
      <trkpt lat="42.790234358981252" lon="1.568503361195326">
        <ele>601.91999999999996</ele>
        <time>2016-05-28T10:19:27Z</time>
      </trkpt>
      <trkpt lat="42.790247602388263" lon="1.568727241829038">
        <ele>600.48000000000002</ele>
        <time>2016-05-28T10:19:43Z</time>
      </trkpt>
      <trkpt lat="42.790248021483421" lon="1.568766050040722">
        <ele>600.96000000000004</ele>
        <time>2016-05-28T10:19:46Z</time>
      </trkpt>
      <trkpt lat="42.790282722562551" lon="1.568934107199311">
        <ele>600.96000000000004</ele>
        <time>2016-05-28T10:20:00Z</time>
      </trkpt>
      <trkpt lat="42.790297977626324" lon="1.56916075386107">
        <ele>601.44000000000005</ele>
        <time>2016-05-28T10:20:15Z</time>
      </trkpt>
      <trkpt lat="42.790267802774906" lon="1.569269131869078">
        <ele>602.88</ele>
        <time>2016-05-28T10:20:24Z</time>
      </trkpt>
      <trkpt lat="42.790227821096778" lon="1.569531066343188">
        <ele>603.36000000000001</ele>
        <time>2016-05-28T10:20:40Z</time>
      </trkpt>
      <trkpt lat="42.790206531062722" lon="1.56966500915587">
        <ele>604.33000000000004</ele>
        <time>2016-05-28T10:20:48Z</time>
      </trkpt>
      <trkpt lat="42.790217427536845" lon="1.569902133196592">
        <ele>602.88</ele>
        <time>2016-05-28T10:21:03Z</time>
      </trkpt>
      <trkpt lat="42.790235029533505" lon="1.570144034922123">
        <ele>600.48000000000002</ele>
        <time>2016-05-28T10:21:18Z</time>
      </trkpt>
      <trkpt lat="42.790219355374575" lon="1.570381913334131">
        <ele>600</ele>
        <time>2016-05-28T10:21:36Z</time>
      </trkpt>
      <trkpt lat="42.790251038968563" lon="1.57060026191175">
        <ele>599.03999999999996</ele>
        <time>2016-05-28T10:21:52Z</time>
      </trkpt>
      <trkpt lat="42.790312562137842" lon="1.570847108960152">
        <ele>596.14999999999998</ele>
        <time>2016-05-28T10:22:06Z</time>
      </trkpt>
      <trkpt lat="42.79035841114819" lon="1.571089681237936">
        <ele>596.14999999999998</ele>
        <time>2016-05-28T10:22:22Z</time>
      </trkpt>
      <trkpt lat="42.790363105013967" lon="1.571170734241605">
        <ele>596.63999999999999</ele>
        <time>2016-05-28T10:22:27Z</time>
      </trkpt>
      <trkpt lat="42.790433513000607" lon="1.571366200223565">
        <ele>595.19000000000005</ele>
        <time>2016-05-28T10:22:38Z</time>
      </trkpt>
      <trkpt lat="42.790558822453022" lon="1.571504166349769">
        <ele>592.30999999999995</ele>
        <time>2016-05-28T10:22:52Z</time>
      </trkpt>
      <trkpt lat="42.790593104436994" lon="1.57160634174943">
        <ele>590.87</ele>
        <time>2016-05-28T10:22:59Z</time>
      </trkpt>
      <trkpt lat="42.790667284280062" lon="1.571816895157099">
        <ele>592.30999999999995</ele>
        <time>2016-05-28T10:23:14Z</time>
      </trkpt>
      <trkpt lat="42.790673486888409" lon="1.572085367515683">
        <ele>595.19000000000005</ele>
        <time>2016-05-28T10:23:26Z</time>
      </trkpt>
      <trkpt lat="42.790793599560857" lon="1.572291562333703">
        <ele>598.08000000000004</ele>
        <time>2016-05-28T10:23:40Z</time>
      </trkpt>
      <trkpt lat="42.790956208482385" lon="1.572427097707987">
        <ele>596.14999999999998</ele>
        <time>2016-05-28T10:23:55Z</time>
      </trkpt>
      <trkpt lat="42.791028879582882" lon="1.572545282542706">
        <ele>594.71000000000004</ele>
        <time>2016-05-28T10:24:03Z</time>
      </trkpt>
      <trkpt lat="42.791154440492392" lon="1.572667742148042">
        <ele>591.35000000000002</ele>
        <time>2016-05-28T10:24:17Z</time>
      </trkpt>
      <trkpt lat="42.791333561763167" lon="1.572874691337347">
        <ele>587.5</ele>
        <time>2016-05-28T10:24:35Z</time>
      </trkpt>
      <trkpt lat="42.791466666385531" lon="1.573029169812799">
        <ele>591.35000000000002</ele>
        <time>2016-05-28T10:24:53Z</time>
      </trkpt>
      <trkpt lat="42.791483262553811" lon="1.573062110692263">
        <ele>591.83000000000004</ele>
        <time>2016-05-28T10:24:56Z</time>
      </trkpt>
      <trkpt lat="42.791545204818249" lon="1.573219355195761">
        <ele>591.35000000000002</ele>
        <time>2016-05-28T10:25:08Z</time>
      </trkpt>
      <trkpt lat="42.79156532138586" lon="1.573273753747344">
        <ele>590.87</ele>
        <time>2016-05-28T10:25:12Z</time>
      </trkpt>
      <trkpt lat="42.791625503450632" lon="1.573353884741664">
        <ele>592.78999999999996</ele>
        <time>2016-05-28T10:25:19Z</time>
      </trkpt>
      <trkpt lat="42.79164687730372" lon="1.573373917490244">
        <ele>592.78999999999996</ele>
        <time>2016-05-28T10:25:22Z</time>
      </trkpt>
      <trkpt lat="42.79168794862926" lon="1.573416329920292">
        <ele>591.35000000000002</ele>
        <time>2016-05-28T10:25:25Z</time>
      </trkpt>
      <trkpt lat="42.791800685226917" lon="1.57365906983614">
        <ele>593.75</ele>
        <time>2016-05-28T10:25:40Z</time>
      </trkpt>
      <trkpt lat="42.791852988302708" lon="1.573811117559671">
        <ele>592.78999999999996</ele>
        <time>2016-05-28T10:25:49Z</time>
      </trkpt>
      <trkpt lat="42.791962372139096" lon="1.573970960453153">
        <ele>589.90999999999997</ele>
        <time>2016-05-28T10:26:04Z</time>
      </trkpt>
      <trkpt lat="42.792016016319394" lon="1.574070286005735">
        <ele>589.42999999999995</ele>
        <time>2016-05-28T10:26:11Z</time>
      </trkpt>
      <trkpt lat="42.792119365185499" lon="1.574293496087194">
        <ele>585.10000000000002</ele>
        <time>2016-05-28T10:26:24Z</time>
      </trkpt>
      <trkpt lat="42.792165298014879" lon="1.574337836354971">
        <ele>584.62</ele>
        <time>2016-05-28T10:26:28Z</time>
      </trkpt>
      <trkpt lat="42.79229479841888" lon="1.574479825794697">
        <ele>584.62</ele>
        <time>2016-05-28T10:26:42Z</time>
      </trkpt>
      <trkpt lat="42.792311729863286" lon="1.57450589351356">
        <ele>585.10000000000002</ele>
        <time>2016-05-28T10:26:44Z</time>
      </trkpt>
      <trkpt lat="42.792378114536405" lon="1.574548557400703">
        <ele>585.10000000000002</ele>
        <time>2016-05-28T10:26:50Z</time>
      </trkpt>
      <trkpt lat="42.792479619383812" lon="1.574683673679829">
        <ele>585.58000000000004</ele>
        <time>2016-05-28T10:27:01Z</time>
      </trkpt>
      <trkpt lat="42.792597468942404" lon="1.574855167418718">
        <ele>587.5</ele>
        <time>2016-05-28T10:27:15Z</time>
      </trkpt>
      <trkpt lat="42.792657064273953" lon="1.574932280927897">
        <ele>587.01999999999998</ele>
        <time>2016-05-28T10:27:24Z</time>
      </trkpt>
      <trkpt lat="42.792749349027872" lon="1.575021129101515">
        <ele>587.5</ele>
        <time>2016-05-28T10:27:33Z</time>
      </trkpt>
      <trkpt lat="42.792845321819186" lon="1.575108636170626">
        <ele>586.05999999999995</ele>
        <time>2016-05-28T10:27:42Z</time>
      </trkpt>
      <trkpt lat="42.79296568594873" lon="1.575243752449751">
        <ele>585.58000000000004</ele>
        <time>2016-05-28T10:27:55Z</time>
      </trkpt>
      <trkpt lat="42.793090408667922" lon="1.575284488499165">
        <ele>585.58000000000004</ele>
        <time>2016-05-28T10:28:07Z</time>
      </trkpt>
      <trkpt lat="42.793214209377766" lon="1.57515381462872">
        <ele>584.13999999999999</ele>
        <time>2016-05-28T10:28:23Z</time>
      </trkpt>
      <trkpt lat="42.793307332322001" lon="1.574990032240748">
        <ele>587.01999999999998</ele>
        <time>2016-05-28T10:28:37Z</time>
      </trkpt>
      <trkpt lat="42.793433563783765" lon="1.574854915961623">
        <ele>593.26999999999998</ele>
        <time>2016-05-28T10:28:56Z</time>
      </trkpt>
      <trkpt lat="42.793463319540024" lon="1.574865896254778">
        <ele>594.71000000000004</ele>
        <time>2016-05-28T10:29:08Z</time>
      </trkpt>
      <trkpt lat="42.793551245704293" lon="1.574933705851436">
        <ele>591.83000000000004</ele>
        <time>2016-05-28T10:29:21Z</time>
      </trkpt>
      <trkpt lat="42.793609583750367" lon="1.575105702504516">
        <ele>589.90999999999997</ele>
        <time>2016-05-28T10:29:38Z</time>
      </trkpt>
      <trkpt lat="42.793649984523654" lon="1.57523050904274">
        <ele>587.98000000000002</ele>
        <time>2016-05-28T10:29:48Z</time>
      </trkpt>
      <trkpt lat="42.793711926788092" lon="1.575389178469777">
        <ele>586.05999999999995</ele>
        <time>2016-05-28T10:29:57Z</time>
      </trkpt>
      <trkpt lat="42.793728522956371" lon="1.575428992509842">
        <ele>585.10000000000002</ele>
        <time>2016-05-28T10:30:00Z</time>
      </trkpt>
      <trkpt lat="42.793743442744017" lon="1.575519265606999">
        <ele>583.65999999999997</ele>
        <time>2016-05-28T10:30:06Z</time>
      </trkpt>
      <trkpt lat="42.793756015598774" lon="1.575543405488133">
        <ele>583.65999999999997</ele>
        <time>2016-05-28T10:30:08Z</time>
      </trkpt>
      <trkpt lat="42.793789207935333" lon="1.575623201206327">
        <ele>583.65999999999997</ele>
        <time>2016-05-28T10:30:14Z</time>
      </trkpt>
      <trkpt lat="42.793844360858202" lon="1.575721353292465">
        <ele>583.17999999999995</ele>
        <time>2016-05-28T10:30:22Z</time>
      </trkpt>
      <trkpt lat="42.793919630348682" lon="1.575921010226011">
        <ele>581.25</ele>
        <time>2016-05-28T10:30:37Z</time>
      </trkpt>
      <trkpt lat="42.79395860619843" lon="1.575959483161569">
        <ele>581.25</ele>
        <time>2016-05-28T10:30:41Z</time>
      </trkpt>
      <trkpt lat="42.794025745242834" lon="1.575999800115824">
        <ele>582.22000000000003</ele>
        <time>2016-05-28T10:30:49Z</time>
      </trkpt>
      <trkpt lat="42.794122556224465" lon="1.576225021854043">
        <ele>579.33000000000004</ele>
        <time>2016-05-28T10:31:06Z</time>
      </trkpt>
      <trkpt lat="42.794230096042156" lon="1.576420236378908">
        <ele>579.33000000000004</ele>
        <time>2016-05-28T10:31:21Z</time>
      </trkpt>
      <trkpt lat="42.794319447129965" lon="1.576565243303776">
        <ele>577.88999999999999</ele>
        <time>2016-05-28T10:31:35Z</time>
      </trkpt>
      <trkpt lat="42.79435976408422" lon="1.576632549986243">
        <ele>577.40999999999997</ele>
        <time>2016-05-28T10:31:47Z</time>
      </trkpt>
      <trkpt lat="42.794398069381714" lon="1.576655600219965">
        <ele>576.45000000000005</ele>
        <time>2016-05-28T10:31:51Z</time>
      </trkpt>
      <trkpt lat="42.794467387720942" lon="1.576811252161861">
        <ele>576.45000000000005</ele>
        <time>2016-05-28T10:32:03Z</time>
      </trkpt>
      <trkpt lat="42.794584315270185" lon="1.577032282948494">
        <ele>579.33000000000004</ele>
        <time>2016-05-28T10:32:19Z</time>
      </trkpt>
      <trkpt lat="42.794686406850815" lon="1.577233364805579">
        <ele>583.65999999999997</ele>
        <time>2016-05-28T10:32:34Z</time>
      </trkpt>
      <trkpt lat="42.794781709089875" lon="1.577408127486706">
        <ele>586.05999999999995</ele>
        <time>2016-05-28T10:32:48Z</time>
      </trkpt>
      <trkpt lat="42.794835772365332" lon="1.577495634555817">
        <ele>586.53999999999996</ele>
        <time>2016-05-28T10:32:56Z</time>
      </trkpt>
      <trkpt lat="42.794869551435113" lon="1.577542573213577">
        <ele>587.01999999999998</ele>
        <time>2016-05-28T10:33:01Z</time>
      </trkpt>
      <trkpt lat="42.794885141775012" lon="1.577649861574173">
        <ele>586.05999999999995</ele>
        <time>2016-05-28T10:33:12Z</time>
      </trkpt>
      <trkpt lat="42.794844824820757" lon="1.5778314974159">
        <ele>586.05999999999995</ele>
        <time>2016-05-28T10:33:29Z</time>
      </trkpt>
      <trkpt lat="42.794867204502225" lon="1.577900564298034">
        <ele>584.62</ele>
        <time>2016-05-28T10:33:40Z</time>
      </trkpt>
      <trkpt lat="42.794938702136278" lon="1.577956471592188">
        <ele>585.58000000000004</ele>
        <time>2016-05-28T10:33:58Z</time>
      </trkpt>
      <trkpt lat="42.794952029362321" lon="1.577966529875994">
        <ele>587.98000000000002</ele>
        <time>2016-05-28T10:34:23Z</time>
      </trkpt>
      <trkpt lat="42.794902995228767" lon="1.577972145751119">
        <ele>590.87</ele>
        <time>2016-05-28T10:34:49Z</time>
      </trkpt>
      <trkpt lat="42.794906767085195" lon="1.578044397756457">
        <ele>592.30999999999995</ele>
        <time>2016-05-28T10:35:06Z</time>
      </trkpt>
      <trkpt lat="42.794876173138618" lon="1.578102400526404">
        <ele>595.19000000000005</ele>
        <time>2016-05-28T10:35:24Z</time>
      </trkpt>
      <trkpt lat="42.794844070449471" lon="1.578045235946775">
        <ele>593.75</ele>
        <time>2016-05-28T10:35:39Z</time>
      </trkpt>
      <trkpt lat="42.794753545895219" lon="1.578002907335758">
        <ele>594.23000000000002</ele>
        <time>2016-05-28T10:36:11Z</time>
      </trkpt>
      <trkpt lat="42.79478925280273" lon="1.577953202649951">
        <ele>594.23000000000002</ele>
        <time>2016-05-28T10:36:19Z</time>
      </trkpt>
      <trkpt lat="42.794930068776011" lon="1.577972061932087">
        <ele>587.98000000000002</ele>
        <time>2016-05-28T10:36:36Z</time>
      </trkpt>
      <trkpt lat="42.794931912794709" lon="1.578025706112385">
        <ele>586.05999999999995</ele>
        <time>2016-05-28T10:37:06Z</time>
      </trkpt>
      <trkpt lat="42.794923614710569" lon="1.578022353351116">
        <ele>586.53999999999996</ele>
        <time>2016-05-28T10:37:31Z</time>
      </trkpt>
      <trkpt lat="42.794922022148967" lon="1.578004164621234">
        <ele>587.5</ele>
        <time>2016-05-28T10:37:57Z</time>
      </trkpt>
      <trkpt lat="42.794921770691872" lon="1.577984467148781">
        <ele>591.35000000000002</ele>
        <time>2016-05-28T10:38:25Z</time>
      </trkpt>
      <trkpt lat="42.794927973300219" lon="1.57799175940454">
        <ele>590.38999999999999</ele>
        <time>2016-05-28T10:38:57Z</time>
      </trkpt>
      <trkpt lat="42.794917328283191" lon="1.578027550131083">
        <ele>590.87</ele>
        <time>2016-05-28T10:39:29Z</time>
      </trkpt>
      <trkpt lat="42.794902073219419" lon="1.578009612858295">
        <ele>589.90999999999997</ele>
        <time>2016-05-28T10:39:57Z</time>
      </trkpt>
      <trkpt lat="42.794894780963659" lon="1.577961416915059">
        <ele>587.5</ele>
        <time>2016-05-28T10:40:17Z</time>
      </trkpt>
      <trkpt lat="42.794947670772672" lon="1.577886398881674">
        <ele>584.62</ele>
        <time>2016-05-28T10:40:43Z</time>
      </trkpt>
      <trkpt lat="42.794893272221088" lon="1.577950101345778">
        <ele>579.33000000000004</ele>
        <time>2016-05-28T10:41:16Z</time>
      </trkpt>
      <trkpt lat="42.794922525063157" lon="1.577991005033255">
        <ele>580.76999999999998</ele>
        <time>2016-05-28T10:41:43Z</time>
      </trkpt>
      <trkpt lat="42.794939707964659" lon="1.578029729425907">
        <ele>581.25</ele>
        <time>2016-05-28T10:42:04Z</time>
      </trkpt>
      <trkpt lat="42.794941049069166" lon="1.57791648991406">
        <ele>584.13999999999999</ele>
        <time>2016-05-28T10:42:31Z</time>
      </trkpt>
      <trkpt lat="42.794910119846463" lon="1.577917160466313">
        <ele>587.98000000000002</ele>
        <time>2016-05-28T10:43:05Z</time>
      </trkpt>
      <trkpt lat="42.795014977455139" lon="1.578011205419898">
        <ele>584.13999999999999</ele>
        <time>2016-05-28T10:43:29Z</time>
      </trkpt>
      <trkpt lat="42.794961165636778" lon="1.577944485470653">
        <ele>590.87</ele>
        <time>2016-05-28T10:43:57Z</time>
      </trkpt>
      <trkpt lat="42.794945659115911" lon="1.57799075357616">
        <ele>590.87</ele>
        <time>2016-05-28T10:44:26Z</time>
      </trkpt>
      <trkpt lat="42.794995196163654" lon="1.577907102182508">
        <ele>583.17999999999995</ele>
        <time>2016-05-28T10:44:53Z</time>
      </trkpt>
      <trkpt lat="42.795043308287859" lon="1.577932583168149">
        <ele>581.73000000000002</ele>
        <time>2016-05-28T10:45:20Z</time>
      </trkpt>
      <trkpt lat="42.794909784570336" lon="1.578038027510047">
        <ele>587.5</ele>
        <time>2016-05-28T10:45:46Z</time>
      </trkpt>
      <trkpt lat="42.794879022985697" lon="1.57797365449369">
        <ele>589.42999999999995</ele>
        <time>2016-05-28T10:46:00Z</time>
      </trkpt>
      <trkpt lat="42.79486938379705" lon="1.577960997819901">
        <ele>590.87</ele>
        <time>2016-05-28T10:46:27Z</time>
      </trkpt>
      <trkpt lat="42.794888410717249" lon="1.577967116609216">
        <ele>589.90999999999997</ele>
        <time>2016-05-28T10:46:48Z</time>
      </trkpt>
      <trkpt lat="42.79488455504179" lon="1.578019922599196">
        <ele>588.95000000000005</ele>
        <time>2016-05-28T10:47:04Z</time>
      </trkpt>
      <trkpt lat="42.794880447909236" lon="1.577963763847947">
        <ele>590.87</ele>
        <time>2016-05-28T10:47:24Z</time>
      </trkpt>
      <trkpt lat="42.794876005500555" lon="1.577975917607546">
        <ele>592.30999999999995</ele>
        <time>2016-05-28T10:47:52Z</time>
      </trkpt>
      <trkpt lat="42.794888662174344" lon="1.578029897063971">
        <ele>590.87</ele>
        <time>2016-05-28T10:48:04Z</time>
      </trkpt>
      <trkpt lat="42.794921854510903" lon="1.577989915385842">
        <ele>590.38999999999999</ele>
        <time>2016-05-28T10:48:20Z</time>
      </trkpt>
      <trkpt lat="42.795009696856141" lon="1.577960830181837">
        <ele>589.90999999999997</ele>
        <time>2016-05-28T10:48:33Z</time>
      </trkpt>
      <trkpt lat="42.795035848394036" lon="1.57790282741189">
        <ele>587.5</ele>
        <time>2016-05-28T10:48:48Z</time>
      </trkpt>
      <trkpt lat="42.795022688806057" lon="1.577931912615895">
        <ele>587.01999999999998</ele>
        <time>2016-05-28T10:48:50Z</time>
      </trkpt>
      <trkpt lat="42.795041799545288" lon="1.578047499060631">
        <ele>588.46000000000004</ele>
        <time>2016-05-28T10:49:04Z</time>
      </trkpt>
      <trkpt lat="42.795045655220747" lon="1.578082870692015">
        <ele>588.95000000000005</ele>
        <time>2016-05-28T10:49:18Z</time>
      </trkpt>
      <trkpt lat="42.795123606920242" lon="1.578155374154449">
        <ele>587.98000000000002</ele>
        <time>2016-05-28T10:49:31Z</time>
      </trkpt>
      <trkpt lat="42.795118913054466" lon="1.578181106597185">
        <ele>588.95000000000005</ele>
        <time>2016-05-28T10:49:47Z</time>
      </trkpt>
      <trkpt lat="42.795118410140276" lon="1.578323179855943">
        <ele>585.10000000000002</ele>
        <time>2016-05-28T10:50:04Z</time>
      </trkpt>
      <trkpt lat="42.79515378177166" lon="1.578373638913035">
        <ele>585.58000000000004</ele>
        <time>2016-05-28T10:50:20Z</time>
      </trkpt>
      <trkpt lat="42.79516308568418" lon="1.578438179567456">
        <ele>583.17999999999995</ele>
        <time>2016-05-28T10:50:24Z</time>
      </trkpt>
      <trkpt lat="42.795132994651794" lon="1.578512275591493">
        <ele>581.25</ele>
        <time>2016-05-28T10:50:29Z</time>
      </trkpt>
      <trkpt lat="42.795035429298878" lon="1.578584695234895">
        <ele>578.37</ele>
        <time>2016-05-28T10:50:45Z</time>
      </trkpt>
      <trkpt lat="42.795072393491864" lon="1.578576983883977">
        <ele>578.85000000000002</ele>
        <time>2016-05-28T10:51:03Z</time>
      </trkpt>
      <trkpt lat="42.795076919719577" lon="1.57851655036211">
        <ele>579.33000000000004</ele>
        <time>2016-05-28T10:51:19Z</time>
      </trkpt>
      <trkpt lat="42.795100305229425" lon="1.578532140702009">
        <ele>578.85000000000002</ele>
        <time>2016-05-28T10:51:21Z</time>
      </trkpt>
      <trkpt lat="42.795148249715567" lon="1.578583354130387">
        <ele>578.37</ele>
        <time>2016-05-28T10:51:27Z</time>
      </trkpt>
      <trkpt lat="42.795172305777669" lon="1.578587964177132">
        <ele>578.85000000000002</ele>
        <time>2016-05-28T10:51:29Z</time>
      </trkpt>
      <trkpt lat="42.795247491449118" lon="1.57864797860384">
        <ele>579.33000000000004</ele>
        <time>2016-05-28T10:51:44Z</time>
      </trkpt>
      <trkpt lat="42.795260567218065" lon="1.578639093786478">
        <ele>580.76999999999998</ele>
        <time>2016-05-28T10:51:58Z</time>
      </trkpt>
      <trkpt lat="42.795294094830751" lon="1.578700700774789">
        <ele>580.28999999999996</ele>
        <time>2016-05-28T10:52:02Z</time>
      </trkpt>
      <trkpt lat="42.795423176139593" lon="1.578817963600159">
        <ele>580.76999999999998</ele>
        <time>2016-05-28T10:52:17Z</time>
      </trkpt>
      <trkpt lat="42.795461229979992" lon="1.5788693446666">
        <ele>581.25</ele>
        <time>2016-05-28T10:52:23Z</time>
      </trkpt>
      <trkpt lat="42.795638926327229" lon="1.5789660718292">
        <ele>582.22000000000003</ele>
        <time>2016-05-28T10:52:39Z</time>
      </trkpt>
      <trkpt lat="42.795683434233069" lon="1.578991133719683">
        <ele>582.22000000000003</ele>
        <time>2016-05-28T10:52:43Z</time>
      </trkpt>
      <trkpt lat="42.795835649594665" lon="1.579202525317669">
        <ele>580.76999999999998</ele>
        <time>2016-05-28T10:53:00Z</time>
      </trkpt>
      <trkpt lat="42.795940171927214" lon="1.579361194744706">
        <ele>579.80999999999995</ele>
        <time>2016-05-28T10:53:13Z</time>
      </trkpt>
      <trkpt lat="42.795958109200001" lon="1.579400673508644">
        <ele>580.28999999999996</ele>
        <time>2016-05-28T10:53:16Z</time>
      </trkpt>
      <trkpt lat="42.796041509136558" lon="1.579661434516311">
        <ele>581.25</ele>
        <time>2016-05-28T10:53:32Z</time>
      </trkpt>
      <trkpt lat="42.796115102246404" lon="1.579775847494602">
        <ele>582.22000000000003</ele>
        <time>2016-05-28T10:53:41Z</time>
      </trkpt>
      <trkpt lat="42.796222306787968" lon="1.580005679279566">
        <ele>582.70000000000005</ele>
        <time>2016-05-28T10:53:57Z</time>
      </trkpt>
      <trkpt lat="42.796280728653073" lon="1.580272056162357">
        <ele>582.70000000000005</ele>
        <time>2016-05-28T10:54:12Z</time>
      </trkpt>
      <trkpt lat="42.796327164396644" lon="1.580477748066187">
        <ele>582.70000000000005</ele>
        <time>2016-05-28T10:54:25Z</time>
      </trkpt>
      <trkpt lat="42.796377288177609" lon="1.5805634111166">
        <ele>582.22000000000003</ele>
        <time>2016-05-28T10:54:32Z</time>
      </trkpt>
      <trkpt lat="42.79643839225173" lon="1.580829452723265">
        <ele>582.70000000000005</ele>
        <time>2016-05-28T10:54:47Z</time>
      </trkpt>
      <trkpt lat="42.79652732424438" lon="1.581035647541285">
        <ele>583.65999999999997</ele>
        <time>2016-05-28T10:55:03Z</time>
      </trkpt>
      <trkpt lat="42.79657669365406" lon="1.581260953098536">
        <ele>584.62</ele>
        <time>2016-05-28T10:55:19Z</time>
      </trkpt>
      <trkpt lat="42.79664458706975" lon="1.581507464870811">
        <ele>585.10000000000002</ele>
        <time>2016-05-28T10:55:34Z</time>
      </trkpt>
      <trkpt lat="42.796690436080098" lon="1.581584913656116">
        <ele>586.53999999999996</ele>
        <time>2016-05-28T10:55:40Z</time>
      </trkpt>
      <trkpt lat="42.796803088858724" lon="1.581823043525219">
        <ele>589.42999999999995</ele>
        <time>2016-05-28T10:55:56Z</time>
      </trkpt>
      <trkpt lat="42.796928817406297" lon="1.581962518393993">
        <ele>584.62</ele>
        <time>2016-05-28T10:56:12Z</time>
      </trkpt>
      <trkpt lat="42.79699687846005" lon="1.58205614425242">
        <ele>583.65999999999997</ele>
        <time>2016-05-28T10:56:25Z</time>
      </trkpt>
      <trkpt lat="42.797102238982916" lon="1.582263177260757">
        <ele>579.80999999999995</ele>
        <time>2016-05-28T10:56:41Z</time>
      </trkpt>
      <trkpt lat="42.797223692759871" lon="1.582502145320177">
        <ele>579.80999999999995</ele>
        <time>2016-05-28T10:56:57Z</time>
      </trkpt>
      <trkpt lat="42.797309271991253" lon="1.582703813910484">
        <ele>578.85000000000002</ele>
        <time>2016-05-28T10:57:12Z</time>
      </trkpt>
      <trkpt lat="42.797410860657692" lon="1.582943284884095">
        <ele>578.85000000000002</ele>
        <time>2016-05-28T10:57:28Z</time>
      </trkpt>
      <trkpt lat="42.797475988045335" lon="1.583087788894773">
        <ele>576.92999999999995</ele>
        <time>2016-05-28T10:57:38Z</time>
      </trkpt>
      <trkpt lat="42.79748696833849" lon="1.583074377849698">
        <ele>577.40999999999997</ele>
        <time>2016-05-28T10:57:54Z</time>
      </trkpt>
      <trkpt lat="42.797492668032646" lon="1.583093656226993">
        <ele>576.45000000000005</ele>
        <time>2016-05-28T10:58:22Z</time>
      </trkpt>
      <trkpt lat="42.79747867025435" lon="1.583119556307793">
        <ele>579.80999999999995</ele>
        <time>2016-05-28T10:58:53Z</time>
      </trkpt>
      <trkpt lat="42.797471126541495" lon="1.583145288750529">
        <ele>582.22000000000003</ele>
        <time>2016-05-28T10:59:16Z</time>
      </trkpt>
      <trkpt lat="42.797494009137154" lon="1.583157861605287">
        <ele>589.42999999999995</ele>
        <time>2016-05-28T10:59:48Z</time>
      </trkpt>
      <trkpt lat="42.797689810395241" lon="1.582967089489102">
        <ele>588.95000000000005</ele>
        <time>2016-05-28T11:00:07Z</time>
      </trkpt>
      <trkpt lat="42.797719063237309" lon="1.582890897989273">
        <ele>591.83000000000004</ele>
        <time>2016-05-28T11:00:28Z</time>
      </trkpt>
      <trkpt lat="42.797748316079378" lon="1.582886455580592">
        <ele>590.87</ele>
        <time>2016-05-28T11:00:49Z</time>
      </trkpt>
      <trkpt lat="42.797850407660007" lon="1.583076221868396">
        <ele>586.53999999999996</ele>
        <time>2016-05-28T11:00:59Z</time>
      </trkpt>
      <trkpt lat="42.798045203089714" lon="1.583360871300101">
        <ele>580.76999999999998</ele>
        <time>2016-05-28T11:01:18Z</time>
      </trkpt>
      <trkpt lat="42.798243267461658" lon="1.583458269014955">
        <ele>581.25</ele>
        <time>2016-05-28T11:01:34Z</time>
      </trkpt>
      <trkpt lat="42.798261288553476" lon="1.58347025513649">
        <ele>580.76999999999998</ele>
        <time>2016-05-28T11:01:36Z</time>
      </trkpt>
      <trkpt lat="42.798371762037277" lon="1.583622889593244">
        <ele>576.92999999999995</ele>
        <time>2016-05-28T11:01:48Z</time>
      </trkpt>
      <trkpt lat="42.79854929074645" lon="1.583736212924123">
        <ele>576.45000000000005</ele>
        <time>2016-05-28T11:02:03Z</time>
      </trkpt>
      <trkpt lat="42.798560606315732" lon="1.583735458552837">
        <ele>576.92999999999995</ele>
        <time>2016-05-28T11:02:04Z</time>
      </trkpt>
      <trkpt lat="42.798780044540763" lon="1.583795389160514">
        <ele>577.40999999999997</ele>
        <time>2016-05-28T11:02:23Z</time>
      </trkpt>
      <trkpt lat="42.799071231856942" lon="1.583897648379207">
        <ele>576.45000000000005</ele>
        <time>2016-05-28T11:02:43Z</time>
      </trkpt>
      <trkpt lat="42.799314223229885" lon="1.584063107147813">
        <ele>571.15999999999997</ele>
        <time>2016-05-28T11:03:03Z</time>
      </trkpt>
      <trkpt lat="42.79947473667562" lon="1.584254885092378">
        <ele>566.83000000000004</ele>
        <time>2016-05-28T11:03:20Z</time>
      </trkpt>
      <trkpt lat="42.799601471051574" lon="1.584452446550131">
        <ele>562.99000000000001</ele>
        <time>2016-05-28T11:03:37Z</time>
      </trkpt>
      <trkpt lat="42.799728792160749" lon="1.584667777642608">
        <ele>561.54999999999995</ele>
        <time>2016-05-28T11:03:53Z</time>
      </trkpt>
      <trkpt lat="42.799860555678606" lon="1.584837595000863">
        <ele>561.54999999999995</ele>
        <time>2016-05-28T11:04:09Z</time>
      </trkpt>
      <trkpt lat="42.799993073567748" lon="1.585069354623556">
        <ele>561.07000000000005</ele>
        <time>2016-05-28T11:04:27Z</time>
      </trkpt>
      <trkpt lat="42.800012435764074" lon="1.58509885892272">
        <ele>560.11000000000001</ele>
        <time>2016-05-28T11:04:29Z</time>
      </trkpt>
      <trkpt lat="42.800155011937022" lon="1.585353082045913">
        <ele>559.13999999999999</ele>
        <time>2016-05-28T11:04:48Z</time>
      </trkpt>
      <trkpt lat="42.800265988335013" lon="1.585569502785802">
        <ele>559.13999999999999</ele>
        <time>2016-05-28T11:05:05Z</time>
      </trkpt>
      <trkpt lat="42.800373360514641" lon="1.585807967931032">
        <ele>560.59000000000003</ele>
        <time>2016-05-28T11:05:20Z</time>
      </trkpt>
      <trkpt lat="42.800506632775068" lon="1.585922632366419">
        <ele>563.95000000000005</ele>
        <time>2016-05-28T11:05:36Z</time>
      </trkpt>
      <trkpt lat="42.800638983026147" lon="1.586044421419501">
        <ele>569.24000000000001</ele>
        <time>2016-05-28T11:05:53Z</time>
      </trkpt>
      <trkpt lat="42.800763873383403" lon="1.58610887825489">
        <ele>573.08000000000004</ele>
        <time>2016-05-28T11:06:11Z</time>
      </trkpt>
      <trkpt lat="42.800916591659188" lon="1.586190098896623">
        <ele>575.97000000000003</ele>
        <time>2016-05-28T11:06:27Z</time>
      </trkpt>
      <trkpt lat="42.801036788150668" lon="1.586317336186767">
        <ele>576.45000000000005</ele>
        <time>2016-05-28T11:06:42Z</time>
      </trkpt>
      <trkpt lat="42.801163606345654" lon="1.586518166586757">
        <ele>573.55999999999995</ele>
        <time>2016-05-28T11:06:57Z</time>
      </trkpt>
      <trkpt lat="42.801191853359342" lon="1.586530739441514">
        <ele>573.08000000000004</ele>
        <time>2016-05-28T11:07:00Z</time>
      </trkpt>
      <trkpt lat="42.80128707177937" lon="1.586622102186084">
        <ele>570.67999999999995</ele>
        <time>2016-05-28T11:07:10Z</time>
      </trkpt>
      <trkpt lat="42.801391091197729" lon="1.586809270083904">
        <ele>569.72000000000003</ele>
        <time>2016-05-28T11:07:27Z</time>
      </trkpt>
      <trkpt lat="42.801484717056155" lon="1.587057877331972">
        <ele>570.67999999999995</ele>
        <time>2016-05-28T11:07:41Z</time>
      </trkpt>
      <trkpt lat="42.801531236618757" lon="1.587190311402082">
        <ele>568.75999999999999</ele>
        <time>2016-05-28T11:07:47Z</time>
      </trkpt>
      <trkpt lat="42.801676830276847" lon="1.587252002209425">
        <ele>567.79999999999995</ele>
        <time>2016-05-28T11:08:03Z</time>
      </trkpt>
      <trkpt lat="42.801840612664819" lon="1.587317464873195">
        <ele>568.27999999999997</ele>
        <time>2016-05-28T11:08:21Z</time>
      </trkpt>
      <trkpt lat="42.801994672045112" lon="1.58735878765583">
        <ele>569.72000000000003</ele>
        <time>2016-05-28T11:08:39Z</time>
      </trkpt>
      <trkpt lat="42.802185192704201" lon="1.587404133751988">
        <ele>569.72000000000003</ele>
        <time>2016-05-28T11:08:57Z</time>
      </trkpt>
      <trkpt lat="42.802385268732905" lon="1.587492479011416">
        <ele>569.24000000000001</ele>
        <time>2016-05-28T11:09:15Z</time>
      </trkpt>
      <trkpt lat="42.802503956481814" lon="1.587550984695554">
        <ele>569.24000000000001</ele>
        <time>2016-05-28T11:09:26Z</time>
      </trkpt>
      <trkpt lat="42.802695566788316" lon="1.587531790137291">
        <ele>569.24000000000001</ele>
        <time>2016-05-28T11:09:45Z</time>
      </trkpt>
      <trkpt lat="42.802816769108176" lon="1.587516451254487">
        <ele>569.72000000000003</ele>
        <time>2016-05-28T11:09:59Z</time>
      </trkpt>
      <trkpt lat="42.802955154329538" lon="1.587558444589376">
        <ele>569.72000000000003</ele>
        <time>2016-05-28T11:10:13Z</time>
      </trkpt>
      <trkpt lat="42.803117176517844" lon="1.587600689381361">
        <ele>572.60000000000002</ele>
        <time>2016-05-28T11:10:30Z</time>
      </trkpt>
      <trkpt lat="42.803248437121511" lon="1.587654417380691">
        <ele>576.45000000000005</ele>
        <time>2016-05-28T11:10:45Z</time>
      </trkpt>
      <trkpt lat="42.803378188982606" lon="1.58767688088119">
        <ele>577.40999999999997</ele>
        <time>2016-05-28T11:11:03Z</time>
      </trkpt>
      <trkpt lat="42.80356653034687" lon="1.58770177513361">
        <ele>577.40999999999997</ele>
        <time>2016-05-28T11:11:20Z</time>
      </trkpt>
      <trkpt lat="42.803784040734172" lon="1.587678389623761">
        <ele>575.49000000000001</ele>
        <time>2016-05-28T11:11:36Z</time>
      </trkpt>
      <trkpt lat="42.804012363776565" lon="1.587644191458821">
        <ele>576.92999999999995</ele>
        <time>2016-05-28T11:11:54Z</time>
      </trkpt>
      <trkpt lat="42.804234903305769" lon="1.587668331339955">
        <ele>579.80999999999995</ele>
        <time>2016-05-28T11:12:13Z</time>
      </trkpt>
      <trkpt lat="42.804489629343152" lon="1.587821803987026">
        <ele>577.40999999999997</ele>
        <time>2016-05-28T11:12:30Z</time>
      </trkpt>
      <trkpt lat="42.804510081186891" lon="1.587829012423754">
        <ele>577.40999999999997</ele>
        <time>2016-05-28T11:12:32Z</time>
      </trkpt>
      <trkpt lat="42.804712001234293" lon="1.587825575843453">
        <ele>574.52999999999997</ele>
        <time>2016-05-28T11:12:48Z</time>
      </trkpt>
      <trkpt lat="42.804893804714084" lon="1.587766986340284">
        <ele>575.49000000000001</ele>
        <time>2016-05-28T11:13:04Z</time>
      </trkpt>
      <trkpt lat="42.805087007582188" lon="1.587738487869501">
        <ele>574.52999999999997</ele>
        <time>2016-05-28T11:13:21Z</time>
      </trkpt>
      <trkpt lat="42.805240815505385" lon="1.587750054895878">
        <ele>576.45000000000005</ele>
        <time>2016-05-28T11:13:37Z</time>
      </trkpt>
      <trkpt lat="42.805442316457629" lon="1.58774871379137">
        <ele>574.52999999999997</ele>
        <time>2016-05-28T11:13:53Z</time>
      </trkpt>
      <trkpt lat="42.805657899007201" lon="1.587755167856813">
        <ele>573.55999999999995</ele>
        <time>2016-05-28T11:14:12Z</time>
      </trkpt>
      <trkpt lat="42.805821346119046" lon="1.587765896692872">
        <ele>575.49000000000001</ele>
        <time>2016-05-28T11:14:26Z</time>
      </trkpt>
      <trkpt lat="42.806026199832559" lon="1.587774697691202">
        <ele>574.52999999999997</ele>
        <time>2016-05-28T11:14:42Z</time>
      </trkpt>
      <trkpt lat="42.806203225627542" lon="1.587850302457809">
        <ele>569.72000000000003</ele>
        <time>2016-05-28T11:14:58Z</time>
      </trkpt>
      <trkpt lat="42.806339515373111" lon="1.587973264977336">
        <ele>570.67999999999995</ele>
        <time>2016-05-28T11:15:14Z</time>
      </trkpt>
      <trkpt lat="42.806392908096313" lon="1.587988855317235">
        <ele>570.20000000000005</ele>
        <time>2016-05-28T11:15:18Z</time>
      </trkpt>
      <trkpt lat="42.806585356593132" lon="1.588042583316565">
        <ele>570.20000000000005</ele>
        <time>2016-05-28T11:15:32Z</time>
      </trkpt>
      <trkpt lat="42.806631624698639" lon="1.588050713762641">
        <ele>569.24000000000001</ele>
        <time>2016-05-28T11:15:36Z</time>
      </trkpt>
      <trkpt lat="42.806824492290616" lon="1.588117266073823">
        <ele>569.24000000000001</ele>
        <time>2016-05-28T11:15:52Z</time>
      </trkpt>
      <trkpt lat="42.806891798973083" lon="1.588148698210716">
        <ele>568.75999999999999</ele>
        <time>2016-05-28T11:15:58Z</time>
      </trkpt>
      <trkpt lat="42.807018617168069" lon="1.588142914697528">
        <ele>567.79999999999995</ele>
        <time>2016-05-28T11:16:09Z</time>
      </trkpt>
      <trkpt lat="42.807207712903619" lon="1.588135035708547">
        <ele>565.87</ele>
        <time>2016-05-28T11:16:24Z</time>
      </trkpt>
      <trkpt lat="42.807373674586415" lon="1.588137969374657">
        <ele>564.90999999999997</ele>
        <time>2016-05-28T11:16:37Z</time>
      </trkpt>
      <trkpt lat="42.807497307658195" lon="1.588149452582002">
        <ele>563.95000000000005</ele>
        <time>2016-05-28T11:16:49Z</time>
      </trkpt>
      <trkpt lat="42.807542402297258" lon="1.588127240538597">
        <ele>563.95000000000005</ele>
        <time>2016-05-28T11:16:53Z</time>
      </trkpt>
      <trkpt lat="42.807727390900254" lon="1.588101927191019">
        <ele>562.99000000000001</ele>
        <time>2016-05-28T11:17:09Z</time>
      </trkpt>
      <trkpt lat="42.807912211865187" lon="1.588058760389686">
        <ele>562.99000000000001</ele>
        <time>2016-05-28T11:17:24Z</time>
      </trkpt>
      <trkpt lat="42.808132488280535" lon="1.588010648265481">
        <ele>563.47000000000003</ele>
        <time>2016-05-28T11:17:43Z</time>
      </trkpt>
      <trkpt lat="42.80832133255899" lon="1.587994135916233">
        <ele>562.50999999999999</ele>
        <time>2016-05-28T11:17:58Z</time>
      </trkpt>
      <trkpt lat="42.808517469093204" lon="1.587946191430092">
        <ele>561.54999999999995</ele>
        <time>2016-05-28T11:18:14Z</time>
      </trkpt>
      <trkpt lat="42.808725005015731" lon="1.587924733757973">
        <ele>559.13999999999999</ele>
        <time>2016-05-28T11:18:29Z</time>
      </trkpt>
      <trkpt lat="42.808838998898864" lon="1.58793780952692">
        <ele>558.65999999999997</ele>
        <time>2016-05-28T11:18:39Z</time>
      </trkpt>
      <trkpt lat="42.809035638347268" lon="1.588027579709888">
        <ele>557.22000000000003</ele>
        <time>2016-05-28T11:18:54Z</time>
      </trkpt>
      <trkpt lat="42.809256417676806" lon="1.588083738461137">
        <ele>556.25999999999999</ele>
        <time>2016-05-28T11:19:13Z</time>
      </trkpt>
      <trkpt lat="42.809475436806679" lon="1.588218435645104">
        <ele>552.89999999999998</ele>
        <time>2016-05-28T11:19:30Z</time>
      </trkpt>
      <trkpt lat="42.809454733505845" lon="1.588194211944938">
        <ele>550.97000000000003</ele>
        <time>2016-05-28T11:19:46Z</time>
      </trkpt>
      <trkpt lat="42.809521453455091" lon="1.588223213329911">
        <ele>551.45000000000005</ele>
        <time>2016-05-28T11:20:02Z</time>
      </trkpt>
      <trkpt lat="42.809588089585304" lon="1.588245676830411">
        <ele>552.40999999999997</ele>
        <time>2016-05-28T11:20:08Z</time>
      </trkpt>
      <trkpt lat="42.809670399874449" lon="1.588311558589339">
        <ele>550.49000000000001</ele>
        <time>2016-05-28T11:20:22Z</time>
      </trkpt>
      <trkpt lat="42.809668304398656" lon="1.588331172242761">
        <ele>550.49000000000001</ele>
        <time>2016-05-28T11:20:24Z</time>
      </trkpt>
      <trkpt lat="42.809745082631707" lon="1.588363610208035">
        <ele>550.00999999999999</ele>
        <time>2016-05-28T11:20:37Z</time>
      </trkpt>
      <trkpt lat="42.809848599135876" lon="1.588443825021386">
        <ele>550.49000000000001</ele>
        <time>2016-05-28T11:20:48Z</time>
      </trkpt>
      <trkpt lat="42.809961251914501" lon="1.5885915979743">
        <ele>550.00999999999999</ele>
        <time>2016-05-28T11:21:04Z</time>
      </trkpt>
      <trkpt lat="42.810123777016997" lon="1.588712632656097">
        <ele>549.52999999999997</ele>
        <time>2016-05-28T11:21:20Z</time>
      </trkpt>
      <trkpt lat="42.810236345976591" lon="1.588781196624041">
        <ele>550.00999999999999</ele>
        <time>2016-05-28T11:21:33Z</time>
      </trkpt>
      <trkpt lat="42.810426950454712" lon="1.58885445445776">
        <ele>549.52999999999997</ele>
        <time>2016-05-28T11:21:50Z</time>
      </trkpt>
      <trkpt lat="42.81065359711647" lon="1.588960904628038">
        <ele>546.64999999999998</ele>
        <time>2016-05-28T11:22:09Z</time>
      </trkpt>
      <trkpt lat="42.810831880196929" lon="1.588992336764932">
        <ele>546.16999999999996</ele>
        <time>2016-05-28T11:22:25Z</time>
      </trkpt>
      <trkpt lat="42.810910753905773" lon="1.589023601263762">
        <ele>544.72000000000003</ele>
        <time>2016-05-28T11:22:32Z</time>
      </trkpt>
      <trkpt lat="42.81112558208406" lon="1.5890889801085">
        <ele>540.39999999999998</ele>
        <time>2016-05-28T11:22:49Z</time>
      </trkpt>
      <trkpt lat="42.81121551990509" lon="1.589124770835042">
        <ele>539.44000000000005</ele>
        <time>2016-05-28T11:22:56Z</time>
      </trkpt>
      <trkpt lat="42.811456583440304" lon="1.589189479127526">
        <ele>537.99000000000001</ele>
        <time>2016-05-28T11:23:16Z</time>
      </trkpt>
      <trkpt lat="42.811715584248304" lon="1.589279500767589">
        <ele>535.11000000000001</ele>
        <time>2016-05-28T11:23:36Z</time>
      </trkpt>
      <trkpt lat="42.811797810718417" lon="1.589292073622346">
        <ele>534.63</ele>
        <time>2016-05-28T11:23:43Z</time>
      </trkpt>
      <trkpt lat="42.812045160681009" lon="1.589310765266419">
        <ele>536.54999999999995</ele>
        <time>2016-05-28T11:24:02Z</time>
      </trkpt>
      <trkpt lat="42.812219755724072" lon="1.589314956218004">
        <ele>539.44000000000005</ele>
        <time>2016-05-28T11:24:18Z</time>
      </trkpt>
      <trkpt lat="42.81233349815011" lon="1.589340437203646">
        <ele>541.36000000000001</ele>
        <time>2016-05-28T11:24:38Z</time>
      </trkpt>
      <trkpt lat="42.812349256128073" lon="1.589356027543545">
        <ele>541.36000000000001</ele>
        <time>2016-05-28T11:24:58Z</time>
      </trkpt>
      <trkpt lat="42.812412958592176" lon="1.58931914716959">
        <ele>543.27999999999997</ele>
        <time>2016-05-28T11:25:25Z</time>
      </trkpt>
      <trkpt lat="42.812595348805189" lon="1.589348651468754">
        <ele>545.69000000000005</ele>
        <time>2016-05-28T11:25:41Z</time>
      </trkpt>
      <trkpt lat="42.812668774276972" lon="1.589347310364246">
        <ele>547.13</ele>
        <time>2016-05-28T11:25:47Z</time>
      </trkpt>
      <trkpt lat="42.81272828578949" lon="1.589279752224684">
        <ele>548.57000000000005</ele>
        <time>2016-05-28T11:25:54Z</time>
      </trkpt>
      <trkpt lat="42.812703056260943" lon="1.589158968999982">
        <ele>547.13</ele>
        <time>2016-05-28T11:26:08Z</time>
      </trkpt>
      <trkpt lat="42.81271755695343" lon="1.58908948302269">
        <ele>552.40999999999997</ele>
        <time>2016-05-28T11:26:25Z</time>
      </trkpt>
      <trkpt lat="42.812714707106352" lon="1.589066097512841">
        <ele>552.89999999999998</ele>
        <time>2016-05-28T11:26:27Z</time>
      </trkpt>
      <trkpt lat="42.812740774825215" lon="1.58887155354023">
        <ele>550.49000000000001</ele>
        <time>2016-05-28T11:26:38Z</time>
      </trkpt>
      <trkpt lat="42.812795005738735" lon="1.588594196364284">
        <ele>548.57000000000005</ele>
        <time>2016-05-28T11:26:55Z</time>
      </trkpt>
      <trkpt lat="42.812844458967447" lon="1.588456314057112">
        <ele>549.52999999999997</ele>
        <time>2016-05-28T11:27:06Z</time>
      </trkpt>
      <trkpt lat="42.812980832532048" lon="1.588314911350608">
        <ele>553.38</ele>
        <time>2016-05-28T11:27:23Z</time>
      </trkpt>
      <trkpt lat="42.812989298254251" lon="1.588309798389673">
        <ele>553.86000000000001</ele>
        <time>2016-05-28T11:27:24Z</time>
      </trkpt>
      <trkpt lat="42.813066076487303" lon="1.58827199600637">
        <ele>556.25999999999999</ele>
        <time>2016-05-28T11:27:32Z</time>
      </trkpt>
      <trkpt lat="42.813151320442557" lon="1.588225476443768">
        <ele>558.17999999999995</ele>
        <time>2016-05-28T11:27:40Z</time>
      </trkpt>
      <trkpt lat="42.81332147307694" lon="1.588133191689849">
        <ele>559.62</ele>
        <time>2016-05-28T11:27:54Z</time>
      </trkpt>
      <trkpt lat="42.81333664432168" lon="1.588141908869147">
        <ele>559.62</ele>
        <time>2016-05-28T11:27:55Z</time>
      </trkpt>
      <trkpt lat="42.813407890498638" lon="1.588085079565644">
        <ele>560.59000000000003</ele>
        <time>2016-05-28T11:28:10Z</time>
      </trkpt>
      <trkpt lat="42.8135135024786" lon="1.587888272479177">
        <ele>562.02999999999997</ele>
        <time>2016-05-28T11:28:23Z</time>
      </trkpt>
      <trkpt lat="42.813542168587446" lon="1.587890116497874">
        <ele>565.38999999999999</ele>
        <time>2016-05-28T11:28:31Z</time>
      </trkpt>
      <trkpt lat="42.813630513846874" lon="1.587744522839785">
        <ele>567.79999999999995</ele>
        <time>2016-05-28T11:28:44Z</time>
      </trkpt>
      <trkpt lat="42.813845006749034" lon="1.587468758225441">
        <ele>566.35000000000002</ele>
        <time>2016-05-28T11:29:02Z</time>
      </trkpt>
      <trkpt lat="42.813965706154704" lon="1.587302377447486">
        <ele>566.35000000000002</ele>
        <time>2016-05-28T11:29:18Z</time>
      </trkpt>
      <trkpt lat="42.814093697816133" lon="1.587156197056174">
        <ele>569.24000000000001</ele>
        <time>2016-05-28T11:29:33Z</time>
      </trkpt>
      <trkpt lat="42.814184557646513" lon="1.587059302255511">
        <ele>569.72000000000003</ele>
        <time>2016-05-28T11:29:45Z</time>
      </trkpt>
      <trkpt lat="42.814209451898932" lon="1.58701035194099">
        <ele>570.67999999999995</ele>
        <time>2016-05-28T11:29:49Z</time>
      </trkpt>
      <trkpt lat="42.814313555136323" lon="1.586918570101261">
        <ele>568.27999999999997</ele>
        <time>2016-05-28T11:30:04Z</time>
      </trkpt>
      <trkpt lat="42.81443458981812" lon="1.586848078295589">
        <ele>567.32000000000005</ele>
        <time>2016-05-28T11:30:18Z</time>
      </trkpt>
      <trkpt lat="42.814584961161017" lon="1.586845144629479">
        <ele>565.87</ele>
        <time>2016-05-28T11:30:34Z</time>
      </trkpt>
      <trkpt lat="42.814773470163345" lon="1.586857717484236">
        <ele>566.35000000000002</ele>
        <time>2016-05-28T11:30:50Z</time>
      </trkpt>
      <trkpt lat="42.814967595040798" lon="1.586884539574385">
        <ele>568.27999999999997</ele>
        <time>2016-05-28T11:31:06Z</time>
      </trkpt>
      <trkpt lat="42.815141687169671" lon="1.586920497938991">
        <ele>569.24000000000001</ele>
        <time>2016-05-28T11:31:21Z</time>
      </trkpt>
      <trkpt lat="42.815350564196706" lon="1.586940614506602">
        <ele>570.20000000000005</ele>
        <time>2016-05-28T11:31:39Z</time>
      </trkpt>
      <trkpt lat="42.815555753186345" lon="1.586882444098592">
        <ele>571.63999999999999</ele>
        <time>2016-05-28T11:31:55Z</time>
      </trkpt>
      <trkpt lat="42.815710147842765" lon="1.586881270632148">
        <ele>575.97000000000003</ele>
        <time>2016-05-28T11:32:08Z</time>
      </trkpt>
      <trkpt lat="42.815931430086493" lon="1.586876576766372">
        <ele>580.76999999999998</ele>
        <time>2016-05-28T11:32:25Z</time>
      </trkpt>
      <trkpt lat="42.816161094233394" lon="1.586823267862201">
        <ele>580.28999999999996</ele>
        <time>2016-05-28T11:32:41Z</time>
      </trkpt>
      <trkpt lat="42.816313058137894" lon="1.58675872720778">
        <ele>581.73000000000002</ele>
        <time>2016-05-28T11:32:55Z</time>
      </trkpt>
      <trkpt lat="42.81642378307879" lon="1.586741711944342">
        <ele>580.28999999999996</ele>
        <time>2016-05-28T11:33:09Z</time>
      </trkpt>
      <trkpt lat="42.81660214997828" lon="1.586749255657196">
        <ele>581.25</ele>
        <time>2016-05-28T11:33:24Z</time>
      </trkpt>
      <trkpt lat="42.816765597090125" lon="1.586706340312958">
        <ele>581.73000000000002</ele>
        <time>2016-05-28T11:33:37Z</time>
      </trkpt>
      <trkpt lat="42.816796274855733" lon="1.586699215695262">
        <ele>581.73000000000002</ele>
        <time>2016-05-28T11:33:40Z</time>
      </trkpt>
      <trkpt lat="42.816956955939531" lon="1.586681194603443">
        <ele>584.62</ele>
        <time>2016-05-28T11:33:57Z</time>
      </trkpt>
      <trkpt lat="42.817114787176251" lon="1.586686475202441">
        <ele>586.05999999999995</ele>
        <time>2016-05-28T11:34:11Z</time>
      </trkpt>
      <trkpt lat="42.817244371399283" lon="1.586559992283583">
        <ele>588.95000000000005</ele>
        <time>2016-05-28T11:34:26Z</time>
      </trkpt>
      <trkpt lat="42.817277479916811" lon="1.586496373638511">
        <ele>589.42999999999995</ele>
        <time>2016-05-28T11:34:31Z</time>
      </trkpt>
      <trkpt lat="42.817348893731833" lon="1.586382547393441">
        <ele>590.87</ele>
        <time>2016-05-28T11:34:44Z</time>
      </trkpt>
      <trkpt lat="42.817399436607957" lon="1.586357401683927">
        <ele>591.83000000000004</ele>
        <time>2016-05-28T11:34:58Z</time>
      </trkpt>
      <trkpt lat="42.817357946187258" lon="1.586395874619484">
        <ele>590.38999999999999</ele>
        <time>2016-05-28T11:35:24Z</time>
      </trkpt>
      <trkpt lat="42.817378817126155" lon="1.586367040872574">
        <ele>589.42999999999995</ele>
        <time>2016-05-28T11:35:43Z</time>
      </trkpt>
      <trkpt lat="42.817373368889093" lon="1.586283640936017">
        <ele>590.38999999999999</ele>
        <time>2016-05-28T11:35:58Z</time>
      </trkpt>
      <trkpt lat="42.817389881238341" lon="1.586222285404801">
        <ele>591.35000000000002</ele>
        <time>2016-05-28T11:36:04Z</time>
      </trkpt>
      <trkpt lat="42.817377056926489" lon="1.586140897125006">
        <ele>591.35000000000002</ele>
        <time>2016-05-28T11:36:18Z</time>
      </trkpt>
      <trkpt lat="42.817368507385254" lon="1.586128324270248">
        <ele>591.83000000000004</ele>
        <time>2016-05-28T11:36:33Z</time>
      </trkpt>
      <trkpt lat="42.817346211522818" lon="1.586152547970414">
        <ele>593.26999999999998</ele>
        <time>2016-05-28T11:36:55Z</time>
      </trkpt>
      <trkpt lat="42.817371357232332" lon="1.586057329550386">
        <ele>593.75</ele>
        <time>2016-05-28T11:37:16Z</time>
      </trkpt>
      <trkpt lat="42.817410752177238" lon="1.585926404222846">
        <ele>592.30999999999995</ele>
        <time>2016-05-28T11:37:23Z</time>
      </trkpt>
      <trkpt lat="42.817516447976232" lon="1.585866389796138">
        <ele>591.83000000000004</ele>
        <time>2016-05-28T11:37:36Z</time>
      </trkpt>
      <trkpt lat="42.817576630041003" lon="1.585917687043548">
        <ele>593.26999999999998</ele>
        <time>2016-05-28T11:37:43Z</time>
      </trkpt>
      <trkpt lat="42.81773379072547" lon="1.585960350930691">
        <ele>596.14999999999998</ele>
        <time>2016-05-28T11:37:58Z</time>
      </trkpt>
      <trkpt lat="42.817926155403256" lon="1.586054898798466">
        <ele>600</ele>
        <time>2016-05-28T11:38:17Z</time>
      </trkpt>
      <trkpt lat="42.818064456805587" lon="1.586086079478264">
        <ele>604.33000000000004</ele>
        <time>2016-05-28T11:38:36Z</time>
      </trkpt>
      <trkpt lat="42.818163949996233" lon="1.586152045056224">
        <ele>605.28999999999996</ele>
        <time>2016-05-28T11:38:53Z</time>
      </trkpt>
      <trkpt lat="42.818234525620937" lon="1.586208287626505">
        <ele>606.25</ele>
        <time>2016-05-28T11:39:03Z</time>
      </trkpt>
      <trkpt lat="42.818296300247312" lon="1.586263524368405">
        <ele>605.28999999999996</ele>
        <time>2016-05-28T11:39:16Z</time>
      </trkpt>
      <trkpt lat="42.818374084308743" lon="1.586330998688936">
        <ele>606.25</ele>
        <time>2016-05-28T11:39:28Z</time>
      </trkpt>
      <trkpt lat="42.818496879190207" lon="1.586386989802122">
        <ele>606.73000000000002</ele>
        <time>2016-05-28T11:39:44Z</time>
      </trkpt>
      <trkpt lat="42.818540381267667" lon="1.586397048085928">
        <ele>608.16999999999996</ele>
        <time>2016-05-28T11:39:59Z</time>
      </trkpt>
      <trkpt lat="42.818561755120754" lon="1.586442980915308">
        <ele>608.16999999999996</ele>
        <time>2016-05-28T11:40:15Z</time>
      </trkpt>
      <trkpt lat="42.818681616336107" lon="1.586634088307619">
        <ele>606.25</ele>
        <time>2016-05-28T11:40:32Z</time>
      </trkpt>
      <trkpt lat="42.818809691816568" lon="1.586768450215459">
        <ele>604.80999999999995</ele>
        <time>2016-05-28T11:40:47Z</time>
      </trkpt>
      <trkpt lat="42.818918405100703" lon="1.586915384978056">
        <ele>603.36000000000001</ele>
        <time>2016-05-28T11:41:00Z</time>
      </trkpt>
      <trkpt lat="42.819007337093353" lon="1.587023008614779">
        <ele>600</ele>
        <time>2016-05-28T11:41:09Z</time>
      </trkpt>
      <trkpt lat="42.819066261872649" lon="1.587072629481554">
        <ele>597.60000000000002</ele>
        <time>2016-05-28T11:41:14Z</time>
      </trkpt>
      <trkpt lat="42.819130886346102" lon="1.587110180407763">
        <ele>596.63999999999999</ele>
        <time>2016-05-28T11:41:20Z</time>
      </trkpt>
      <trkpt lat="42.819306403398514" lon="1.587214367464185">
        <ele>595.66999999999996</ele>
        <time>2016-05-28T11:41:35Z</time>
      </trkpt>
      <trkpt lat="42.81941712833941" lon="1.58728594891727">
        <ele>593.26999999999998</ele>
        <time>2016-05-28T11:41:50Z</time>
      </trkpt>
      <trkpt lat="42.819507233798504" lon="1.587377982214093">
        <ele>590.87</ele>
        <time>2016-05-28T11:42:01Z</time>
      </trkpt>
      <trkpt lat="42.819545036181808" lon="1.587409749627113">
        <ele>589.90999999999997</ele>
        <time>2016-05-28T11:42:05Z</time>
      </trkpt>
      <trkpt lat="42.819620138034225" lon="1.587463058531284">
        <ele>589.90999999999997</ele>
        <time>2016-05-28T11:42:20Z</time>
      </trkpt>
      <trkpt lat="42.819756595417857" lon="1.587596917524934">
        <ele>587.01999999999998</ele>
        <time>2016-05-28T11:42:34Z</time>
      </trkpt>
      <trkpt lat="42.819874947890639" lon="1.58771887421608">
        <ele>584.62</ele>
        <time>2016-05-28T11:42:45Z</time>
      </trkpt>
      <trkpt lat="42.820006040856242" lon="1.587830353528261">
        <ele>582.22000000000003</ele>
        <time>2016-05-28T11:42:59Z</time>
      </trkpt>
      <trkpt lat="42.820058595389128" lon="1.587848626077175">
        <ele>580.76999999999998</ele>
        <time>2016-05-28T11:43:05Z</time>
      </trkpt>
      <trkpt lat="42.820253055542707" lon="1.587941413745284">
        <ele>580.76999999999998</ele>
        <time>2016-05-28T11:43:20Z</time>
      </trkpt>
      <trkpt lat="42.820353135466576" lon="1.587964631617069">
        <ele>579.33000000000004</ele>
        <time>2016-05-28T11:43:35Z</time>
      </trkpt>
      <trkpt lat="42.820395631715655" lon="1.587996482849121">
        <ele>580.76999999999998</ele>
        <time>2016-05-28T11:43:52Z</time>
      </trkpt>
      <trkpt lat="42.820380795747042" lon="1.58801794052124">
        <ele>580.76999999999998</ele>
        <time>2016-05-28T11:43:55Z</time>
      </trkpt>
      <trkpt lat="42.82052731141448" lon="1.588073847815394">
        <ele>578.37</ele>
        <time>2016-05-28T11:44:09Z</time>
      </trkpt>
      <trkpt lat="42.820554468780756" lon="1.588069992139936">
        <ele>577.40999999999997</ele>
        <time>2016-05-28T11:44:12Z</time>
      </trkpt>
      <trkpt lat="42.820612387731671" lon="1.588066723197699">
        <ele>575.97000000000003</ele>
        <time>2016-05-28T11:44:18Z</time>
      </trkpt>
      <trkpt lat="42.820680784061551" lon="1.588105447590351">
        <ele>574.03999999999996</ele>
        <time>2016-05-28T11:44:24Z</time>
      </trkpt>
      <trkpt lat="42.820816906169057" lon="1.588201755657792">
        <ele>566.35000000000002</ele>
        <time>2016-05-28T11:44:41Z</time>
      </trkpt>
      <trkpt lat="42.82094799913466" lon="1.588270235806704">
        <ele>563.47000000000003</ele>
        <time>2016-05-28T11:44:54Z</time>
      </trkpt>
      <trkpt lat="42.821073895320296" lon="1.588361011818051">
        <ele>560.59000000000003</ele>
        <time>2016-05-28T11:45:08Z</time>
      </trkpt>
      <trkpt lat="42.821236588060856" lon="1.588455643504858">
        <ele>560.11000000000001</ele>
        <time>2016-05-28T11:45:22Z</time>
      </trkpt>
      <trkpt lat="42.821334237232804" lon="1.588514735922217">
        <ele>559.13999999999999</ele>
        <time>2016-05-28T11:45:29Z</time>
      </trkpt>
      <trkpt lat="42.821530876681209" lon="1.588536109775305">
        <ele>555.29999999999995</ele>
        <time>2016-05-28T11:45:44Z</time>
      </trkpt>
      <trkpt lat="42.821698430925608" lon="1.588552454486489">
        <ele>552.89999999999998</ele>
        <time>2016-05-28T11:45:56Z</time>
      </trkpt>
      <trkpt lat="42.821865817531943" lon="1.588582545518875">
        <ele>551.45000000000005</ele>
        <time>2016-05-28T11:46:10Z</time>
      </trkpt>
      <trkpt lat="42.822021804749966" lon="1.588673070073128">
        <ele>546.16999999999996</ele>
        <time>2016-05-28T11:46:28Z</time>
      </trkpt>
      <trkpt lat="42.822045441716909" lon="1.588690923526883">
        <ele>546.16999999999996</ele>
        <time>2016-05-28T11:46:30Z</time>
      </trkpt>
      <trkpt lat="42.822281140834093" lon="1.588810114189982">
        <ele>544.24000000000001</ele>
        <time>2016-05-28T11:46:48Z</time>
      </trkpt>
      <trkpt lat="42.822390189394355" lon="1.588950930163264">
        <ele>541.84000000000003</ele>
        <time>2016-05-28T11:47:04Z</time>
      </trkpt>
      <trkpt lat="42.822490520775318" lon="1.58906701952219">
        <ele>542.32000000000005</ele>
        <time>2016-05-28T11:47:19Z</time>
      </trkpt>
      <trkpt lat="42.82267676666379" lon="1.589215295389295">
        <ele>542.79999999999995</ele>
        <time>2016-05-28T11:47:33Z</time>
      </trkpt>
      <trkpt lat="42.822807775810361" lon="1.589334150776267">
        <ele>542.79999999999995</ele>
        <time>2016-05-28T11:47:48Z</time>
      </trkpt>
      <trkpt lat="42.822875082492828" lon="1.589367929846048">
        <ele>542.79999999999995</ele>
        <time>2016-05-28T11:47:53Z</time>
      </trkpt>
      <trkpt lat="42.823097035288811" lon="1.589473709464073">
        <ele>543.27999999999997</ele>
        <time>2016-05-28T11:48:11Z</time>
      </trkpt>
      <trkpt lat="42.823337763547897" lon="1.589584518224001">
        <ele>543.27999999999997</ele>
        <time>2016-05-28T11:48:29Z</time>
      </trkpt>
      <trkpt lat="42.823449326679111" lon="1.589624080806971">
        <ele>543.75999999999999</ele>
        <time>2016-05-28T11:48:44Z</time>
      </trkpt>
      <trkpt lat="42.823546640574932" lon="1.589585859328508">
        <ele>543.75999999999999</ele>
        <time>2016-05-28T11:49:01Z</time>
      </trkpt>
      <trkpt lat="42.823678907006979" lon="1.589607819914818">
        <ele>545.69000000000005</ele>
        <time>2016-05-28T11:49:18Z</time>
      </trkpt>
      <trkpt lat="42.823835564777255" lon="1.589680910110474">
        <ele>550.97000000000003</ele>
        <time>2016-05-28T11:49:35Z</time>
      </trkpt>
      <trkpt lat="42.823996748775244" lon="1.589794736355543">
        <ele>552.40999999999997</ele>
        <time>2016-05-28T11:49:54Z</time>
      </trkpt>
      <trkpt lat="42.824066234752536" lon="1.589791886508465">
        <ele>555.29999999999995</ele>
        <time>2016-05-28T11:50:12Z</time>
      </trkpt>
      <trkpt lat="42.824165308848023" lon="1.589815774932504">
        <ele>557.70000000000005</ele>
        <time>2016-05-28T11:50:30Z</time>
      </trkpt>
      <trkpt lat="42.824186598882079" lon="1.589830024167895">
        <ele>560.59000000000003</ele>
        <time>2016-05-28T11:50:52Z</time>
      </trkpt>
      <trkpt lat="42.824227418750525" lon="1.58978576771915">
        <ele>563.47000000000003</ele>
        <time>2016-05-28T11:51:16Z</time>
      </trkpt>
      <trkpt lat="42.824223563075066" lon="1.589689627289772">
        <ele>554.34000000000003</ele>
        <time>2016-05-28T11:51:49Z</time>
      </trkpt>
      <trkpt lat="42.824266897514462" lon="1.589735392481089">
        <ele>561.54999999999995</ele>
        <time>2016-05-28T11:52:19Z</time>
      </trkpt>
      <trkpt lat="42.824295982718468" lon="1.589813595637679">
        <ele>565.38999999999999</ele>
        <time>2016-05-28T11:52:45Z</time>
      </trkpt>
      <trkpt lat="42.824416430667043" lon="1.589829353615642">
        <ele>564.90999999999997</ele>
        <time>2016-05-28T11:52:59Z</time>
      </trkpt>
      <trkpt lat="42.824533190578222" lon="1.589789288118482">
        <ele>564.42999999999995</ele>
        <time>2016-05-28T11:53:17Z</time>
      </trkpt>
      <trkpt lat="42.824670821428299" lon="1.589748132973909">
        <ele>564.42999999999995</ele>
        <time>2016-05-28T11:53:34Z</time>
      </trkpt>
      <trkpt lat="42.824829490855336" lon="1.589800268411636">
        <ele>569.24000000000001</ele>
        <time>2016-05-28T11:53:51Z</time>
      </trkpt>
      <trkpt lat="42.825023699551821" lon="1.589833460748196">
        <ele>569.72000000000003</ele>
        <time>2016-05-28T11:54:08Z</time>
      </trkpt>
      <trkpt lat="42.825198294594884" lon="1.589836981147528">
        <ele>569.72000000000003</ele>
        <time>2016-05-28T11:54:24Z</time>
      </trkpt>
      <trkpt lat="42.825402813032269" lon="1.589777218177915">
        <ele>569.24000000000001</ele>
        <time>2016-05-28T11:54:42Z</time>
      </trkpt>
      <trkpt lat="42.825559973716736" lon="1.589694572612643">
        <ele>568.75999999999999</ele>
        <time>2016-05-28T11:55:00Z</time>
      </trkpt>
      <trkpt lat="42.825694251805544" lon="1.5896709356457">
        <ele>570.20000000000005</ele>
        <time>2016-05-28T11:55:16Z</time>
      </trkpt>
      <trkpt lat="42.825725935399532" lon="1.589651657268405">
        <ele>571.63999999999999</ele>
        <time>2016-05-28T11:55:19Z</time>
      </trkpt>
      <trkpt lat="42.825869182124734" lon="1.589625589549542">
        <ele>575.49000000000001</ele>
        <time>2016-05-28T11:55:36Z</time>
      </trkpt>
      <trkpt lat="42.825983092188835" lon="1.589626595377922">
        <ele>577.40999999999997</ele>
        <time>2016-05-28T11:55:46Z</time>
      </trkpt>
      <trkpt lat="42.826025756075978" lon="1.589614693075419">
        <ele>578.37</ele>
        <time>2016-05-28T11:55:49Z</time>
      </trkpt>
      <trkpt lat="42.826221808791161" lon="1.589583344757557">
        <ele>578.37</ele>
        <time>2016-05-28T11:56:06Z</time>
      </trkpt>
      <trkpt lat="42.826374862343073" lon="1.589588122442365">
        <ele>578.37</ele>
        <time>2016-05-28T11:56:19Z</time>
      </trkpt>
      <trkpt lat="42.826557252556086" lon="1.589611507952213">
        <ele>575.49000000000001</ele>
        <time>2016-05-28T11:56:34Z</time>
      </trkpt>
      <trkpt lat="42.826610980555415" lon="1.589625673368573">
        <ele>575.00999999999999</ele>
        <time>2016-05-28T11:56:38Z</time>
      </trkpt>
      <trkpt lat="42.826764620840549" lon="1.589714605361223">
        <ele>575.49000000000001</ele>
        <time>2016-05-28T11:56:51Z</time>
      </trkpt>
      <trkpt lat="42.826790604740381" lon="1.589727932587266">
        <ele>575.00999999999999</ele>
        <time>2016-05-28T11:56:53Z</time>
      </trkpt>
      <trkpt lat="42.826882554218173" lon="1.589717119932175">
        <ele>573.08000000000004</ele>
        <time>2016-05-28T11:57:00Z</time>
      </trkpt>
      <trkpt lat="42.827026303857565" lon="1.589722903445363">
        <ele>573.08000000000004</ele>
        <time>2016-05-28T11:57:11Z</time>
      </trkpt>
      <trkpt lat="42.827133424580097" lon="1.589697925373912">
        <ele>572.60000000000002</ele>
        <time>2016-05-28T11:57:19Z</time>
      </trkpt>
      <trkpt lat="42.827345989644527" lon="1.589676467701793">
        <ele>571.63999999999999</ele>
        <time>2016-05-28T11:57:37Z</time>
      </trkpt>
      <trkpt lat="42.827538102865219" lon="1.58966850489378">
        <ele>570.20000000000005</ele>
        <time>2016-05-28T11:57:53Z</time>
      </trkpt>
      <trkpt lat="42.82770624384284" lon="1.589673198759556">
        <ele>568.75999999999999</ele>
        <time>2016-05-28T11:58:08Z</time>
      </trkpt>
      <trkpt lat="42.827875055372715" lon="1.589599689468741">
        <ele>568.75999999999999</ele>
        <time>2016-05-28T11:58:23Z</time>
      </trkpt>
      <trkpt lat="42.828065995126963" lon="1.589578064158559">
        <ele>570.67999999999995</ele>
        <time>2016-05-28T11:58:39Z</time>
      </trkpt>
      <trkpt lat="42.828150065615773" lon="1.58962357789278">
        <ele>570.20000000000005</ele>
        <time>2016-05-28T11:58:46Z</time>
      </trkpt>
      <trkpt lat="42.828271854668856" lon="1.589595079421997">
        <ele>570.67999999999995</ele>
        <time>2016-05-28T11:59:02Z</time>
      </trkpt>
      <trkpt lat="42.828414179384708" lon="1.589627433568239">
        <ele>562.99000000000001</ele>
        <time>2016-05-28T11:59:19Z</time>
      </trkpt>
      <trkpt lat="42.828571759164333" lon="1.589659787714481">
        <ele>557.70000000000005</ele>
        <time>2016-05-28T11:59:33Z</time>
      </trkpt>
      <trkpt lat="42.828761357814074" lon="1.58971737138927">
        <ele>555.77999999999997</ele>
        <time>2016-05-28T11:59:49Z</time>
      </trkpt>
      <trkpt lat="42.828953471034765" lon="1.58972030505538">
        <ele>554.34000000000003</ele>
        <time>2016-05-28T12:00:08Z</time>
      </trkpt>
      <trkpt lat="42.829135442152619" lon="1.58975793980062">
        <ele>550.97000000000003</ele>
        <time>2016-05-28T12:00:25Z</time>
      </trkpt>
      <trkpt lat="42.82934264279902" lon="1.589774787425995">
        <ele>547.61000000000001</ele>
        <time>2016-05-28T12:00:42Z</time>
      </trkpt>
      <trkpt lat="42.829528218135238" lon="1.589779481291771">
        <ele>543.27999999999997</ele>
        <time>2016-05-28T12:00:58Z</time>
      </trkpt>
      <trkpt lat="42.829659227281809" lon="1.589665906503797">
        <ele>544.24000000000001</ele>
        <time>2016-05-28T12:01:12Z</time>
      </trkpt>
      <trkpt lat="42.829805910587311" lon="1.589695829898119">
        <ele>544.24000000000001</ele>
        <time>2016-05-28T12:01:28Z</time>
      </trkpt>
      <trkpt lat="42.829987043514848" lon="1.589676300063729">
        <ele>540.39999999999998</ele>
        <time>2016-05-28T12:01:45Z</time>
      </trkpt>
      <trkpt lat="42.830126602202654" lon="1.589652579277754">
        <ele>540.39999999999998</ele>
        <time>2016-05-28T12:01:58Z</time>
      </trkpt>
      <trkpt lat="42.830244367942214" lon="1.589687867090106">
        <ele>540.88</ele>
        <time>2016-05-28T12:02:14Z</time>
      </trkpt>
      <trkpt lat="42.830347465351224" lon="1.589629864320159">
        <ele>541.36000000000001</ele>
        <time>2016-05-28T12:02:29Z</time>
      </trkpt>
      <trkpt lat="42.830385267734528" lon="1.589625673368573">
        <ele>541.84000000000003</ele>
        <time>2016-05-28T12:02:33Z</time>
      </trkpt>
      <trkpt lat="42.830471768975258" lon="1.589647298678756">
        <ele>542.79999999999995</ele>
        <time>2016-05-28T12:02:41Z</time>
      </trkpt>
      <trkpt lat="42.830622224137187" lon="1.589751150459051">
        <ele>544.72000000000003</ele>
        <time>2016-05-28T12:02:57Z</time>
      </trkpt>
      <trkpt lat="42.830714425072074" lon="1.589864976704121">
        <ele>545.69000000000005</ele>
        <time>2016-05-28T12:03:07Z</time>
      </trkpt>
      <trkpt lat="42.830793717876077" lon="1.589963715523481">
        <ele>546.64999999999998</ele>
        <time>2016-05-28T12:03:19Z</time>
      </trkpt>
      <trkpt lat="42.830810565501451" lon="1.589982826262713">
        <ele>546.64999999999998</ele>
        <time>2016-05-28T12:03:21Z</time>
      </trkpt>
      <trkpt lat="42.83086471259594" lon="1.590044097974896">
        <ele>547.13</ele>
        <time>2016-05-28T12:03:26Z</time>
      </trkpt>
      <trkpt lat="42.8309082146734" lon="1.590092880651355">
        <ele>547.61000000000001</ele>
        <time>2016-05-28T12:03:31Z</time>
      </trkpt>
      <trkpt lat="42.831016341224313" lon="1.590328495949507">
        <ele>548.09000000000003</ele>
        <time>2016-05-28T12:03:47Z</time>
      </trkpt>
      <trkpt lat="42.831079373136163" lon="1.590439137071371">
        <ele>548.57000000000005</ele>
        <time>2016-05-28T12:03:56Z</time>
      </trkpt>
      <trkpt lat="42.831141818314791" lon="1.59064918756485">
        <ele>549.52999999999997</ele>
        <time>2016-05-28T12:04:11Z</time>
      </trkpt>
      <trkpt lat="42.831239802762866" lon="1.590822106227279">
        <ele>550.00999999999999</ele>
        <time>2016-05-28T12:04:25Z</time>
      </trkpt>
      <trkpt lat="42.831284310668707" lon="1.59103961661458">
        <ele>550.97000000000003</ele>
        <time>2016-05-28T12:04:41Z</time>
      </trkpt>
      <trkpt lat="42.831309204921126" lon="1.591184958815575">
        <ele>551.45000000000005</ele>
        <time>2016-05-28T12:04:54Z</time>
      </trkpt>
      <trkpt lat="42.831352120265365" lon="1.591220078989863">
        <ele>551.45000000000005</ele>
        <time>2016-05-28T12:05:06Z</time>
      </trkpt>
      <trkpt lat="42.831387156620622" lon="1.59129518084228">
        <ele>551.92999999999995</ele>
        <time>2016-05-28T12:05:17Z</time>
      </trkpt>
      <trkpt lat="42.831433843821287" lon="1.59145200625062">
        <ele>552.40999999999997</ele>
        <time>2016-05-28T12:05:31Z</time>
      </trkpt>
      <trkpt lat="42.831487320363522" lon="1.591609418392181">
        <ele>561.07000000000005</ele>
        <time>2016-05-28T12:05:44Z</time>
      </trkpt>
      <trkpt lat="42.831576503813267" lon="1.591629954054952">
        <ele>563.95000000000005</ele>
        <time>2016-05-28T12:05:57Z</time>
      </trkpt>
      <trkpt lat="42.831659819930792" lon="1.591677898541093">
        <ele>567.32000000000005</ele>
        <time>2016-05-28T12:06:12Z</time>
      </trkpt>
      <trkpt lat="42.831767862662673" lon="1.591711258515716">
        <ele>561.54999999999995</ele>
        <time>2016-05-28T12:06:28Z</time>
      </trkpt>
      <trkpt lat="42.831776076927781" lon="1.591716203838587">
        <ele>561.54999999999995</ele>
        <time>2016-05-28T12:06:29Z</time>
      </trkpt>
      <trkpt lat="42.831824356690049" lon="1.591739254072309">
        <ele>552.40999999999997</ele>
        <time>2016-05-28T12:06:32Z</time>
      </trkpt>
      <trkpt lat="42.831858051940799" lon="1.591760711744428">
        <ele>546.64999999999998</ele>
        <time>2016-05-28T12:06:35Z</time>
      </trkpt>
      <trkpt lat="42.831887891516089" lon="1.591780157759786">
        <ele>544.24000000000001</ele>
        <time>2016-05-28T12:06:38Z</time>
      </trkpt>
      <trkpt lat="42.831905661150813" lon="1.591810835525394">
        <ele>543.75999999999999</ele>
        <time>2016-05-28T12:06:41Z</time>
      </trkpt>
      <trkpt lat="42.832006243988872" lon="1.591865904629231">
        <ele>547.61000000000001</ele>
        <time>2016-05-28T12:06:53Z</time>
      </trkpt>
      <trkpt lat="42.832072041928768" lon="1.591933127492666">
        <ele>549.52999999999997</ele>
        <time>2016-05-28T12:07:04Z</time>
      </trkpt>
      <trkpt lat="42.83217865973711" lon="1.592018287628889">
        <ele>550.97000000000003</ele>
        <time>2016-05-28T12:07:18Z</time>
      </trkpt>
      <trkpt lat="42.832290977239609" lon="1.592093054205179">
        <ele>550.97000000000003</ele>
        <time>2016-05-28T12:07:34Z</time>
      </trkpt>
      <trkpt lat="42.832374041900039" lon="1.592159271240234">
        <ele>551.45000000000005</ele>
        <time>2016-05-28T12:07:44Z</time>
      </trkpt>
      <trkpt lat="42.832546206191182" lon="1.592275612056255">
        <ele>550.00999999999999</ele>
        <time>2016-05-28T12:08:02Z</time>
      </trkpt>
      <trkpt lat="42.832661122083664" lon="1.592348366975784">
        <ele>550.49000000000001</ele>
        <time>2016-05-28T12:08:17Z</time>
      </trkpt>
      <trkpt lat="42.832813253626227" lon="1.592483231797814">
        <ele>550.49000000000001</ele>
        <time>2016-05-28T12:08:31Z</time>
      </trkpt>
      <trkpt lat="42.832992793992162" lon="1.592615330591798">
        <ele>549.52999999999997</ele>
        <time>2016-05-28T12:08:47Z</time>
      </trkpt>
      <trkpt lat="42.833154816180468" lon="1.592749692499638">
        <ele>548.09000000000003</ele>
        <time>2016-05-28T12:09:02Z</time>
      </trkpt>
      <trkpt lat="42.833285741508007" lon="1.592840133234859">
        <ele>546.64999999999998</ele>
        <time>2016-05-28T12:09:14Z</time>
      </trkpt>
      <trkpt lat="42.833375176414847" lon="1.592920934781432">
        <ele>546.16999999999996</ele>
        <time>2016-05-28T12:09:22Z</time>
      </trkpt>
      <trkpt lat="42.833542143926024" lon="1.592990085482597">
        <ele>546.64999999999998</ele>
        <time>2016-05-28T12:09:37Z</time>
      </trkpt>
      <trkpt lat="42.833708692342043" lon="1.593051357194781">
        <ele>547.61000000000001</ele>
        <time>2016-05-28T12:09:51Z</time>
      </trkpt>
      <trkpt lat="42.83384682610631" lon="1.593179935589433">
        <ele>546.64999999999998</ele>
        <time>2016-05-28T12:10:03Z</time>
      </trkpt>
      <trkpt lat="42.83386685885489" lon="1.593190748244524">
        <ele>546.64999999999998</ele>
        <time>2016-05-28T12:10:05Z</time>
      </trkpt>
      <trkpt lat="42.833889992907643" lon="1.593250511214137">
        <ele>547.13</ele>
        <time>2016-05-28T12:10:09Z</time>
      </trkpt>
      <trkpt lat="42.833931148052216" lon="1.593325026333332">
        <ele>547.61000000000001</ele>
        <time>2016-05-28T12:10:14Z</time>
      </trkpt>
      <trkpt lat="42.834006082266569" lon="1.593454610556364">
        <ele>547.61000000000001</ele>
        <time>2016-05-28T12:10:24Z</time>
      </trkpt>
      <trkpt lat="42.834086380898952" lon="1.593564664945006">
        <ele>541.84000000000003</ele>
        <time>2016-05-28T12:10:36Z</time>
      </trkpt>
      <trkpt lat="42.834154609590769" lon="1.593676814809442">
        <ele>537.02999999999997</ele>
        <time>2016-05-28T12:10:46Z</time>
      </trkpt>
      <trkpt lat="42.834235662594438" lon="1.593786114826798">
        <ele>533.19000000000005</ele>
        <time>2016-05-28T12:10:56Z</time>
      </trkpt>
      <trkpt lat="42.834282349795103" lon="1.593868844211102">
        <ele>532.23000000000002</ele>
        <time>2016-05-28T12:11:02Z</time>
      </trkpt>
      <trkpt lat="42.83430078998208" lon="1.593878734856844">
        <ele>532.23000000000002</ele>
        <time>2016-05-28T12:11:04Z</time>
      </trkpt>
      <trkpt lat="42.834357116371393" lon="1.593942269682884">
        <ele>532.23000000000002</ele>
        <time>2016-05-28T12:11:10Z</time>
      </trkpt>
      <trkpt lat="42.834393996745348" lon="1.593963727355003">
        <ele>531.75</ele>
        <time>2016-05-28T12:11:23Z</time>
      </trkpt>
      <trkpt lat="42.83438628539443" lon="1.593951405957341">
        <ele>532.71000000000004</ele>
        <time>2016-05-28T12:11:39Z</time>
      </trkpt>
      <trkpt lat="42.834459543228149" lon="1.594042349606752">
        <ele>534.63</ele>
        <time>2016-05-28T12:11:54Z</time>
      </trkpt>
      <trkpt lat="42.834490137174726" lon="1.594102866947651">
        <ele>534.63</ele>
        <time>2016-05-28T12:12:07Z</time>
      </trkpt>
      <trkpt lat="42.834567418321967" lon="1.59430461935699">
        <ele>534.14999999999998</ele>
        <time>2016-05-28T12:12:20Z</time>
      </trkpt>
      <trkpt lat="42.834647968411446" lon="1.594541072845459">
        <ele>536.07000000000005</ele>
        <time>2016-05-28T12:12:35Z</time>
      </trkpt>
      <trkpt lat="42.834719130769372" lon="1.594772832468152">
        <ele>536.54999999999995</ele>
        <time>2016-05-28T12:12:49Z</time>
      </trkpt>
      <trkpt lat="42.834783000871539" lon="1.594898058101535">
        <ele>536.07000000000005</ele>
        <time>2016-05-28T12:12:58Z</time>
      </trkpt>
      <trkpt lat="42.834847960621119" lon="1.594997635111213">
        <ele>535.59000000000003</ele>
        <time>2016-05-28T12:13:10Z</time>
      </trkpt>
      <trkpt lat="42.834907220676541" lon="1.595230903476477">
        <ele>534.63</ele>
        <time>2016-05-28T12:13:24Z</time>
      </trkpt>
      <trkpt lat="42.834950052201748" lon="1.595416394993663">
        <ele>533.19000000000005</ele>
        <time>2016-05-28T12:13:35Z</time>
      </trkpt>
      <trkpt lat="42.834962289780378" lon="1.595472972840071">
        <ele>531.75</ele>
        <time>2016-05-28T12:13:38Z</time>
      </trkpt>
      <trkpt lat="42.835048707202077" lon="1.595722502097487">
        <ele>527.89999999999998</ele>
        <time>2016-05-28T12:13:53Z</time>
      </trkpt>
      <trkpt lat="42.83514903858304" lon="1.595902964472771">
        <ele>525.01999999999998</ele>
        <time>2016-05-28T12:14:05Z</time>
      </trkpt>
      <trkpt lat="42.835157420486212" lon="1.595985274761915">
        <ele>525.5</ele>
        <time>2016-05-28T12:14:11Z</time>
      </trkpt>
      <trkpt lat="42.835160689428449" lon="1.596177723258734">
        <ele>525.5</ele>
        <time>2016-05-28T12:14:21Z</time>
      </trkpt>
      <trkpt lat="42.835208382457495" lon="1.596339913085103">
        <ele>523.58000000000004</ele>
        <time>2016-05-28T12:14:32Z</time>
      </trkpt>
      <trkpt lat="42.835284154862165" lon="1.596521968021989">
        <ele>521.16999999999996</ele>
        <time>2016-05-28T12:14:45Z</time>
      </trkpt>
      <trkpt lat="42.835370069369674" lon="1.596639482304454">
        <ele>519.25</ele>
        <time>2016-05-28T12:14:55Z</time>
      </trkpt>
      <trkpt lat="42.835455983877182" lon="1.596870822831988">
        <ele>521.16999999999996</ele>
        <time>2016-05-28T12:15:11Z</time>
      </trkpt>
      <trkpt lat="42.835502754896879" lon="1.597024463117123">
        <ele>522.13</ele>
        <time>2016-05-28T12:15:23Z</time>
      </trkpt>
      <trkpt lat="42.835531421005726" lon="1.597188832238317">
        <ele>522.13</ele>
        <time>2016-05-28T12:15:34Z</time>
      </trkpt>
      <trkpt lat="42.835562350228429" lon="1.597284218296409">
        <ele>523.09000000000003</ele>
        <time>2016-05-28T12:15:46Z</time>
      </trkpt>
      <trkpt lat="42.835606187582016" lon="1.59736686386168">
        <ele>524.05999999999995</ele>
        <time>2016-05-28T12:15:58Z</time>
      </trkpt>
      <trkpt lat="42.835594872012734" lon="1.597370719537139">
        <ele>523.09000000000003</ele>
        <time>2016-05-28T12:16:18Z</time>
      </trkpt>
      <trkpt lat="42.835655556991696" lon="1.597512876614928">
        <ele>524.53999999999996</ele>
        <time>2016-05-28T12:16:28Z</time>
      </trkpt>
      <trkpt lat="42.835746835917234" lon="1.597721418365836">
        <ele>525.98000000000002</ele>
        <time>2016-05-28T12:16:43Z</time>
      </trkpt>
      <trkpt lat="42.835821770131588" lon="1.597798112779856">
        <ele>526.94000000000005</ele>
        <time>2016-05-28T12:16:55Z</time>
      </trkpt>
      <trkpt lat="42.835863512009382" lon="1.597823174670339">
        <ele>526.46000000000004</ele>
        <time>2016-05-28T12:16:59Z</time>
      </trkpt>
      <trkpt lat="42.835992174223065" lon="1.597889726981521">
        <ele>528.38</ele>
        <time>2016-05-28T12:17:13Z</time>
      </trkpt>
      <trkpt lat="42.836098372936249" lon="1.597902802750468">
        <ele>529.82000000000005</ele>
        <time>2016-05-28T12:17:24Z</time>
      </trkpt>
      <trkpt lat="42.836231896653771" lon="1.597920069471002">
        <ele>530.29999999999995</ele>
        <time>2016-05-28T12:17:35Z</time>
      </trkpt>
      <trkpt lat="42.836302388459444" lon="1.597919901832938">
        <ele>530.29999999999995</ele>
        <time>2016-05-28T12:17:41Z</time>
      </trkpt>
      <trkpt lat="42.836349746212363" lon="1.597926439717412">
        <ele>530.78999999999996</ele>
        <time>2016-05-28T12:17:45Z</time>
      </trkpt>
      <trkpt lat="42.83649324439466" lon="1.597952172160149">
        <ele>532.23000000000002</ele>
        <time>2016-05-28T12:17:58Z</time>
      </trkpt>
      <trkpt lat="42.836620481684804" lon="1.59800405614078">
        <ele>532.71000000000004</ele>
        <time>2016-05-28T12:18:10Z</time>
      </trkpt>
      <trkpt lat="42.836708156391978" lon="1.597988549619913">
        <ele>532.71000000000004</ele>
        <time>2016-05-28T12:18:20Z</time>
      </trkpt>
      <trkpt lat="42.836809074506164" lon="1.598010845482349">
        <ele>531.75</ele>
        <time>2016-05-28T12:18:33Z</time>
      </trkpt>
      <trkpt lat="42.836855426430702" lon="1.598032973706722">
        <ele>533.19000000000005</ele>
        <time>2016-05-28T12:18:44Z</time>
      </trkpt>
      <trkpt lat="42.836859952658415" lon="1.598058622330427">
        <ele>533.19000000000005</ele>
        <time>2016-05-28T12:18:47Z</time>
      </trkpt>
      <trkpt lat="42.836939329281449" lon="1.598075134679675">
        <ele>534.14999999999998</ele>
        <time>2016-05-28T12:18:54Z</time>
      </trkpt>
      <trkpt lat="42.837034547701478" lon="1.598121738061309">
        <ele>536.07000000000005</ele>
        <time>2016-05-28T12:19:07Z</time>
      </trkpt>
      <trkpt lat="42.837137309834361" lon="1.598160965368152">
        <ele>535.59000000000003</ele>
        <time>2016-05-28T12:19:18Z</time>
      </trkpt>
      <trkpt lat="42.837297152727842" lon="1.598162557929754">
        <ele>533.66999999999996</ele>
        <time>2016-05-28T12:19:32Z</time>
      </trkpt>
      <trkpt lat="42.837309055030346" lon="1.598156942054629">
        <ele>533.66999999999996</ele>
        <time>2016-05-28T12:19:33Z</time>
      </trkpt>
      <trkpt lat="42.837437549605966" lon="1.598145291209221">
        <ele>531.26999999999998</ele>
        <time>2016-05-28T12:19:42Z</time>
      </trkpt>
      <trkpt lat="42.837624046951532" lon="1.598188541829586">
        <ele>530.29999999999995</ele>
        <time>2016-05-28T12:19:56Z</time>
      </trkpt>
      <trkpt lat="42.837708536535501" lon="1.598225589841604">
        <ele>530.29999999999995</ele>
        <time>2016-05-28T12:20:03Z</time>
      </trkpt>
      <trkpt lat="42.837803000584245" lon="1.598215196281672">
        <ele>530.78999999999996</ele>
        <time>2016-05-28T12:20:10Z</time>
      </trkpt>
      <trkpt lat="42.837911965325475" lon="1.598289124667645">
        <ele>531.26999999999998</ele>
        <time>2016-05-28T12:20:20Z</time>
      </trkpt>
      <trkpt lat="42.837973404675722" lon="1.598359448835254">
        <ele>531.75</ele>
        <time>2016-05-28T12:20:26Z</time>
      </trkpt>
      <trkpt lat="42.838110951706767" lon="1.598490290343761">
        <ele>534.14999999999998</ele>
        <time>2016-05-28T12:20:41Z</time>
      </trkpt>
      <trkpt lat="42.838126625865698" lon="1.598502779379487">
        <ele>534.14999999999998</ele>
        <time>2016-05-28T12:20:43Z</time>
      </trkpt>
      <trkpt lat="42.838201392441988" lon="1.598620712757111">
        <ele>533.66999999999996</ele>
        <time>2016-05-28T12:20:54Z</time>
      </trkpt>
      <trkpt lat="42.838251600041986" lon="1.598713416606188">
        <ele>535.59000000000003</ele>
        <time>2016-05-28T12:21:00Z</time>
      </trkpt>
      <trkpt lat="42.838386967778206" lon="1.598877450451255">
        <ele>533.66999999999996</ele>
        <time>2016-05-28T12:21:14Z</time>
      </trkpt>
      <trkpt lat="42.838469780981541" lon="1.598962778225541">
        <ele>531.75</ele>
        <time>2016-05-28T12:21:23Z</time>
      </trkpt>
      <trkpt lat="42.83864320255816" lon="1.59909755922854">
        <ele>526.46000000000004</ele>
        <time>2016-05-28T12:21:40Z</time>
      </trkpt>
      <trkpt lat="42.838709922507405" lon="1.599186742678285">
        <ele>526.94000000000005</ele>
        <time>2016-05-28T12:21:54Z</time>
      </trkpt>
      <trkpt lat="42.838724171742797" lon="1.599310878664255">
        <ele>524.53999999999996</ele>
        <time>2016-05-28T12:22:07Z</time>
      </trkpt>
      <trkpt lat="42.83871310763061" lon="1.599322026595473">
        <ele>524.05999999999995</ele>
        <time>2016-05-28T12:22:12Z</time>
      </trkpt>
      <trkpt lat="42.838625516742468" lon="1.599419843405485">
        <ele>521.64999999999998</ele>
        <time>2016-05-28T12:22:27Z</time>
      </trkpt>
      <trkpt lat="42.838612357154489" lon="1.59939905628562">
        <ele>521.64999999999998</ele>
        <time>2016-05-28T12:22:29Z</time>
      </trkpt>
      <trkpt lat="42.838569860905409" lon="1.599374329671264">
        <ele>521.64999999999998</ele>
        <time>2016-05-28T12:22:33Z</time>
      </trkpt>
      <trkpt lat="42.838513953611255" lon="1.599497124552727">
        <ele>517.80999999999995</ele>
        <time>2016-05-28T12:22:46Z</time>
      </trkpt>
      <trkpt lat="42.838443629443645" lon="1.599585469812155">
        <ele>513.48000000000002</ele>
        <time>2016-05-28T12:23:00Z</time>
      </trkpt>
      <trkpt lat="42.838433068245649" lon="1.599589744582772">
        <ele>510.60000000000002</ele>
        <time>2016-05-28T12:23:13Z</time>
      </trkpt>
      <trkpt lat="42.838392416015267" lon="1.599715054035187">
        <ele>506.75</ele>
        <time>2016-05-28T12:23:23Z</time>
      </trkpt>
      <trkpt lat="42.838391996920109" lon="1.599784623831511">
        <ele>505.79000000000002</ele>
        <time>2016-05-28T12:23:29Z</time>
      </trkpt>
      <trkpt lat="42.838402558118105" lon="1.599809266626835">
        <ele>505.31</ele>
        <time>2016-05-28T12:23:31Z</time>
      </trkpt>
      <trkpt lat="42.838448323309422" lon="1.600076649338007">
        <ele>502.91000000000003</ele>
        <time>2016-05-28T12:23:47Z</time>
      </trkpt>
      <trkpt lat="42.838462991639972" lon="1.600117636844516">
        <ele>504.35000000000002</ele>
        <time>2016-05-28T12:23:58Z</time>
      </trkpt>
      <trkpt lat="42.838470451533794" lon="1.600122414529324">
        <ele>503.38999999999999</ele>
        <time>2016-05-28T12:24:01Z</time>
      </trkpt>
      <trkpt lat="42.838494339957833" lon="1.600257363170385">
        <ele>502.43000000000001</ele>
        <time>2016-05-28T12:24:11Z</time>
      </trkpt>
      <trkpt lat="42.838513283059001" lon="1.600340092554689">
        <ele>501.45999999999998</ele>
        <time>2016-05-28T12:24:16Z</time>
      </trkpt>
      <trkpt lat="42.838616129010916" lon="1.600483004003763">
        <ele>496.66000000000003</ele>
        <time>2016-05-28T12:24:30Z</time>
      </trkpt>
      <trkpt lat="42.838605148717761" lon="1.600508065894246">
        <ele>496.18000000000001</ele>
        <time>2016-05-28T12:24:32Z</time>
      </trkpt>
      <trkpt lat="42.838522335514426" lon="1.600509909912944">
        <ele>494.74000000000001</ele>
        <time>2016-05-28T12:24:40Z</time>
      </trkpt>
      <trkpt lat="42.838573213666677" lon="1.600649720057845">
        <ele>491.85000000000002</ele>
        <time>2016-05-28T12:24:54Z</time>
      </trkpt>
      <trkpt lat="42.838566759601235" lon="1.600843593478203">
        <ele>488.49000000000001</ele>
        <time>2016-05-28T12:25:07Z</time>
      </trkpt>
      <trkpt lat="42.838493417948484" lon="1.601089686155319">
        <ele>487.05000000000001</ele>
        <time>2016-05-28T12:25:24Z</time>
      </trkpt>
      <trkpt lat="42.838428374379873" lon="1.601279284805059">
        <ele>484.63999999999999</ele>
        <time>2016-05-28T12:25:37Z</time>
      </trkpt>
      <trkpt lat="42.838408509269357" lon="1.60136335529387">
        <ele>483.19999999999999</ele>
        <time>2016-05-28T12:25:42Z</time>
      </trkpt>
      <trkpt lat="42.838400462642312" lon="1.601407025009394">
        <ele>482.72000000000003</ele>
        <time>2016-05-28T12:25:45Z</time>
      </trkpt>
      <trkpt lat="42.838386883959174" lon="1.601686645299196">
        <ele>481.75999999999999</ele>
        <time>2016-05-28T12:26:02Z</time>
      </trkpt>
      <trkpt lat="42.838400127366185" lon="1.601926619186997">
        <ele>479.83999999999997</ele>
        <time>2016-05-28T12:26:17Z</time>
      </trkpt>
      <trkpt lat="42.838413035497069" lon="1.60213784314692">
        <ele>477.91000000000003</ele>
        <time>2016-05-28T12:26:31Z</time>
      </trkpt>
      <trkpt lat="42.83844237215817" lon="1.602394077926874">
        <ele>478.87</ele>
        <time>2016-05-28T12:26:45Z</time>
      </trkpt>
      <trkpt lat="42.838461315259337" lon="1.602614605799317">
        <ele>480.80000000000001</ele>
        <time>2016-05-28T12:26:58Z</time>
      </trkpt>
      <trkpt lat="42.838477492332458" lon="1.602704208344221">
        <ele>480.31999999999999</ele>
        <time>2016-05-28T12:27:04Z</time>
      </trkpt>
      <trkpt lat="42.838467936962843" lon="1.602810909971595">
        <ele>480.80000000000001</ele>
        <time>2016-05-28T12:27:11Z</time>
      </trkpt>
      <trkpt lat="42.838479839265347" lon="1.602859692648053">
        <ele>480.80000000000001</ele>
        <time>2016-05-28T12:27:14Z</time>
      </trkpt>
      <trkpt lat="42.838514791801572" lon="1.60291233099997">
        <ele>481.75999999999999</ele>
        <time>2016-05-28T12:27:19Z</time>
      </trkpt>
      <trkpt lat="42.838630881160498" lon="1.602920042350888">
        <ele>482.24000000000001</ele>
        <time>2016-05-28T12:27:29Z</time>
      </trkpt>
      <trkpt lat="42.838762979954481" lon="1.602953737601638">
        <ele>482.72000000000003</ele>
        <time>2016-05-28T12:27:41Z</time>
      </trkpt>
      <trkpt lat="42.83877270296216" lon="1.603002604097128">
        <ele>484.16000000000003</ele>
        <time>2016-05-28T12:27:52Z</time>
      </trkpt>
      <trkpt lat="42.83872677013278" lon="1.603042250499129">
        <ele>484.63999999999999</ele>
        <time>2016-05-28T12:28:07Z</time>
      </trkpt>
      <trkpt lat="42.83864320255816" lon="1.603120705112815">
        <ele>483.68000000000001</ele>
        <time>2016-05-28T12:28:21Z</time>
      </trkpt>
      <trkpt lat="42.838643956929445" lon="1.603160686790943">
        <ele>485.60000000000002</ele>
        <time>2016-05-28T12:28:30Z</time>
      </trkpt>
      <trkpt lat="42.838590396568179" lon="1.603297898545861">
        <ele>485.12</ele>
        <time>2016-05-28T12:28:42Z</time>
      </trkpt>
      <trkpt lat="42.838580757379532" lon="1.603304604068399">
        <ele>484.63999999999999</ele>
        <time>2016-05-28T12:28:43Z</time>
      </trkpt>
      <trkpt lat="42.838418902829289" lon="1.603430919349194">
        <ele>485.12</ele>
        <time>2016-05-28T12:28:58Z</time>
      </trkpt>
      <trkpt lat="42.838326534256339" lon="1.603579362854362">
        <ele>486.56</ele>
        <time>2016-05-28T12:29:11Z</time>
      </trkpt>
      <trkpt lat="42.838200721889734" lon="1.603696793317795">
        <ele>486.07999999999998</ele>
        <time>2016-05-28T12:29:24Z</time>
      </trkpt>
      <trkpt lat="42.838061917573214" lon="1.603826209902763">
        <ele>486.07999999999998</ele>
        <time>2016-05-28T12:29:38Z</time>
      </trkpt>
      <trkpt lat="42.837968291714787" lon="1.603982867673039">
        <ele>485.60000000000002</ele>
        <time>2016-05-28T12:29:51Z</time>
      </trkpt>
      <trkpt lat="42.837916072458029" lon="1.604156792163849">
        <ele>486.07999999999998</ele>
        <time>2016-05-28T12:30:03Z</time>
      </trkpt>
      <trkpt lat="42.83795814961195" lon="1.604389976710081">
        <ele>483.68000000000001</ele>
        <time>2016-05-28T12:30:18Z</time>
      </trkpt>
      <trkpt lat="42.838061917573214" lon="1.604575468227267">
        <ele>485.60000000000002</ele>
        <time>2016-05-28T12:30:32Z</time>
      </trkpt>
      <trkpt lat="42.838158225640655" lon="1.6047084890306">
        <ele>486.56</ele>
        <time>2016-05-28T12:30:44Z</time>
      </trkpt>
      <trkpt lat="42.838206002488732" lon="1.604874702170491">
        <ele>488.49000000000001</ele>
        <time>2016-05-28T12:30:56Z</time>
      </trkpt>
      <trkpt lat="42.838290659710765" lon="1.605149628594518">
        <ele>485.12</ele>
        <time>2016-05-28T12:31:12Z</time>
      </trkpt>
      <trkpt lat="42.838411275297403" lon="1.605326822027564">
        <ele>484.16000000000003</ele>
        <time>2016-05-28T12:31:27Z</time>
      </trkpt>
      <trkpt lat="42.838470786809921" lon="1.605392871424556">
        <ele>483.68000000000001</ele>
        <time>2016-05-28T12:31:36Z</time>
      </trkpt>
      <trkpt lat="42.838537003844976" lon="1.605450203642249">
        <ele>484.16000000000003</ele>
        <time>2016-05-28T12:31:45Z</time>
      </trkpt>
      <trkpt lat="42.838674299418926" lon="1.605553803965449">
        <ele>486.07999999999998</ele>
        <time>2016-05-28T12:31:59Z</time>
      </trkpt>
      <trkpt lat="42.838857527822256" lon="1.605643155053258">
        <ele>485.12</ele>
        <time>2016-05-28T12:32:14Z</time>
      </trkpt>
      <trkpt lat="42.839032290503383" lon="1.605738708749414">
        <ele>485.60000000000002</ele>
        <time>2016-05-28T12:32:29Z</time>
      </trkpt>
      <trkpt lat="42.83904243260622" lon="1.605742061510682">
        <ele>485.60000000000002</ele>
        <time>2016-05-28T12:32:30Z</time>
      </trkpt>
      <trkpt lat="42.83919045701623" lon="1.605836609378457">
        <ele>488.49000000000001</ele>
        <time>2016-05-28T12:32:44Z</time>
      </trkpt>
      <trkpt lat="42.839362537488341" lon="1.605852283537388">
        <ele>490.41000000000003</ele>
        <time>2016-05-28T12:32:58Z</time>
      </trkpt>
      <trkpt lat="42.839484829455614" lon="1.605909112840891">
        <ele>490.41000000000003</ele>
        <time>2016-05-28T12:33:09Z</time>
      </trkpt>
      <trkpt lat="42.839587843045592" lon="1.605995111167431">
        <ele>488.00999999999999</ele>
        <time>2016-05-28T12:33:19Z</time>
      </trkpt>
      <trkpt lat="42.839718014001846" lon="1.606033416464925">
        <ele>485.12</ele>
        <time>2016-05-28T12:33:30Z</time>
      </trkpt>
      <trkpt lat="42.839846424758434" lon="1.606028387323022">
        <ele>484.16000000000003</ele>
        <time>2016-05-28T12:33:42Z</time>
      </trkpt>
      <trkpt lat="42.839985564351082" lon="1.606036685407162">
        <ele>484.63999999999999</ele>
        <time>2016-05-28T12:33:54Z</time>
      </trkpt>
      <trkpt lat="42.840131493285298" lon="1.606028554961085">
        <ele>486.56</ele>
        <time>2016-05-28T12:34:08Z</time>
      </trkpt>
      <trkpt lat="42.84033291041851" lon="1.606017742305994">
        <ele>486.56</ele>
        <time>2016-05-28T12:34:24Z</time>
      </trkpt>
      <trkpt lat="42.840497447177768" lon="1.605980359017849">
        <ele>484.63999999999999</ele>
        <time>2016-05-28T12:34:38Z</time>
      </trkpt>
      <trkpt lat="42.840620325878263" lon="1.605952363461256">
        <ele>485.12</ele>
        <time>2016-05-28T12:34:49Z</time>
      </trkpt>
      <trkpt lat="42.84079366363585" lon="1.605890169739723">
        <ele>485.60000000000002</ele>
        <time>2016-05-28T12:35:04Z</time>
      </trkpt>
      <trkpt lat="42.840952249243855" lon="1.605845745652914">
        <ele>486.07999999999998</ele>
        <time>2016-05-28T12:35:17Z</time>
      </trkpt>
      <trkpt lat="42.841044533997774" lon="1.605804758146405">
        <ele>485.60000000000002</ele>
        <time>2016-05-28T12:35:33Z</time>
      </trkpt>
      <trkpt lat="42.841052664443851" lon="1.605808027088642">
        <ele>485.60000000000002</ele>
        <time>2016-05-28T12:35:34Z</time>
      </trkpt>
      <trkpt lat="42.84123882651329" lon="1.605712892487645">
        <ele>485.60000000000002</ele>
        <time>2016-05-28T12:35:52Z</time>
      </trkpt>
      <trkpt lat="42.841417361050844" lon="1.60559487529099">
        <ele>482.24000000000001</ele>
        <time>2016-05-28T12:36:08Z</time>
      </trkpt>
      <trkpt lat="42.841559685766697" lon="1.605515163391829">
        <ele>482.72000000000003</ele>
        <time>2016-05-28T12:36:21Z</time>
      </trkpt>
      <trkpt lat="42.841711565852165" lon="1.605407958850265">
        <ele>483.19999999999999</ele>
        <time>2016-05-28T12:36:36Z</time>
      </trkpt>
      <trkpt lat="42.841817261651158" lon="1.605351967737079">
        <ele>483.68000000000001</ele>
        <time>2016-05-28T12:36:47Z</time>
      </trkpt>
      <trkpt lat="42.841935949400067" lon="1.605289774015546">
        <ele>481.27999999999997</ele>
        <time>2016-05-28T12:36:59Z</time>
      </trkpt>
      <trkpt lat="42.842159494757652" lon="1.605180222541094">
        <ele>479.35000000000002</ele>
        <time>2016-05-28T12:37:17Z</time>
      </trkpt>
      <trkpt lat="42.842236775904894" lon="1.605186844244599">
        <ele>478.38999999999999</ele>
        <time>2016-05-28T12:37:27Z</time>
      </trkpt>
      <trkpt lat="42.842260915786028" lon="1.605188604444265">
        <ele>476.94999999999999</ele>
        <time>2016-05-28T12:37:41Z</time>
      </trkpt>
      <trkpt lat="42.842425536364317" lon="1.605095313861966">
        <ele>475.50999999999999</ele>
        <time>2016-05-28T12:37:56Z</time>
      </trkpt>
      <trkpt lat="42.842600382864475" lon="1.605015769600868">
        <ele>476.47000000000003</ele>
        <time>2016-05-28T12:38:12Z</time>
      </trkpt>
      <trkpt lat="42.84278973005712" lon="1.604958269745112">
        <ele>475.99000000000001</ele>
        <time>2016-05-28T12:38:29Z</time>
      </trkpt>
      <trkpt lat="42.84293482080102" lon="1.60492205992341">
        <ele>475.50999999999999</ele>
        <time>2016-05-28T12:38:42Z</time>
      </trkpt>
      <trkpt lat="42.843071445822716" lon="1.604868751019239">
        <ele>476.94999999999999</ele>
        <time>2016-05-28T12:38:56Z</time>
      </trkpt>
      <trkpt lat="42.843136740848422" lon="1.604859614744782">
        <ele>476.47000000000003</ele>
        <time>2016-05-28T12:39:11Z</time>
      </trkpt>
      <trkpt lat="42.843197677284479" lon="1.60489272326231">
        <ele>475.99000000000001</ele>
        <time>2016-05-28T12:39:31Z</time>
      </trkpt>
      <trkpt lat="42.843280239030719" lon="1.604889957234263">
        <ele>478.38999999999999</ele>
        <time>2016-05-28T12:39:42Z</time>
      </trkpt>
      <trkpt lat="42.843367410823703" lon="1.60490982234478">
        <ele>480.31999999999999</ele>
        <time>2016-05-28T12:39:54Z</time>
      </trkpt>
      <trkpt lat="42.843492971733212" lon="1.604955419898033">
        <ele>480.80000000000001</ele>
        <time>2016-05-28T12:40:08Z</time>
      </trkpt>
      <trkpt lat="42.843616772443056" lon="1.605029683560133">
        <ele>480.31999999999999</ele>
        <time>2016-05-28T12:40:21Z</time>
      </trkpt>
      <trkpt lat="42.843724982813001" lon="1.60509598441422">
        <ele>479.83999999999997</ele>
        <time>2016-05-28T12:40:35Z</time>
      </trkpt>
      <trkpt lat="42.843872923403978" lon="1.60520545206964">
        <ele>478.87</ele>
        <time>2016-05-28T12:40:52Z</time>
      </trkpt>
      <trkpt lat="42.843950875103474" lon="1.605279548093677">
        <ele>479.35000000000002</ele>
        <time>2016-05-28T12:41:02Z</time>
      </trkpt>
      <trkpt lat="42.844124715775251" lon="1.605356074869633">
        <ele>476.94999999999999</ele>
        <time>2016-05-28T12:41:18Z</time>
      </trkpt>
      <trkpt lat="42.844287073239684" lon="1.605452634394169">
        <ele>475.99000000000001</ele>
        <time>2016-05-28T12:41:33Z</time>
      </trkpt>
      <trkpt lat="42.844404084607959" lon="1.605546344071627">
        <ele>474.55000000000001</ele>
        <time>2016-05-28T12:41:45Z</time>
      </trkpt>
      <trkpt lat="42.844530316069722" lon="1.605694703757763">
        <ele>472.13999999999999</ele>
        <time>2016-05-28T12:42:00Z</time>
      </trkpt>
      <trkpt lat="42.844676245003939" lon="1.605833088979125">
        <ele>468.77999999999997</ele>
        <time>2016-05-28T12:42:15Z</time>
      </trkpt>
      <trkpt lat="42.844779174774885" lon="1.60600240342319">
        <ele>469.74000000000001</ele>
        <time>2016-05-28T12:42:29Z</time>
      </trkpt>
      <trkpt lat="42.844997188076377" lon="1.606066189706326">
        <ele>469.74000000000001</ele>
        <time>2016-05-28T12:42:46Z</time>
      </trkpt>
      <trkpt lat="42.845116630196571" lon="1.605999302119017">
        <ele>471.18000000000001</ele>
        <time>2016-05-28T12:42:57Z</time>
      </trkpt>
      <trkpt lat="42.845284519717097" lon="1.605897210538387">
        <ele>471.66000000000003</ele>
        <time>2016-05-28T12:43:13Z</time>
      </trkpt>
      <trkpt lat="42.845313018187881" lon="1.605896959081292">
        <ele>471.66000000000003</ele>
        <time>2016-05-28T12:43:17Z</time>
      </trkpt>
      <trkpt lat="42.845351072028279" lon="1.605924619361758">
        <ele>472.13999999999999</ele>
        <time>2016-05-28T12:43:21Z</time>
      </trkpt>
      <trkpt lat="42.84542097710073" lon="1.605899808928371">
        <ele>473.11000000000001</ele>
        <time>2016-05-28T12:43:34Z</time>
      </trkpt>
      <trkpt lat="42.845539413392544" lon="1.605826131999493">
        <ele>473.58999999999997</ele>
        <time>2016-05-28T12:43:47Z</time>
      </trkpt>
      <trkpt lat="42.845618538558483" lon="1.605803836137056">
        <ele>474.06999999999999</ele>
        <time>2016-05-28T12:44:00Z</time>
      </trkpt>
      <trkpt lat="42.845728257670999" lon="1.605714736506343">
        <ele>473.58999999999997</ele>
        <time>2016-05-28T12:44:13Z</time>
      </trkpt>
      <trkpt lat="42.845867061987519" lon="1.605594456195831">
        <ele>473.11000000000001</ele>
        <time>2016-05-28T12:44:29Z</time>
      </trkpt>
      <trkpt lat="42.845874521881342" lon="1.605562688782811">
        <ele>473.11000000000001</ele>
        <time>2016-05-28T12:44:32Z</time>
      </trkpt>
      <trkpt lat="42.845815429463983" lon="1.605408545583487">
        <ele>472.63</ele>
        <time>2016-05-28T12:44:44Z</time>
      </trkpt>
      <trkpt lat="42.845808640122414" lon="1.605356158688664">
        <ele>475.02999999999997</ele>
        <time>2016-05-28T12:44:58Z</time>
      </trkpt>
      <trkpt lat="42.845772095024586" lon="1.605388093739748">
        <ele>480.31999999999999</ele>
        <time>2016-05-28T12:45:15Z</time>
      </trkpt>
      <trkpt lat="42.845777627080679" lon="1.605441570281982">
        <ele>485.60000000000002</ele>
        <time>2016-05-28T12:45:34Z</time>
      </trkpt>
      <trkpt lat="42.845727670937777" lon="1.605470990762115">
        <ele>490.88999999999999</ele>
        <time>2016-05-28T12:46:04Z</time>
      </trkpt>
      <trkpt lat="42.845737393945456" lon="1.605468979105353">
        <ele>494.25999999999999</ele>
        <time>2016-05-28T12:46:28Z</time>
      </trkpt>
      <trkpt lat="42.84571660682559" lon="1.605482306331396">
        <ele>533.66999999999996</ele>
        <time>2016-05-28T12:46:47Z</time>
      </trkpt>
    </trkseg>
  </trk>

</gpx>